Time,TemperatureF,DewpointF,PressureIn,WindDirection,WindDirectionDegrees,WindSpeedMPH,WindSpeedGustMPH,Humidity,HourlyPrecipIn,Conditions,Clouds,dailyrainin,SoftwareType,DateUTC
2013-02-15 00:00:00,35.7,29.2,29.99,SSW,196,9.0,14.0,77,0.00,,---,0.00,VWS V14.01,2013-02-15 05:00:00,
2013-02-15 00:01:00,35.7,29.2,29.99,SSW,196,9.0,10.0,77,0.00,,---,0.00,VWS V14.01,2013-02-15 05:01:00,
2013-02-15 00:02:00,35.7,29.2,29.99,SSW,192,11.0,12.0,77,0.00,,---,0.00,VWS V14.01,2013-02-15 05:02:00,
2013-02-15 00:03:00,35.7,29.2,29.99,SSW,194,9.0,12.0,77,0.00,,---,0.00,VWS V14.01,2013-02-15 05:03:00,
2013-02-15 00:04:00,35.7,29.2,30.00,SSW,192,9.0,12.0,77,0.00,,---,0.00,VWS V14.01,2013-02-15 05:04:00,
2013-02-15 00:05:00,35.7,29.2,30.00,SSW,194,10.0,12.0,77,0.00,,---,0.00,VWS V14.01,2013-02-15 05:05:00,
2013-02-15 00:06:00,35.6,29.1,30.00,SSW,194,10.0,12.0,77,0.00,,---,0.00,VWS V14.01,2013-02-15 05:06:00,
2013-02-15 00:07:00,35.6,28.8,29.99,SSW,196,8.0,12.0,76,0.00,,---,0.00,VWS V14.01,2013-02-15 05:07:00,
2013-02-15 00:08:00,35.6,28.8,30.00,South,188,9.0,12.0,76,0.00,,---,0.00,VWS V14.01,2013-02-15 05:08:00,
2013-02-15 00:09:00,35.6,28.8,29.99,South,181,9.0,12.0,76,0.00,,---,0.00,VWS V14.01,2013-02-15 05:09:00,
2013-02-15 00:10:00,35.5,29.0,30.00,SSW,196,8.0,12.0,77,0.00,,---,0.00,VWS V14.01,2013-02-15 05:10:00,
2013-02-15 00:11:00,35.5,29.0,30.00,SSW,194,8.0,12.0,77,0.00,,---,0.00,VWS V14.01,2013-02-15 05:11:00,
2013-02-15 00:12:00,35.5,29.0,30.00,SSW,194,7.0,12.0,77,0.00,,---,0.00,VWS V14.01,2013-02-15 05:12:00,
2013-02-15 00:13:00,35.6,29.1,30.00,SSW,194,8.0,12.0,77,0.00,,---,0.00,VWS V14.01,2013-02-15 05:13:00,
2013-02-15 00:14:00,35.6,29.1,30.00,South,190,10.0,13.0,77,0.00,,---,0.00,VWS V14.01,2013-02-15 05:14:00,
2013-02-15 00:15:00,35.5,29.0,30.00,SSW,193,9.0,13.0,77,0.00,,---,0.00,VWS V14.01,2013-02-15 05:15:00,
2013-02-15 00:16:00,35.5,29.0,30.00,South,189,8.0,13.0,77,0.00,,---,0.00,VWS V14.01,2013-02-15 05:16:00,
2013-02-15 00:17:00,35.5,29.0,30.00,SSW,194,7.0,13.0,77,0.00,,---,0.00,VWS V14.01,2013-02-15 05:17:00,
2013-02-15 00:18:00,35.5,29.3,30.00,South,191,8.0,13.0,78,0.00,,---,0.00,VWS V14.01,2013-02-15 05:18:00,
2013-02-15 00:19:00,35.5,29.3,30.00,South,182,9.0,13.0,78,0.00,,---,0.00,VWS V14.01,2013-02-15 05:19:00,
2013-02-15 00:20:00,35.5,29.3,30.00,South,191,10.0,13.0,78,0.00,,---,0.00,VWS V14.01,2013-02-15 05:20:00,
2013-02-15 00:21:00,35.4,28.9,30.00,SSW,192,9.0,13.0,77,0.00,,---,0.00,VWS V14.01,2013-02-15 05:21:00,
2013-02-15 00:22:00,35.4,28.9,29.99,South,190,12.0,13.0,77,0.00,,---,0.00,VWS V14.01,2013-02-15 05:22:00,
2013-02-15 00:23:00,35.3,28.8,30.00,SSW,192,11.0,13.0,77,0.00,,---,0.00,VWS V14.01,2013-02-15 05:23:00,
2013-02-15 00:24:00,35.3,29.1,30.00,SSW,193,10.0,13.0,78,0.00,,---,0.00,VWS V14.01,2013-02-15 05:24:00,
2013-02-15 00:25:00,35.3,29.1,30.00,SSW,194,11.0,13.0,78,0.00,,---,0.00,VWS V14.01,2013-02-15 05:25:00,
2013-02-15 00:26:00,35.3,29.1,30.00,SSW,205,9.0,13.0,78,0.00,,---,0.00,VWS V14.01,2013-02-15 05:26:00,
2013-02-15 00:27:00,35.3,29.1,30.00,SSW,193,12.0,13.0,78,0.00,,---,0.00,VWS V14.01,2013-02-15 05:27:00,
2013-02-15 00:28:00,35.3,29.1,30.00,SSW,193,8.0,13.0,78,0.00,,---,0.00,VWS V14.01,2013-02-15 05:28:00,
2013-02-15 00:29:00,35.3,29.1,30.00,SSW,194,7.0,13.0,78,0.00,,---,0.00,VWS V14.01,2013-02-15 05:29:00,
2013-02-15 00:30:00,35.3,29.1,30.00,SSW,192,9.0,13.0,78,0.00,,---,0.00,VWS V14.01,2013-02-15 05:30:00,
2013-02-15 00:31:00,35.2,29.0,29.99,South,191,11.0,11.0,78,0.00,,---,0.00,VWS V14.01,2013-02-15 05:31:00,
2013-02-15 00:32:00,35.2,29.0,29.99,SSW,192,10.0,13.0,78,0.00,,---,0.00,VWS V14.01,2013-02-15 05:32:00,
2013-02-15 00:33:00,35.2,29.0,29.99,South,188,10.0,13.0,78,0.00,,---,0.00,VWS V14.01,2013-02-15 05:33:00,
2013-02-15 00:34:00,35.1,28.9,29.99,South,183,8.0,13.0,78,0.00,,---,0.00,VWS V14.01,2013-02-15 05:34:00,
2013-02-15 00:35:00,35.1,28.9,29.99,SSW,196,9.0,13.0,78,0.00,,---,0.00,VWS V14.01,2013-02-15 05:35:00,
2013-02-15 00:36:00,35.1,28.9,29.99,South,191,11.0,13.0,78,0.00,,---,0.00,VWS V14.01,2013-02-15 05:36:00,
2013-02-15 00:37:00,35.0,28.9,29.99,South,188,9.0,13.0,78,0.00,,---,0.00,VWS V14.01,2013-02-15 05:37:00,
2013-02-15 00:38:00,35.0,28.9,29.99,SSW,192,9.0,13.0,78,0.00,,---,0.00,VWS V14.01,2013-02-15 05:38:00,
2013-02-15 00:39:00,35.0,28.9,29.99,SSW,192,10.0,13.0,78,0.00,,---,0.00,VWS V14.01,2013-02-15 05:39:00,
2013-02-15 00:40:00,35.0,28.9,29.99,South,190,10.0,13.0,78,0.00,,---,0.00,VWS V14.01,2013-02-15 05:40:00,
2013-02-15 00:41:00,34.9,28.8,29.99,SSW,194,9.0,13.0,78,0.00,,---,0.00,VWS V14.01,2013-02-15 05:41:00,
2013-02-15 00:42:00,34.9,28.8,29.99,South,190,9.0,13.0,78,0.00,,---,0.00,VWS V14.01,2013-02-15 05:42:00,
2013-02-15 00:43:00,35.0,29.2,29.99,SSW,194,7.0,13.0,79,0.00,,---,0.00,VWS V14.01,2013-02-15 05:43:00,
2013-02-15 00:44:00,35.0,29.2,29.99,South,188,9.0,13.0,79,0.00,,---,0.00,VWS V14.01,2013-02-15 05:44:00,
2013-02-15 00:45:00,35.0,29.2,29.99,SSW,196,7.0,13.0,79,0.00,,---,0.00,VWS V14.01,2013-02-15 05:45:00,
2013-02-15 00:46:00,34.9,29.1,29.99,SSW,194,8.0,13.0,79,0.00,,---,0.00,VWS V14.01,2013-02-15 05:46:00,
2013-02-15 00:47:00,34.9,29.1,29.99,SSW,194,9.0,13.0,79,0.00,,---,0.00,VWS V14.01,2013-02-15 05:47:00,
2013-02-15 00:48:00,34.9,29.1,29.99,SSW,192,8.0,13.0,79,0.00,,---,0.00,VWS V14.01,2013-02-15 05:48:00,
2013-02-15 00:49:00,34.9,29.1,29.99,South,191,10.0,13.0,79,0.00,,---,0.00,VWS V14.01,2013-02-15 05:49:00,
2013-02-15 00:50:00,34.9,29.1,29.99,SSW,192,7.0,13.0,79,0.00,,---,0.00,VWS V14.01,2013-02-15 05:50:00,
2013-02-15 00:51:00,34.9,29.1,29.99,SSW,195,7.0,13.0,79,0.00,,---,0.00,VWS V14.01,2013-02-15 05:51:00,
2013-02-15 00:52:00,34.9,29.1,29.99,SSW,194,7.0,13.0,79,0.00,,---,0.00,VWS V14.01,2013-02-15 05:52:00,
2013-02-15 00:53:00,34.9,29.1,29.99,SSW,197,8.0,13.0,79,0.00,,---,0.00,VWS V14.01,2013-02-15 05:53:00,
2013-02-15 00:54:00,34.9,29.1,29.99,SSW,200,7.0,13.0,79,0.00,,---,0.00,VWS V14.01,2013-02-15 05:54:00,
2013-02-15 00:55:00,34.9,29.1,29.99,South,191,9.0,13.0,79,0.00,,---,0.00,VWS V14.01,2013-02-15 05:55:00,
2013-02-15 00:56:00,34.9,29.1,29.99,SSW,196,7.0,13.0,79,0.00,,---,0.00,VWS V14.01,2013-02-15 05:56:00,
2013-02-15 00:57:00,34.9,29.1,29.99,South,191,9.0,13.0,79,0.00,,---,0.00,VWS V14.01,2013-02-15 05:57:00,
2013-02-15 00:58:00,34.9,29.1,29.99,SSW,194,9.0,13.0,79,0.00,,---,0.00,VWS V14.01,2013-02-15 05:58:00,
2013-02-15 00:59:00,34.9,29.1,29.99,SSW,198,8.0,13.0,79,0.00,,---,0.00,VWS V14.01,2013-02-15 05:59:00,
2013-02-15 01:00:00,34.9,29.4,29.99,SSW,194,8.0,13.0,80,0.00,,---,0.00,VWS V14.01,2013-02-15 06:00:00,
2013-02-15 01:01:00,35.0,29.5,29.99,SSW,196,7.0,10.0,80,0.00,,---,0.00,VWS V14.01,2013-02-15 06:01:00,
2013-02-15 01:02:00,35.0,29.5,29.99,SSW,202,7.0,10.0,80,0.00,,---,0.00,VWS V14.01,2013-02-15 06:02:00,
2013-02-15 01:03:00,35.0,29.5,29.99,SSW,200,7.0,10.0,80,0.00,,---,0.00,VWS V14.01,2013-02-15 06:03:00,
2013-02-15 01:04:00,35.0,29.5,29.99,SSW,192,7.0,10.0,80,0.00,,---,0.00,VWS V14.01,2013-02-15 06:04:00,
2013-02-15 01:05:00,35.0,29.5,29.99,SSW,200,8.0,10.0,80,0.00,,---,0.00,VWS V14.01,2013-02-15 06:05:00,
2013-02-15 01:06:00,35.0,29.5,29.99,SSW,200,7.0,10.0,80,0.00,,---,0.00,VWS V14.01,2013-02-15 06:06:00,
2013-02-15 01:07:00,35.1,29.6,29.99,SSW,200,7.0,10.0,80,0.00,,---,0.00,VWS V14.01,2013-02-15 06:07:00,
2013-02-15 01:08:00,35.1,29.6,29.99,SSW,199,7.0,10.0,80,0.00,,---,0.00,VWS V14.01,2013-02-15 06:08:00,
2013-02-15 01:09:00,35.1,29.9,29.99,SSW,200,6.0,10.0,81,0.00,,---,0.00,VWS V14.01,2013-02-15 06:09:00,
2013-02-15 01:10:00,35.1,29.9,29.99,SSW,198,7.0,10.0,81,0.00,,---,0.00,VWS V14.01,2013-02-15 06:10:00,
2013-02-15 01:11:00,35.1,29.9,29.99,SSW,198,7.0,10.0,81,0.00,,---,0.00,VWS V14.01,2013-02-15 06:11:00,
2013-02-15 01:12:00,35.1,29.6,29.99,SSW,197,7.0,10.0,80,0.00,,---,0.00,VWS V14.01,2013-02-15 06:12:00,
2013-02-15 01:13:00,35.1,29.9,29.99,SSW,204,8.0,10.0,81,0.00,,---,0.00,VWS V14.01,2013-02-15 06:13:00,
2013-02-15 01:14:00,35.1,29.9,29.99,SSW,202,7.0,10.0,81,0.00,,---,0.00,VWS V14.01,2013-02-15 06:14:00,
2013-02-15 01:15:00,35.2,30.0,29.99,SSW,207,7.0,10.0,81,0.00,,---,0.00,VWS V14.01,2013-02-15 06:15:00,
2013-02-15 01:16:00,35.2,30.3,29.99,SSW,193,8.0,10.0,82,0.00,,---,0.00,VWS V14.01,2013-02-15 06:16:00,
2013-02-15 01:17:00,35.2,30.3,29.99,SSW,199,9.0,10.0,82,0.00,,---,0.00,VWS V14.01,2013-02-15 06:17:00,
2013-02-15 01:18:00,35.3,30.4,29.99,SSW,205,8.0,10.0,82,0.00,,---,0.00,VWS V14.01,2013-02-15 06:18:00,
2013-02-15 01:19:00,35.3,30.4,29.99,SSW,198,7.0,10.0,82,0.00,,---,0.00,VWS V14.01,2013-02-15 06:19:00,
2013-02-15 01:20:00,35.3,30.1,29.99,SSW,196,8.0,10.0,81,0.00,,---,0.00,VWS V14.01,2013-02-15 06:20:00,
2013-02-15 01:21:00,35.3,30.1,29.99,SSW,205,6.0,10.0,81,0.00,,---,0.00,VWS V14.01,2013-02-15 06:21:00,
2013-02-15 01:22:00,35.3,30.1,29.99,SSW,194,7.0,10.0,81,0.00,,---,0.00,VWS V14.01,2013-02-15 06:22:00,
2013-02-15 01:23:00,35.3,30.4,29.99,SSW,194,10.0,10.0,82,0.00,,---,0.00,VWS V14.01,2013-02-15 06:23:00,
2013-02-15 01:24:00,35.3,30.4,29.99,SSW,197,9.0,10.0,82,0.00,,---,0.00,VWS V14.01,2013-02-15 06:24:00,
2013-02-15 01:25:00,35.3,30.4,29.99,SSW,198,7.0,10.0,82,0.00,,---,0.00,VWS V14.01,2013-02-15 06:25:00,
2013-02-15 01:26:00,35.4,30.5,29.99,SSW,203,8.0,10.0,82,0.00,,---,0.00,VWS V14.01,2013-02-15 06:26:00,
2013-02-15 01:27:00,35.4,30.5,29.99,South,184,7.0,10.0,82,0.00,,---,0.00,VWS V14.01,2013-02-15 06:27:00,
2013-02-15 01:28:00,35.4,30.5,29.99,SSW,204,8.0,10.0,82,0.00,,---,0.00,VWS V14.01,2013-02-15 06:28:00,
2013-02-15 01:29:00,35.4,30.5,29.99,SSW,200,7.0,10.0,82,0.00,,---,0.00,VWS V14.01,2013-02-15 06:29:00,
2013-02-15 01:30:00,35.3,30.4,29.99,SSW,199,8.0,10.0,82,0.00,,---,0.00,VWS V14.01,2013-02-15 06:30:00,
2013-02-15 01:31:00,35.4,30.5,29.99,SSW,198,10.0,10.0,82,0.00,,---,0.00,VWS V14.01,2013-02-15 06:31:00,
2013-02-15 01:32:00,35.4,30.5,29.99,SSW,207,8.0,11.0,82,0.00,,---,0.00,VWS V14.01,2013-02-15 06:32:00,
2013-02-15 01:33:00,35.3,30.4,29.99,SSW,200,10.0,11.0,82,0.00,,---,0.00,VWS V14.01,2013-02-15 06:33:00,
2013-02-15 01:34:00,35.3,30.4,29.99,SSW,205,9.0,11.0,82,0.00,,---,0.00,VWS V14.01,2013-02-15 06:34:00,
2013-02-15 01:35:00,35.4,30.5,29.99,SSW,201,11.0,13.0,82,0.00,,---,0.00,VWS V14.01,2013-02-15 06:35:00,
2013-02-15 01:36:00,35.3,30.4,29.99,SSW,200,9.0,13.0,82,0.00,,---,0.00,VWS V14.01,2013-02-15 06:36:00,
2013-02-15 01:37:00,35.4,30.8,29.99,SSW,199,8.0,13.0,83,0.00,,---,0.00,VWS V14.01,2013-02-15 06:37:00,
2013-02-15 01:38:00,35.4,30.8,29.99,SSW,198,9.0,13.0,83,0.00,,---,0.00,VWS V14.01,2013-02-15 06:38:00,
2013-02-15 01:39:00,35.4,30.8,29.99,SSW,196,12.0,13.0,83,0.00,,---,0.00,VWS V14.01,2013-02-15 06:39:00,
2013-02-15 01:40:00,35.4,30.8,29.99,SSW,198,11.0,13.0,83,0.00,,---,0.00,VWS V14.01,2013-02-15 06:40:00,
2013-02-15 01:41:00,35.3,30.7,29.99,SSW,194,10.0,13.0,83,0.00,,---,0.00,VWS V14.01,2013-02-15 06:41:00,
2013-02-15 01:42:00,35.3,30.7,29.99,SSW,194,10.0,13.0,83,0.00,,---,0.00,VWS V14.01,2013-02-15 06:42:00,
2013-02-15 01:43:00,35.3,30.7,29.99,SSW,200,10.0,13.0,83,0.00,,---,0.00,VWS V14.01,2013-02-15 06:43:00,
2013-02-15 01:44:00,35.3,30.7,29.99,SSW,205,10.0,14.0,83,0.00,,---,0.00,VWS V14.01,2013-02-15 06:44:00,
2013-02-15 01:45:00,35.3,30.7,29.99,SSW,201,8.0,14.0,83,0.00,,---,0.00,VWS V14.01,2013-02-15 06:45:00,
2013-02-15 01:46:00,35.3,30.7,29.99,SSW,198,8.0,14.0,83,0.00,,---,0.00,VWS V14.01,2013-02-15 06:46:00,
2013-02-15 01:47:00,35.3,30.7,29.99,SSW,202,7.0,14.0,83,0.00,,---,0.00,VWS V14.01,2013-02-15 06:47:00,
2013-02-15 01:48:00,35.3,31.0,29.99,SSW,197,9.0,14.0,84,0.00,,---,0.00,VWS V14.01,2013-02-15 06:48:00,
2013-02-15 01:49:00,35.3,31.0,29.99,SSW,202,9.0,14.0,84,0.00,,---,0.00,VWS V14.01,2013-02-15 06:49:00,
2013-02-15 01:50:00,35.2,30.6,29.99,SSW,202,9.0,14.0,83,0.00,,---,0.00,VWS V14.01,2013-02-15 06:50:00,
2013-02-15 01:51:00,35.2,30.6,29.99,SSW,198,10.0,14.0,83,0.00,,---,0.00,VWS V14.01,2013-02-15 06:51:00,
2013-02-15 01:52:00,35.2,30.6,29.99,SSW,196,9.0,14.0,83,0.00,,---,0.00,VWS V14.01,2013-02-15 06:52:00,
2013-02-15 01:53:00,35.2,30.6,29.99,SSW,201,9.0,14.0,83,0.00,,---,0.00,VWS V14.01,2013-02-15 06:53:00,
2013-02-15 01:54:00,35.2,30.6,29.99,SSW,199,10.0,14.0,83,0.00,,---,0.00,VWS V14.01,2013-02-15 06:54:00,
2013-02-15 01:55:00,35.2,30.6,29.99,SSW,201,8.0,14.0,83,0.00,,---,0.00,VWS V14.01,2013-02-15 06:55:00,
2013-02-15 01:56:00,35.2,30.6,29.99,SSW,202,8.0,14.0,83,0.00,,---,0.00,VWS V14.01,2013-02-15 06:56:00,
2013-02-15 01:57:00,35.2,30.6,29.99,SSW,201,9.0,14.0,83,0.00,,---,0.00,VWS V14.01,2013-02-15 06:57:00,
2013-02-15 01:58:00,35.2,30.6,29.99,SSW,199,9.0,14.0,83,0.00,,---,0.00,VWS V14.01,2013-02-15 06:58:00,
2013-02-15 01:59:00,35.2,30.6,29.99,SSW,200,8.0,14.0,83,0.00,,---,0.00,VWS V14.01,2013-02-15 06:59:00,
2013-02-15 02:00:00,35.2,30.9,29.99,SSW,204,7.0,14.0,84,0.00,,---,0.00,VWS V14.01,2013-02-15 07:00:00,
2013-02-15 02:01:00,35.2,30.9,29.99,SSW,203,8.0,8.0,84,0.00,,---,0.00,VWS V14.01,2013-02-15 07:01:00,
2013-02-15 02:02:00,35.2,30.9,29.99,SSW,210,7.0,8.0,84,0.00,,---,0.00,VWS V14.01,2013-02-15 07:02:00,
2013-02-15 02:03:00,35.3,31.0,29.99,SSW,205,7.0,8.0,84,0.00,,---,0.00,VWS V14.01,2013-02-15 07:03:00,
2013-02-15 02:04:00,35.3,31.0,29.99,SSW,201,8.0,9.0,84,0.00,,---,0.00,VWS V14.01,2013-02-15 07:04:00,
2013-02-15 02:05:00,35.3,31.0,29.99,SSW,201,7.0,10.0,84,0.00,,---,0.00,VWS V14.01,2013-02-15 07:05:00,
2013-02-15 02:06:00,35.3,31.0,29.99,SSW,205,8.0,10.0,84,0.00,,---,0.00,VWS V14.01,2013-02-15 07:06:00,
2013-02-15 02:07:00,35.3,31.0,29.99,SSW,200,9.0,10.0,84,0.00,,---,0.00,VWS V14.01,2013-02-15 07:07:00,
2013-02-15 02:08:00,35.3,31.0,29.99,SSW,201,9.0,10.0,84,0.00,,---,0.00,VWS V14.01,2013-02-15 07:08:00,
2013-02-15 02:09:00,35.3,31.0,29.99,SSW,198,9.0,10.0,84,0.00,,---,0.00,VWS V14.01,2013-02-15 07:09:00,
2013-02-15 02:10:00,35.3,31.0,29.99,SSW,192,12.0,12.0,84,0.00,,---,0.00,VWS V14.01,2013-02-15 07:10:00,
2013-02-15 02:11:00,35.3,31.0,29.99,SSW,199,11.0,13.0,84,0.00,,---,0.00,VWS V14.01,2013-02-15 07:11:00,
2013-02-15 02:12:00,35.3,31.0,29.99,SSW,198,8.0,13.0,84,0.00,,---,0.00,VWS V14.01,2013-02-15 07:12:00,
2013-02-15 02:13:00,35.4,31.4,29.99,SSW,198,10.0,13.0,85,0.00,,---,0.00,VWS V14.01,2013-02-15 07:13:00,
2013-02-15 02:14:00,35.3,31.0,29.99,SSW,199,9.0,13.0,84,0.00,,---,0.00,VWS V14.01,2013-02-15 07:14:00,
2013-02-15 02:15:00,35.3,31.0,29.99,SSW,196,9.0,13.0,84,0.00,,---,0.00,VWS V14.01,2013-02-15 07:15:00,
2013-02-15 02:16:00,35.3,31.0,29.99,SSW,194,12.0,14.0,84,0.00,,---,0.00,VWS V14.01,2013-02-15 07:16:00,
2013-02-15 02:17:00,35.3,31.0,29.99,SSW,201,12.0,14.0,84,0.00,,---,0.00,VWS V14.01,2013-02-15 07:17:00,
2013-02-15 02:18:00,35.3,31.0,29.99,SSW,198,10.0,14.0,84,0.00,,---,0.00,VWS V14.01,2013-02-15 07:18:00,
2013-02-15 02:19:00,35.3,31.2,29.99,SSW,196,10.0,14.0,85,0.00,,---,0.00,VWS V14.01,2013-02-15 07:19:00,
2013-02-15 02:20:00,35.3,31.2,29.99,SSW,200,12.0,15.0,85,0.00,,---,0.00,VWS V14.01,2013-02-15 07:20:00,
2013-02-15 02:21:00,35.3,31.2,29.99,SSW,199,11.0,15.0,85,0.00,,---,0.00,VWS V14.01,2013-02-15 07:21:00,
2013-02-15 02:22:00,35.3,31.0,29.99,SSW,202,11.0,15.0,84,0.00,,---,0.00,VWS V14.01,2013-02-15 07:22:00,
2013-02-15 02:23:00,35.3,31.2,29.99,SSW,205,11.0,15.0,85,0.00,,---,0.00,VWS V14.01,2013-02-15 07:23:00,
2013-02-15 02:24:00,35.3,31.2,29.99,SSW,199,9.0,15.0,85,0.00,,---,0.00,VWS V14.01,2013-02-15 07:24:00,
2013-02-15 02:25:00,35.3,31.2,29.99,SSW,203,10.0,15.0,85,0.00,,---,0.00,VWS V14.01,2013-02-15 07:25:00,
2013-02-15 02:26:00,35.3,31.2,29.99,SSW,198,11.0,15.0,85,0.00,,---,0.00,VWS V14.01,2013-02-15 07:26:00,
2013-02-15 02:27:00,35.2,31.1,29.99,SSW,202,9.0,15.0,85,0.00,,---,0.00,VWS V14.01,2013-02-15 07:27:00,
2013-02-15 02:28:00,35.2,31.1,29.99,SSW,197,10.0,15.0,85,0.00,,---,0.00,VWS V14.01,2013-02-15 07:28:00,
2013-02-15 02:29:00,35.3,31.2,29.99,SSW,198,9.0,15.0,85,0.00,,---,0.00,VWS V14.01,2013-02-15 07:29:00,
2013-02-15 02:30:00,35.2,31.1,29.99,SSW,194,12.0,15.0,85,0.00,,---,0.00,VWS V14.01,2013-02-15 07:30:00,
2013-02-15 02:31:00,35.2,31.1,29.99,SSW,198,8.0,12.0,85,0.00,,---,0.00,VWS V14.01,2013-02-15 07:31:00,
2013-02-15 02:32:00,35.2,31.1,29.99,SSW,198,11.0,12.0,85,0.00,,---,0.00,VWS V14.01,2013-02-15 07:32:00,
2013-02-15 02:33:00,35.2,31.1,29.99,SSW,192,10.0,12.0,85,0.00,,---,0.00,VWS V14.01,2013-02-15 07:33:00,
2013-02-15 02:34:00,35.1,31.0,29.99,SSW,194,11.0,13.0,85,0.00,,---,0.00,VWS V14.01,2013-02-15 07:34:00,
2013-02-15 02:35:00,35.1,31.0,29.99,SSW,202,10.0,14.0,85,0.00,,---,0.00,VWS V14.01,2013-02-15 07:35:00,
2013-02-15 02:36:00,35.1,31.0,29.99,SSW,199,11.0,14.0,85,0.00,,---,0.00,VWS V14.01,2013-02-15 07:36:00,
2013-02-15 02:37:00,35.1,31.0,29.99,SSW,194,10.0,14.0,85,0.00,,---,0.00,VWS V14.01,2013-02-15 07:37:00,
2013-02-15 02:38:00,35.1,31.0,29.99,South,190,14.0,14.0,85,0.00,,---,0.00,VWS V14.01,2013-02-15 07:38:00,
2013-02-15 02:39:00,35.1,31.0,29.99,South,189,15.0,15.0,85,0.00,,---,0.00,VWS V14.01,2013-02-15 07:39:00,
2013-02-15 02:40:00,35.0,31.0,29.99,SSW,202,12.0,15.0,85,0.00,,---,0.00,VWS V14.01,2013-02-15 07:40:00,
2013-02-15 02:41:00,35.0,31.0,29.99,SSW,192,14.0,15.0,85,0.00,,---,0.00,VWS V14.01,2013-02-15 07:41:00,
2013-02-15 02:42:00,35.0,31.0,29.99,SSW,195,13.0,16.0,85,0.00,,---,0.00,VWS V14.01,2013-02-15 07:42:00,
2013-02-15 02:43:00,35.0,31.2,29.99,SSW,197,13.0,16.0,86,0.00,,---,0.00,VWS V14.01,2013-02-15 07:43:00,
2013-02-15 02:44:00,35.0,31.2,29.99,South,191,13.0,16.0,86,0.00,,---,0.00,VWS V14.01,2013-02-15 07:44:00,
2013-02-15 02:45:00,35.0,31.2,29.99,SSW,192,14.0,16.0,86,0.00,,---,0.00,VWS V14.01,2013-02-15 07:45:00,
2013-02-15 02:46:00,34.9,31.1,29.99,SSW,196,11.0,16.0,86,0.00,,---,0.00,VWS V14.01,2013-02-15 07:46:00,
2013-02-15 02:47:00,34.9,31.1,29.99,South,188,15.0,16.0,86,0.00,,---,0.00,VWS V14.01,2013-02-15 07:47:00,
2013-02-15 02:48:00,35.0,31.2,29.99,SSW,197,12.0,16.0,86,0.00,,---,0.00,VWS V14.01,2013-02-15 07:48:00,
2013-02-15 02:49:00,35.0,31.2,29.99,SSW,196,12.0,16.0,86,0.00,,---,0.00,VWS V14.01,2013-02-15 07:49:00,
2013-02-15 02:50:00,35.0,31.2,29.99,SSW,200,11.0,16.0,86,0.00,,---,0.00,VWS V14.01,2013-02-15 07:50:00,
2013-02-15 02:51:00,35.0,31.2,29.99,SSW,200,12.0,16.0,86,0.00,,---,0.00,VWS V14.01,2013-02-15 07:51:00,
2013-02-15 02:52:00,35.0,31.2,29.99,SSW,200,9.0,16.0,86,0.00,,---,0.00,VWS V14.01,2013-02-15 07:52:00,
2013-02-15 02:53:00,35.0,31.2,29.99,SSW,199,11.0,16.0,86,0.00,,---,0.00,VWS V14.01,2013-02-15 07:53:00,
2013-02-15 02:54:00,35.0,31.2,29.99,SSW,196,13.0,16.0,86,0.00,,---,0.00,VWS V14.01,2013-02-15 07:54:00,
2013-02-15 02:55:00,35.0,31.2,29.99,South,188,11.0,16.0,86,0.00,,---,0.00,VWS V14.01,2013-02-15 07:55:00,
2013-02-15 02:56:00,34.9,31.1,29.99,SSW,199,11.0,16.0,86,0.00,,---,0.00,VWS V14.01,2013-02-15 07:56:00,
2013-02-15 02:57:00,34.9,31.1,29.99,SSW,200,9.0,16.0,86,0.00,,---,0.00,VWS V14.01,2013-02-15 07:57:00,
2013-02-15 02:58:00,34.9,31.1,29.99,SSW,195,11.0,16.0,86,0.00,,---,0.00,VWS V14.01,2013-02-15 07:58:00,
2013-02-15 02:59:00,34.8,31.0,29.99,SSW,196,12.0,16.0,86,0.00,,---,0.00,VWS V14.01,2013-02-15 07:59:00,
2013-02-15 03:00:00,34.8,31.0,29.99,SSW,196,9.0,16.0,86,0.00,,---,0.00,VWS V14.01,2013-02-15 08:00:00,
2013-02-15 03:01:00,34.9,31.1,29.99,SSW,196,10.0,11.0,86,0.00,,---,0.00,VWS V14.01,2013-02-15 08:01:00,
2013-02-15 03:02:00,34.9,31.1,29.99,South,190,12.0,14.0,86,0.00,,---,0.00,VWS V14.01,2013-02-15 08:02:00,
2013-02-15 03:03:00,34.8,31.0,29.99,SSW,197,9.0,14.0,86,0.00,,---,0.00,VWS V14.01,2013-02-15 08:03:00,
2013-02-15 03:04:00,34.8,31.0,29.99,SSW,194,11.0,14.0,86,0.00,,---,0.00,VWS V14.01,2013-02-15 08:04:00,
2013-02-15 03:05:00,34.8,31.3,29.99,SSW,196,10.0,14.0,87,0.00,,---,0.00,VWS V14.01,2013-02-15 08:05:00,
2013-02-15 03:06:00,34.8,31.3,29.99,South,191,11.0,14.0,87,0.00,,---,0.00,VWS V14.01,2013-02-15 08:06:00,
2013-02-15 03:07:00,34.8,31.3,29.99,SSW,192,11.0,14.0,87,0.00,,---,0.00,VWS V14.01,2013-02-15 08:07:00,
2013-02-15 03:08:00,34.7,31.2,29.99,South,184,11.0,14.0,87,0.00,,---,0.00,VWS V14.01,2013-02-15 08:08:00,
2013-02-15 03:09:00,34.7,31.2,29.99,SSW,192,10.0,14.0,87,0.00,,---,0.00,VWS V14.01,2013-02-15 08:09:00,
2013-02-15 03:10:00,34.7,31.2,29.99,South,187,11.0,14.0,87,0.00,,---,0.00,VWS V14.01,2013-02-15 08:10:00,
2013-02-15 03:11:00,34.7,31.2,29.99,South,180,10.0,14.0,87,0.00,,---,0.00,VWS V14.01,2013-02-15 08:11:00,
2013-02-15 03:12:00,34.6,31.1,29.99,South,186,11.0,14.0,87,0.00,,---,0.00,VWS V14.01,2013-02-15 08:12:00,
2013-02-15 03:13:00,34.6,31.1,29.99,SSW,194,10.0,14.0,87,0.00,,---,0.00,VWS V14.01,2013-02-15 08:13:00,
2013-02-15 03:14:00,34.6,30.9,29.99,South,188,11.0,14.0,86,0.00,,---,0.00,VWS V14.01,2013-02-15 08:14:00,
2013-02-15 03:15:00,34.6,31.1,29.99,South,190,11.0,14.0,87,0.00,,---,0.00,VWS V14.01,2013-02-15 08:15:00,
2013-02-15 03:16:00,34.5,31.0,29.99,South,188,10.0,14.0,87,0.00,,---,0.00,VWS V14.01,2013-02-15 08:16:00,
2013-02-15 03:17:00,34.5,31.0,29.99,South,179,11.0,14.0,87,0.00,,---,0.00,VWS V14.01,2013-02-15 08:17:00,
2013-02-15 03:18:00,34.4,30.9,29.99,South,186,12.0,14.0,87,0.00,,---,0.00,VWS V14.01,2013-02-15 08:18:00,
2013-02-15 03:19:00,34.4,30.9,29.99,South,188,12.0,14.0,87,0.00,,---,0.00,VWS V14.01,2013-02-15 08:19:00,
2013-02-15 03:20:00,34.3,30.8,29.99,SSW,194,10.0,14.0,87,0.00,,---,0.00,VWS V14.01,2013-02-15 08:20:00,
2013-02-15 03:21:00,34.3,30.8,29.99,South,189,11.0,14.0,87,0.00,,---,0.00,VWS V14.01,2013-02-15 08:21:00,
2013-02-15 03:22:00,34.3,30.8,29.99,South,188,12.0,14.0,87,0.00,,---,0.00,VWS V14.01,2013-02-15 08:22:00,
2013-02-15 03:23:00,34.3,30.8,29.99,South,189,11.0,14.0,87,0.00,,---,0.00,VWS V14.01,2013-02-15 08:23:00,
2013-02-15 03:24:00,34.3,30.8,29.99,South,187,10.0,14.0,87,0.00,,---,0.00,VWS V14.01,2013-02-15 08:24:00,
2013-02-15 03:25:00,34.3,30.8,29.99,South,191,12.0,14.0,87,0.00,,---,0.00,VWS V14.01,2013-02-15 08:25:00,
2013-02-15 03:26:00,34.3,30.8,29.99,SSW,194,9.0,14.0,87,0.00,,---,0.00,VWS V14.01,2013-02-15 08:26:00,
2013-02-15 03:27:00,34.4,30.9,29.99,SSW,192,12.0,14.0,87,0.00,,---,0.00,VWS V14.01,2013-02-15 08:27:00,
2013-02-15 03:28:00,34.4,30.9,29.99,South,190,9.0,14.0,87,0.00,,---,0.00,VWS V14.01,2013-02-15 08:28:00,
2013-02-15 03:29:00,34.4,30.9,29.99,South,188,10.0,14.0,87,0.00,,---,0.00,VWS V14.01,2013-02-15 08:29:00,
2013-02-15 03:30:00,34.3,30.8,29.99,SSW,200,7.0,14.0,87,0.00,,---,0.00,VWS V14.01,2013-02-15 08:30:00,
2013-02-15 03:31:00,34.4,30.9,29.99,SSW,192,10.0,12.0,87,0.00,,---,0.00,VWS V14.01,2013-02-15 08:31:00,
2013-02-15 03:32:00,34.3,30.8,29.99,South,190,11.0,12.0,87,0.00,,---,0.00,VWS V14.01,2013-02-15 08:32:00,
2013-02-15 03:33:00,34.3,30.8,29.99,SSW,195,11.0,12.0,87,0.00,,---,0.00,VWS V14.01,2013-02-15 08:33:00,
2013-02-15 03:34:00,34.3,30.8,29.99,South,187,8.0,12.0,87,0.00,,---,0.00,VWS V14.01,2013-02-15 08:34:00,
2013-02-15 03:35:00,34.3,30.8,29.99,South,190,10.0,12.0,87,0.00,,---,0.00,VWS V14.01,2013-02-15 08:35:00,
2013-02-15 03:36:00,34.3,30.8,29.99,South,189,11.0,12.0,87,0.00,,---,0.00,VWS V14.01,2013-02-15 08:36:00,
2013-02-15 03:37:00,34.3,30.8,29.99,South,186,11.0,12.0,87,0.00,,---,0.00,VWS V14.01,2013-02-15 08:37:00,
2013-02-15 03:38:00,34.2,30.7,29.99,South,183,8.0,12.0,87,0.00,,---,0.00,VWS V14.01,2013-02-15 08:38:00,
2013-02-15 03:39:00,34.2,30.7,29.99,South,182,7.0,12.0,87,0.00,,---,0.00,VWS V14.01,2013-02-15 08:39:00,
2013-02-15 03:40:00,34.2,30.7,29.99,South,186,10.0,12.0,87,0.00,,---,0.00,VWS V14.01,2013-02-15 08:40:00,
2013-02-15 03:41:00,34.2,30.7,29.99,South,181,10.0,12.0,87,0.00,,---,0.00,VWS V14.01,2013-02-15 08:41:00,
2013-02-15 03:42:00,34.1,30.6,29.99,South,191,10.0,12.0,87,0.00,,---,0.00,VWS V14.01,2013-02-15 08:42:00,
2013-02-15 03:43:00,34.2,30.7,29.99,SSW,194,8.0,12.0,87,0.00,,---,0.00,VWS V14.01,2013-02-15 08:43:00,
2013-02-15 03:44:00,34.2,30.7,29.99,SSW,196,8.0,12.0,87,0.00,,---,0.00,VWS V14.01,2013-02-15 08:44:00,
2013-02-15 03:45:00,34.2,30.7,29.99,South,184,9.0,12.0,87,0.00,,---,0.00,VWS V14.01,2013-02-15 08:45:00,
2013-02-15 03:46:00,34.2,30.7,29.99,South,191,9.0,12.0,87,0.00,,---,0.00,VWS V14.01,2013-02-15 08:46:00,
2013-02-15 03:47:00,34.2,30.7,29.99,SSW,194,8.0,12.0,87,0.00,,---,0.00,VWS V14.01,2013-02-15 08:47:00,
2013-02-15 03:48:00,34.2,30.7,29.99,SSW,196,8.0,12.0,87,0.00,,---,0.00,VWS V14.01,2013-02-15 08:48:00,
2013-02-15 03:49:00,34.2,30.7,29.99,SSW,196,9.0,12.0,87,0.00,,---,0.00,VWS V14.01,2013-02-15 08:49:00,
2013-02-15 03:50:00,34.2,30.7,29.99,SSW,195,8.0,12.0,87,0.00,,---,0.00,VWS V14.01,2013-02-15 08:50:00,
2013-02-15 03:51:00,34.2,30.7,29.99,SSW,197,8.0,12.0,87,0.00,,---,0.00,VWS V14.01,2013-02-15 08:51:00,
2013-02-15 03:52:00,34.2,30.7,29.99,SSW,198,7.0,12.0,87,0.00,,---,0.00,VWS V14.01,2013-02-15 08:52:00,
2013-02-15 03:53:00,34.2,30.7,29.99,SSW,198,7.0,12.0,87,0.00,,---,0.00,VWS V14.01,2013-02-15 08:53:00,
2013-02-15 03:54:00,34.2,30.7,29.99,SSW,206,7.0,12.0,87,0.00,,---,0.00,VWS V14.01,2013-02-15 08:54:00,
2013-02-15 03:55:00,34.3,30.8,30.00,SSW,202,7.0,12.0,87,0.00,,---,0.00,VWS V14.01,2013-02-15 08:55:00,
2013-02-15 03:56:00,34.3,30.8,30.00,SSW,201,7.0,12.0,87,0.00,,---,0.00,VWS V14.01,2013-02-15 08:56:00,
2013-02-15 03:57:00,34.3,30.8,30.00,SSW,193,8.0,12.0,87,0.00,,---,0.00,VWS V14.01,2013-02-15 08:57:00,
2013-02-15 03:58:00,34.3,30.8,30.00,SSW,197,8.0,12.0,87,0.00,,---,0.00,VWS V14.01,2013-02-15 08:58:00,
2013-02-15 03:59:00,34.3,30.8,30.00,SSW,192,7.0,12.0,87,0.00,,---,0.00,VWS V14.01,2013-02-15 08:59:00,
2013-02-15 04:00:00,34.3,30.8,30.00,SSW,198,7.0,12.0,87,0.00,,---,0.00,VWS V14.01,2013-02-15 09:00:00,
2013-02-15 04:01:00,34.2,30.7,30.00,SSW,193,7.0,8.0,87,0.00,,---,0.00,VWS V14.01,2013-02-15 09:01:00,
2013-02-15 04:02:00,34.2,30.7,30.00,South,180,8.0,9.0,87,0.00,,---,0.00,VWS V14.01,2013-02-15 09:02:00,
2013-02-15 04:03:00,34.2,30.7,30.00,SSW,192,9.0,10.0,87,0.00,,---,0.00,VWS V14.01,2013-02-15 09:03:00,
2013-02-15 04:04:00,34.1,30.6,30.00,South,184,7.0,10.0,87,0.00,,---,0.00,VWS V14.01,2013-02-15 09:04:00,
2013-02-15 04:05:00,34.1,30.6,30.00,SSW,192,8.0,10.0,87,0.00,,---,0.00,VWS V14.01,2013-02-15 09:05:00,
2013-02-15 04:06:00,34.1,30.6,30.00,South,188,8.0,10.0,87,0.00,,---,0.00,VWS V14.01,2013-02-15 09:06:00,
2013-02-15 04:07:00,34.1,30.6,30.00,SSW,198,7.0,10.0,87,0.00,,---,0.00,VWS V14.01,2013-02-15 09:07:00,
2013-02-15 04:08:00,34.0,30.5,30.00,SSW,194,9.0,10.0,87,0.00,,---,0.00,VWS V14.01,2013-02-15 09:08:00,
2013-02-15 04:09:00,34.0,30.5,30.00,SSW,196,8.0,10.0,87,0.00,,---,0.00,VWS V14.01,2013-02-15 09:09:00,
2013-02-15 04:10:00,34.0,30.5,30.00,SSW,194,9.0,10.0,87,0.00,,---,0.00,VWS V14.01,2013-02-15 09:10:00,
2013-02-15 04:11:00,34.0,30.5,29.99,SSW,197,6.0,11.0,87,0.00,,---,0.00,VWS V14.01,2013-02-15 09:11:00,
2013-02-15 04:12:00,34.0,30.5,29.99,South,189,9.0,11.0,87,0.00,,---,0.00,VWS V14.01,2013-02-15 09:12:00,
2013-02-15 04:13:00,34.0,30.5,29.99,South,191,9.0,11.0,87,0.00,,---,0.00,VWS V14.01,2013-02-15 09:13:00,
2013-02-15 04:14:00,34.0,30.5,29.99,South,191,9.0,11.0,87,0.00,,---,0.00,VWS V14.01,2013-02-15 09:14:00,
2013-02-15 04:15:00,34.0,30.5,29.99,SSW,192,7.0,11.0,87,0.00,,---,0.00,VWS V14.01,2013-02-15 09:15:00,
2013-02-15 04:16:00,34.0,30.8,30.00,SSW,192,8.0,11.0,88,0.00,,---,0.00,VWS V14.01,2013-02-15 09:16:00,
2013-02-15 04:17:00,34.0,30.8,30.00,South,190,8.0,11.0,88,0.00,,---,0.00,VWS V14.01,2013-02-15 09:17:00,
2013-02-15 04:18:00,34.0,30.8,30.00,SSW,195,8.0,11.0,88,0.00,,---,0.00,VWS V14.01,2013-02-15 09:18:00,
2013-02-15 04:19:00,34.0,30.8,29.99,SSW,194,8.0,11.0,88,0.00,,---,0.00,VWS V14.01,2013-02-15 09:19:00,
2013-02-15 04:20:00,34.0,30.8,29.99,South,188,7.0,11.0,88,0.00,,---,0.00,VWS V14.01,2013-02-15 09:20:00,
2013-02-15 04:21:00,34.0,30.8,29.99,South,181,7.0,11.0,88,0.00,,---,0.00,VWS V14.01,2013-02-15 09:21:00,
2013-02-15 04:22:00,34.0,30.8,29.99,South,189,8.0,11.0,88,0.00,,---,0.00,VWS V14.01,2013-02-15 09:22:00,
2013-02-15 04:23:00,33.9,30.7,29.99,South,184,8.0,11.0,88,0.00,,---,0.00,VWS V14.01,2013-02-15 09:23:00,
2013-02-15 04:24:00,33.9,30.7,29.99,South,188,8.0,11.0,88,0.00,,---,0.00,VWS V14.01,2013-02-15 09:24:00,
2013-02-15 04:25:00,33.9,30.7,29.99,South,184,8.0,11.0,88,0.00,,---,0.00,VWS V14.01,2013-02-15 09:25:00,
2013-02-15 04:26:00,33.9,30.7,29.99,South,186,8.0,11.0,88,0.00,,---,0.00,VWS V14.01,2013-02-15 09:26:00,
2013-02-15 04:27:00,33.9,30.7,29.99,South,182,7.0,11.0,88,0.00,,---,0.00,VWS V14.01,2013-02-15 09:27:00,
2013-02-15 04:28:00,33.9,30.7,29.99,South,184,7.0,11.0,88,0.00,,---,0.00,VWS V14.01,2013-02-15 09:28:00,
2013-02-15 04:29:00,33.9,30.7,29.99,South,182,7.0,11.0,88,0.00,,---,0.00,VWS V14.01,2013-02-15 09:29:00,
2013-02-15 04:30:00,34.0,30.8,29.99,South,184,6.0,11.0,88,0.00,,---,0.00,VWS V14.01,2013-02-15 09:30:00,
2013-02-15 04:31:00,34.0,30.8,29.99,South,190,5.0,7.0,88,0.00,,---,0.00,VWS V14.01,2013-02-15 09:31:00,
2013-02-15 04:32:00,34.0,30.8,29.99,South,183,6.0,7.0,88,0.00,,---,0.00,VWS V14.01,2013-02-15 09:32:00,
2013-02-15 04:33:00,34.1,30.9,29.99,South,190,5.0,7.0,88,0.00,,---,0.00,VWS V14.01,2013-02-15 09:33:00,
2013-02-15 04:34:00,34.1,30.9,29.99,SSW,195,6.0,8.0,88,0.00,,---,0.00,VWS V14.01,2013-02-15 09:34:00,
2013-02-15 04:35:00,34.1,30.9,29.99,SSW,197,7.0,8.0,88,0.00,,---,0.00,VWS V14.01,2013-02-15 09:35:00,
2013-02-15 04:36:00,34.2,31.0,29.99,South,190,9.0,9.0,88,0.00,,---,0.00,VWS V14.01,2013-02-15 09:36:00,
2013-02-15 04:37:00,34.3,30.8,29.99,SSW,193,6.0,9.0,87,0.00,,---,0.00,VWS V14.01,2013-02-15 09:37:00,
2013-02-15 04:38:00,34.3,31.1,29.99,SSW,200,8.0,9.0,88,0.00,,---,0.00,VWS V14.01,2013-02-15 09:38:00,
2013-02-15 04:39:00,34.4,31.2,29.99,South,184,11.0,11.0,88,0.00,,---,0.00,VWS V14.01,2013-02-15 09:39:00,
2013-02-15 04:40:00,34.4,31.2,29.99,South,184,9.0,11.0,88,0.00,,---,0.00,VWS V14.01,2013-02-15 09:40:00,
2013-02-15 04:41:00,34.5,31.3,29.98,South,189,10.0,11.0,88,0.00,,---,0.00,VWS V14.01,2013-02-15 09:41:00,
2013-02-15 04:42:00,34.5,31.3,29.99,SSW,196,7.0,11.0,88,0.00,,---,0.00,VWS V14.01,2013-02-15 09:42:00,
2013-02-15 04:43:00,34.6,31.4,29.99,SSW,192,7.0,11.0,88,0.00,,---,0.00,VWS V14.01,2013-02-15 09:43:00,
2013-02-15 04:44:00,34.6,31.4,29.99,SSW,198,7.0,11.0,88,0.00,,---,0.00,VWS V14.01,2013-02-15 09:44:00,
2013-02-15 04:45:00,34.6,31.4,29.98,SSW,199,7.0,11.0,88,0.00,,---,0.00,VWS V14.01,2013-02-15 09:45:00,
2013-02-15 04:46:00,34.7,31.5,29.98,SSW,195,7.0,11.0,88,0.00,,---,0.00,VWS V14.01,2013-02-15 09:46:00,
2013-02-15 04:47:00,34.7,31.5,29.98,SSW,198,6.0,11.0,88,0.00,,---,0.00,VWS V14.01,2013-02-15 09:47:00,
2013-02-15 04:48:00,34.7,31.5,29.98,SSW,196,7.0,11.0,88,0.00,,---,0.00,VWS V14.01,2013-02-15 09:48:00,
2013-02-15 04:49:00,34.7,31.5,29.98,SSW,197,7.0,11.0,88,0.00,,---,0.00,VWS V14.01,2013-02-15 09:49:00,
2013-02-15 04:50:00,34.7,31.5,29.98,SSW,197,7.0,11.0,88,0.00,,---,0.00,VWS V14.01,2013-02-15 09:50:00,
2013-02-15 04:51:00,34.7,31.5,29.98,SSW,200,6.0,11.0,88,0.00,,---,0.00,VWS V14.01,2013-02-15 09:51:00,
2013-02-15 04:52:00,34.8,31.6,29.98,SSW,200,7.0,11.0,88,0.00,,---,0.00,VWS V14.01,2013-02-15 09:52:00,
2013-02-15 04:53:00,34.8,31.6,29.98,SSW,201,7.0,11.0,88,0.00,,---,0.00,VWS V14.01,2013-02-15 09:53:00,
2013-02-15 04:54:00,34.8,31.6,29.98,SSW,202,7.0,11.0,88,0.00,,---,0.00,VWS V14.01,2013-02-15 09:54:00,
2013-02-15 04:55:00,34.8,31.6,29.98,SSW,199,7.0,11.0,88,0.00,,---,0.00,VWS V14.01,2013-02-15 09:55:00,
2013-02-15 04:56:00,34.8,31.6,29.98,SSW,200,7.0,11.0,88,0.00,,---,0.00,VWS V14.01,2013-02-15 09:56:00,
2013-02-15 04:57:00,34.8,31.6,29.98,SSW,202,6.0,11.0,88,0.00,,---,0.00,VWS V14.01,2013-02-15 09:57:00,
2013-02-15 04:58:00,34.9,31.7,29.98,SSW,196,7.0,11.0,88,0.00,,---,0.00,VWS V14.01,2013-02-15 09:58:00,
2013-02-15 04:59:00,34.8,31.6,29.98,SSW,193,6.0,11.0,88,0.00,,---,0.00,VWS V14.01,2013-02-15 09:59:00,
2013-02-15 05:00:00,34.9,31.7,29.98,SSW,199,6.0,11.0,88,0.00,,---,0.00,VWS V14.01,2013-02-15 10:00:00,
2013-02-15 05:01:00,34.9,31.7,29.98,SSW,201,7.0,7.0,88,0.00,,---,0.00,VWS V14.01,2013-02-15 10:01:00,
2013-02-15 05:02:00,34.9,31.7,29.99,SSW,206,6.0,7.0,88,0.00,,---,0.00,VWS V14.01,2013-02-15 10:02:00,
2013-02-15 05:03:00,34.9,31.7,29.99,SSW,208,6.0,7.0,88,0.00,,---,0.00,VWS V14.01,2013-02-15 10:03:00,
2013-02-15 05:04:00,34.9,31.7,29.99,SSW,213,5.0,7.0,88,0.00,,---,0.00,VWS V14.01,2013-02-15 10:04:00,
2013-02-15 05:05:00,35.0,31.8,29.99,SSW,211,6.0,7.0,88,0.00,,---,0.00,VWS V14.01,2013-02-15 10:05:00,
2013-02-15 05:06:00,34.9,31.7,29.99,SSW,205,5.0,7.0,88,0.00,,---,0.00,VWS V14.01,2013-02-15 10:06:00,
2013-02-15 05:07:00,34.9,31.7,29.98,SSW,207,5.0,7.0,88,0.00,,---,0.00,VWS V14.01,2013-02-15 10:07:00,
2013-02-15 05:08:00,34.9,31.7,29.98,SSW,207,6.0,7.0,88,0.00,,---,0.00,VWS V14.01,2013-02-15 10:08:00,
2013-02-15 05:09:00,34.9,31.7,29.99,SSW,212,6.0,7.0,88,0.00,,---,0.00,VWS V14.01,2013-02-15 10:09:00,
2013-02-15 05:10:00,34.9,31.7,29.99,SW,214,6.0,7.0,88,0.00,,---,0.00,VWS V14.01,2013-02-15 10:10:00,
2013-02-15 05:11:00,34.9,31.7,29.99,SSW,210,6.0,7.0,88,0.00,,---,0.00,VWS V14.01,2013-02-15 10:11:00,
2013-02-15 05:12:00,34.9,31.7,29.99,SSW,213,5.0,7.0,88,0.00,,---,0.00,VWS V14.01,2013-02-15 10:12:00,
2013-02-15 05:13:00,34.8,31.6,29.99,SW,215,4.0,7.0,88,0.00,,---,0.00,VWS V14.01,2013-02-15 10:13:00,
2013-02-15 05:14:00,34.8,31.6,29.99,SW,226,5.0,7.0,88,0.00,,---,0.00,VWS V14.01,2013-02-15 10:14:00,
2013-02-15 05:15:00,34.8,31.6,29.99,SW,227,5.0,7.0,88,0.00,,---,0.00,VWS V14.01,2013-02-15 10:15:00,
2013-02-15 05:16:00,34.7,31.5,29.99,SW,225,6.0,7.0,88,0.00,,---,0.00,VWS V14.01,2013-02-15 10:16:00,
2013-02-15 05:17:00,34.6,31.4,29.99,SW,223,6.0,7.0,88,0.00,,---,0.00,VWS V14.01,2013-02-15 10:17:00,
2013-02-15 05:18:00,34.6,31.4,29.99,SW,223,4.0,7.0,88,0.00,,---,0.00,VWS V14.01,2013-02-15 10:18:00,
2013-02-15 05:19:00,34.5,31.3,29.99,SW,217,6.0,7.0,88,0.00,,---,0.00,VWS V14.01,2013-02-15 10:19:00,
2013-02-15 05:20:00,34.5,31.3,29.99,SW,219,7.0,7.0,88,0.00,,---,0.00,VWS V14.01,2013-02-15 10:20:00,
2013-02-15 05:21:00,34.5,31.3,29.99,SSW,213,6.0,7.0,88,0.00,,---,0.00,VWS V14.01,2013-02-15 10:21:00,
2013-02-15 05:22:00,34.5,31.3,29.99,SW,217,7.0,8.0,88,0.00,,---,0.00,VWS V14.01,2013-02-15 10:22:00,
2013-02-15 05:23:00,34.4,31.2,29.99,SSW,207,7.0,8.0,88,0.00,,---,0.00,VWS V14.01,2013-02-15 10:23:00,
2013-02-15 05:24:00,34.4,31.2,29.99,SSW,209,6.0,8.0,88,0.00,,---,0.00,VWS V14.01,2013-02-15 10:24:00,
2013-02-15 05:25:00,34.4,31.2,29.99,SSW,201,6.0,8.0,88,0.00,,---,0.00,VWS V14.01,2013-02-15 10:25:00,
2013-02-15 05:26:00,34.4,31.2,29.99,SSW,197,8.0,8.0,88,0.00,,---,0.00,VWS V14.01,2013-02-15 10:26:00,
2013-02-15 05:27:00,34.4,31.2,29.99,SSW,213,7.0,8.0,88,0.00,,---,0.00,VWS V14.01,2013-02-15 10:27:00,
2013-02-15 05:28:00,34.4,31.2,29.99,SSW,205,6.0,8.0,88,0.00,,---,0.00,VWS V14.01,2013-02-15 10:28:00,
2013-02-15 05:29:00,34.5,31.3,29.99,SSW,207,7.0,8.0,88,0.00,,---,0.00,VWS V14.01,2013-02-15 10:29:00,
2013-02-15 05:30:00,34.5,31.3,29.99,SSW,207,6.0,8.0,88,0.00,,---,0.00,VWS V14.01,2013-02-15 10:30:00,
2013-02-15 05:31:00,34.5,31.3,29.99,SSW,209,5.0,6.0,88,0.00,,---,0.00,VWS V14.01,2013-02-15 10:31:00,
2013-02-15 05:32:00,34.5,31.3,29.99,SSW,211,4.0,6.0,88,0.00,,---,0.00,VWS V14.01,2013-02-15 10:32:00,
2013-02-15 05:33:00,34.5,31.3,29.99,SSW,211,5.0,6.0,88,0.00,,---,0.00,VWS V14.01,2013-02-15 10:33:00,
2013-02-15 05:34:00,34.5,31.3,29.99,SSW,211,4.0,6.0,88,0.00,,---,0.00,VWS V14.01,2013-02-15 10:34:00,
2013-02-15 05:35:00,34.4,31.2,29.99,SSW,211,3.0,6.0,88,0.00,,---,0.00,VWS V14.01,2013-02-15 10:35:00,
2013-02-15 05:36:00,34.4,31.2,29.99,SSW,212,4.0,6.0,88,0.00,,---,0.00,VWS V14.01,2013-02-15 10:36:00,
2013-02-15 05:37:00,34.4,31.2,30.00,SSW,212,4.0,6.0,88,0.00,,---,0.00,VWS V14.01,2013-02-15 10:37:00,
2013-02-15 05:38:00,34.4,31.2,30.00,SSW,212,4.0,6.0,88,0.00,,---,0.00,VWS V14.01,2013-02-15 10:38:00,
2013-02-15 05:39:00,34.5,31.3,30.00,SSW,207,3.0,6.0,88,0.00,,---,0.00,VWS V14.01,2013-02-15 10:39:00,
2013-02-15 05:40:00,34.5,31.3,29.99,SSW,208,3.0,6.0,88,0.00,,---,0.00,VWS V14.01,2013-02-15 10:40:00,
2013-02-15 05:41:00,34.5,31.3,30.00,SSW,209,3.0,6.0,88,0.00,,---,0.00,VWS V14.01,2013-02-15 10:41:00,
2013-02-15 05:42:00,34.6,31.4,30.00,SSW,210,4.0,6.0,88,0.00,,---,0.00,VWS V14.01,2013-02-15 10:42:00,
2013-02-15 05:43:00,34.6,31.4,30.00,SSW,211,3.0,6.0,88,0.00,,---,0.00,VWS V14.01,2013-02-15 10:43:00,
2013-02-15 05:44:00,34.6,31.4,30.00,SSW,211,3.0,6.0,88,0.00,,---,0.00,VWS V14.01,2013-02-15 10:44:00,
2013-02-15 05:45:00,34.7,31.5,30.00,SSW,207,4.0,6.0,88,0.00,,---,0.00,VWS V14.01,2013-02-15 10:45:00,
2013-02-15 05:46:00,34.7,31.5,30.00,SSW,206,5.0,6.0,88,0.00,,---,0.00,VWS V14.01,2013-02-15 10:46:00,
2013-02-15 05:47:00,34.7,31.5,30.00,SSW,203,4.0,6.0,88,0.00,,---,0.00,VWS V14.01,2013-02-15 10:47:00,
2013-02-15 05:48:00,34.7,31.5,30.00,SSW,200,4.0,6.0,88,0.00,,---,0.00,VWS V14.01,2013-02-15 10:48:00,
2013-02-15 05:49:00,34.7,31.5,30.00,SSW,194,6.0,7.0,88,0.00,,---,0.00,VWS V14.01,2013-02-15 10:49:00,
2013-02-15 05:50:00,34.8,31.6,30.00,SSW,198,6.0,7.0,88,0.00,,---,0.00,VWS V14.01,2013-02-15 10:50:00,
2013-02-15 05:51:00,34.8,31.6,30.00,SSW,196,6.0,7.0,88,0.00,,---,0.00,VWS V14.01,2013-02-15 10:51:00,
2013-02-15 05:52:00,34.8,31.6,30.00,SSW,196,5.0,7.0,88,0.00,,---,0.00,VWS V14.01,2013-02-15 10:52:00,
2013-02-15 05:53:00,34.8,31.6,30.00,SSW,198,5.0,7.0,88,0.00,,---,0.00,VWS V14.01,2013-02-15 10:53:00,
2013-02-15 05:54:00,34.8,31.6,30.00,SSW,196,4.0,7.0,88,0.00,,---,0.00,VWS V14.01,2013-02-15 10:54:00,
2013-02-15 05:55:00,34.8,31.6,30.00,SSW,193,5.0,7.0,88,0.00,,---,0.00,VWS V14.01,2013-02-15 10:55:00,
2013-02-15 05:56:00,34.8,31.6,30.00,South,190,5.0,7.0,88,0.00,,---,0.00,VWS V14.01,2013-02-15 10:56:00,
2013-02-15 05:57:00,34.8,31.6,30.00,South,186,5.0,7.0,88,0.00,,---,0.00,VWS V14.01,2013-02-15 10:57:00,
2013-02-15 05:58:00,34.8,31.6,30.00,South,186,5.0,7.0,88,0.00,,---,0.00,VWS V14.01,2013-02-15 10:58:00,
2013-02-15 05:59:00,34.8,31.6,30.00,South,180,2.0,7.0,88,0.00,,---,0.00,VWS V14.01,2013-02-15 10:59:00,
2013-02-15 06:00:00,34.8,31.6,30.00,South,181,4.0,7.0,88,0.00,,---,0.00,VWS V14.01,2013-02-15 11:00:00,
2013-02-15 06:01:00,34.8,31.6,30.00,South,181,3.0,4.0,88,0.00,,---,0.00,VWS V14.01,2013-02-15 11:01:00,
2013-02-15 06:02:00,34.7,31.5,30.00,South,182,4.0,5.0,88,0.00,,---,0.00,VWS V14.01,2013-02-15 11:02:00,
2013-02-15 06:03:00,34.7,31.5,30.00,South,182,5.0,5.0,88,0.00,,---,0.00,VWS V14.01,2013-02-15 11:03:00,
2013-02-15 06:04:00,34.7,31.5,30.00,South,180,5.0,5.0,88,0.00,,---,0.00,VWS V14.01,2013-02-15 11:04:00,
2013-02-15 06:05:00,34.7,31.5,30.00,South,182,4.0,6.0,88,0.00,,---,0.00,VWS V14.01,2013-02-15 11:05:00,
2013-02-15 06:06:00,34.7,31.5,30.00,South,182,4.0,6.0,88,0.00,,---,0.00,VWS V14.01,2013-02-15 11:06:00,
2013-02-15 06:07:00,34.8,31.6,30.00,South,181,3.0,6.0,88,0.00,,---,0.00,VWS V14.01,2013-02-15 11:07:00,
2013-02-15 06:08:00,34.8,31.6,30.00,South,174,2.0,6.0,88,0.00,,---,0.00,VWS V14.01,2013-02-15 11:08:00,
2013-02-15 06:09:00,34.8,31.6,30.00,South,174,5.0,6.0,88,0.00,,---,0.00,VWS V14.01,2013-02-15 11:09:00,
2013-02-15 06:10:00,34.8,31.6,30.00,South,181,4.0,7.0,88,0.00,,---,0.00,VWS V14.01,2013-02-15 11:10:00,
2013-02-15 06:11:00,34.9,31.7,30.00,South,186,7.0,7.0,88,0.00,,---,0.00,VWS V14.01,2013-02-15 11:11:00,
2013-02-15 06:12:00,34.9,31.7,30.00,SSW,196,7.0,10.0,88,0.00,,---,0.00,VWS V14.01,2013-02-15 11:12:00,
2013-02-15 06:13:00,35.0,31.8,30.00,SSW,198,6.0,10.0,88,0.00,,---,0.00,VWS V14.01,2013-02-15 11:13:00,
2013-02-15 06:14:00,35.0,31.8,30.00,South,186,9.0,10.0,88,0.00,,---,0.00,VWS V14.01,2013-02-15 11:14:00,
2013-02-15 06:15:00,35.1,31.9,30.00,South,185,8.0,10.0,88,0.00,,---,0.00,VWS V14.01,2013-02-15 11:15:00,
2013-02-15 06:16:00,35.1,31.9,30.00,South,188,7.0,10.0,88,0.00,,---,0.00,VWS V14.01,2013-02-15 11:16:00,
2013-02-15 06:17:00,35.2,32.0,30.00,South,184,7.0,10.0,88,0.00,,---,0.00,VWS V14.01,2013-02-15 11:17:00,
2013-02-15 06:18:00,35.2,32.0,30.00,South,187,9.0,10.0,88,0.00,,---,0.00,VWS V14.01,2013-02-15 11:18:00,
2013-02-15 06:19:00,35.2,32.0,30.00,South,181,11.0,11.0,88,0.00,,---,0.00,VWS V14.01,2013-02-15 11:19:00,
2013-02-15 06:20:00,35.2,32.0,30.00,South,186,10.0,11.0,88,0.00,,---,0.00,VWS V14.01,2013-02-15 11:20:00,
2013-02-15 06:21:00,35.2,32.0,30.00,South,182,10.0,11.0,88,0.00,,---,0.00,VWS V14.01,2013-02-15 11:21:00,
2013-02-15 06:22:00,35.2,32.0,30.00,South,187,7.0,11.0,88,0.00,,---,0.00,VWS V14.01,2013-02-15 11:22:00,
2013-02-15 06:23:00,35.2,32.0,30.00,South,178,7.0,11.0,88,0.00,,---,0.00,VWS V14.01,2013-02-15 11:23:00,
2013-02-15 06:24:00,35.3,32.1,29.99,South,173,8.0,11.0,88,0.00,,---,0.00,VWS V14.01,2013-02-15 11:24:00,
2013-02-15 06:25:00,35.3,32.1,29.99,South,182,8.0,11.0,88,0.00,,---,0.00,VWS V14.01,2013-02-15 11:25:00,
2013-02-15 06:26:00,35.3,32.1,29.99,South,183,8.0,11.0,88,0.00,,---,0.00,VWS V14.01,2013-02-15 11:26:00,
2013-02-15 06:27:00,35.3,32.1,29.99,South,190,9.0,11.0,88,0.00,,---,0.00,VWS V14.01,2013-02-15 11:27:00,
2013-02-15 06:28:00,35.4,32.2,29.99,South,184,10.0,11.0,88,0.00,,---,0.00,VWS V14.01,2013-02-15 11:28:00,
2013-02-15 06:29:00,35.4,32.2,29.99,South,183,7.0,11.0,88,0.00,,---,0.00,VWS V14.01,2013-02-15 11:29:00,
2013-02-15 06:30:00,35.5,32.3,29.99,South,186,9.0,11.0,88,0.00,,---,0.00,VWS V14.01,2013-02-15 11:30:00,
2013-02-15 06:31:00,35.5,32.3,29.99,South,190,8.0,10.0,88,0.00,,---,0.00,VWS V14.01,2013-02-15 11:31:00,
2013-02-15 06:32:00,35.6,32.4,30.00,South,188,9.0,12.0,88,0.00,,---,0.00,VWS V14.01,2013-02-15 11:32:00,
2013-02-15 06:33:00,35.6,32.4,29.99,South,191,7.0,12.0,88,0.00,,---,0.00,VWS V14.01,2013-02-15 11:33:00,
2013-02-15 06:34:00,35.7,32.5,29.99,SSW,196,7.0,12.0,88,0.00,,---,0.00,VWS V14.01,2013-02-15 11:34:00,
2013-02-15 06:35:00,35.7,32.5,29.99,South,190,9.0,12.0,88,0.00,,---,0.00,VWS V14.01,2013-02-15 11:35:00,
2013-02-15 06:36:00,35.7,32.5,30.00,South,190,8.0,12.0,88,0.00,,---,0.00,VWS V14.01,2013-02-15 11:36:00,
2013-02-15 06:37:00,35.8,32.6,29.99,SSW,196,9.0,12.0,88,0.00,,---,0.00,VWS V14.01,2013-02-15 11:37:00,
2013-02-15 06:38:00,35.8,32.6,29.99,South,188,8.0,12.0,88,0.00,,---,0.00,VWS V14.01,2013-02-15 11:38:00,
2013-02-15 06:39:00,35.8,32.6,29.99,South,186,11.0,12.0,88,0.00,,---,0.00,VWS V14.01,2013-02-15 11:39:00,
2013-02-15 06:40:00,35.9,32.7,29.99,SSW,192,9.0,12.0,88,0.00,,---,0.00,VWS V14.01,2013-02-15 11:40:00,
2013-02-15 06:41:00,35.9,32.7,29.99,South,182,6.0,12.0,88,0.00,,---,0.00,VWS V14.01,2013-02-15 11:41:00,
2013-02-15 06:42:00,36.0,32.8,29.99,South,190,8.0,12.0,88,0.00,,---,0.00,VWS V14.01,2013-02-15 11:42:00,
2013-02-15 06:43:00,36.0,32.8,29.99,South,185,8.0,12.0,88,0.00,,---,0.00,VWS V14.01,2013-02-15 11:43:00,
2013-02-15 06:44:00,36.0,32.8,30.00,South,190,9.0,12.0,88,0.00,,---,0.00,VWS V14.01,2013-02-15 11:44:00,
2013-02-15 06:45:00,36.0,32.8,30.00,SSW,192,9.0,14.0,88,0.00,,---,0.00,VWS V14.01,2013-02-15 11:45:00,
2013-02-15 06:46:00,36.0,32.8,30.00,SSW,194,12.0,14.0,88,0.00,,---,0.00,VWS V14.01,2013-02-15 11:46:00,
2013-02-15 06:47:00,36.0,32.8,30.00,SSW,194,12.0,14.0,88,0.00,,---,0.00,VWS V14.01,2013-02-15 11:47:00,
2013-02-15 06:48:00,36.1,32.9,30.00,South,191,11.0,14.0,88,0.00,,---,0.00,VWS V14.01,2013-02-15 11:48:00,
2013-02-15 06:49:00,36.1,32.9,30.00,SSW,194,10.0,14.0,88,0.00,,---,0.00,VWS V14.01,2013-02-15 11:49:00,
2013-02-15 06:50:00,36.1,32.9,30.00,SSW,211,9.0,14.0,88,0.00,,---,0.00,VWS V14.01,2013-02-15 11:50:00,
2013-02-15 06:51:00,36.1,32.9,30.00,SSW,207,9.0,14.0,88,0.00,,---,0.00,VWS V14.01,2013-02-15 11:51:00,
2013-02-15 06:52:00,36.2,33.0,30.00,SSW,203,9.0,14.0,88,0.00,,---,0.00,VWS V14.01,2013-02-15 11:52:00,
2013-02-15 06:53:00,36.2,33.0,29.99,SSW,209,9.0,14.0,88,0.00,,---,0.00,VWS V14.01,2013-02-15 11:53:00,
2013-02-15 06:54:00,36.2,33.0,29.99,SSW,206,8.0,14.0,88,0.00,,---,0.00,VWS V14.01,2013-02-15 11:54:00,
2013-02-15 06:55:00,36.2,33.0,30.00,SSW,206,11.0,14.0,88,0.00,,---,0.00,VWS V14.01,2013-02-15 11:55:00,
2013-02-15 06:56:00,36.2,33.0,29.99,SSW,207,8.0,14.0,88,0.00,,---,0.00,VWS V14.01,2013-02-15 11:56:00,
2013-02-15 06:57:00,36.2,33.0,29.99,SSW,203,7.0,14.0,88,0.00,,---,0.00,VWS V14.01,2013-02-15 11:57:00,
2013-02-15 06:58:00,36.2,33.0,29.99,SSW,206,9.0,14.0,88,0.00,,---,0.00,VWS V14.01,2013-02-15 11:58:00,
2013-02-15 06:59:00,36.2,33.0,29.99,SSW,207,8.0,14.0,88,0.00,,---,0.00,VWS V14.01,2013-02-15 11:59:00,
2013-02-15 07:00:00,36.2,33.0,29.99,SSW,206,11.0,14.0,88,0.00,,---,0.00,VWS V14.01,2013-02-15 12:00:00,
2013-02-15 07:01:00,36.2,33.0,29.99,SSW,205,7.0,11.0,88,0.00,,---,0.00,VWS V14.01,2013-02-15 12:01:00,
2013-02-15 07:02:00,36.2,33.0,29.99,SSW,205,7.0,11.0,88,0.00,,---,0.00,VWS V14.01,2013-02-15 12:02:00,
2013-02-15 07:03:00,36.2,33.0,29.99,SSW,211,7.0,11.0,88,0.00,,---,0.00,VWS V14.01,2013-02-15 12:03:00,
2013-02-15 07:04:00,36.3,33.1,29.99,SSW,208,7.0,11.0,88,0.00,,---,0.00,VWS V14.01,2013-02-15 12:04:00,
2013-02-15 07:05:00,36.3,33.1,29.99,SSW,209,7.0,11.0,88,0.00,,---,0.00,VWS V14.01,2013-02-15 12:05:00,
2013-02-15 07:06:00,36.3,33.1,29.99,SSW,209,7.0,11.0,88,0.00,,---,0.00,VWS V14.01,2013-02-15 12:06:00,
2013-02-15 07:07:00,36.3,33.1,29.99,SSW,205,7.0,11.0,88,0.00,,---,0.00,VWS V14.01,2013-02-15 12:07:00,
2013-02-15 07:08:00,36.3,33.1,30.00,SSW,202,9.0,11.0,88,0.00,,---,0.00,VWS V14.01,2013-02-15 12:08:00,
2013-02-15 07:09:00,36.3,33.1,29.99,SSW,209,9.0,11.0,88,0.00,,---,0.00,VWS V14.01,2013-02-15 12:09:00,
2013-02-15 07:10:00,36.3,33.1,29.99,SSW,205,10.0,11.0,88,0.00,,---,0.00,VWS V14.01,2013-02-15 12:10:00,
2013-02-15 07:11:00,36.3,33.1,29.99,SSW,208,8.0,11.0,88,0.00,,---,0.00,VWS V14.01,2013-02-15 12:11:00,
2013-02-15 07:12:00,36.4,33.2,29.99,SSW,207,7.0,11.0,88,0.00,,---,0.00,VWS V14.01,2013-02-15 12:12:00,
2013-02-15 07:13:00,36.4,32.9,30.00,SSW,207,7.0,11.0,87,0.00,,---,0.00,VWS V14.01,2013-02-15 12:13:00,
2013-02-15 07:14:00,36.4,33.2,29.99,SSW,203,8.0,11.0,88,0.00,,---,0.00,VWS V14.01,2013-02-15 12:14:00,
2013-02-15 07:15:00,36.4,33.2,30.00,SSW,206,7.0,11.0,88,0.00,,---,0.00,VWS V14.01,2013-02-15 12:15:00,
2013-02-15 07:16:00,36.4,32.9,29.99,SSW,206,7.0,11.0,87,0.00,,---,0.00,VWS V14.01,2013-02-15 12:16:00,
2013-02-15 07:17:00,36.4,32.9,29.99,SSW,200,7.0,11.0,87,0.00,,---,0.00,VWS V14.01,2013-02-15 12:17:00,
2013-02-15 07:18:00,36.4,32.9,29.99,SSW,202,7.0,11.0,87,0.00,,---,0.00,VWS V14.01,2013-02-15 12:18:00,
2013-02-15 07:19:00,36.4,32.9,29.99,SSW,203,7.0,11.0,87,0.00,,---,0.00,VWS V14.01,2013-02-15 12:19:00,
2013-02-15 07:20:00,36.4,32.9,29.99,SSW,202,7.0,11.0,87,0.00,,---,0.00,VWS V14.01,2013-02-15 12:20:00,
2013-02-15 07:21:00,36.4,33.2,30.00,SSW,201,8.0,11.0,88,0.00,,---,0.00,VWS V14.01,2013-02-15 12:21:00,
2013-02-15 07:22:00,36.5,33.3,30.00,SSW,200,9.0,11.0,88,0.00,,---,0.00,VWS V14.01,2013-02-15 12:22:00,
2013-02-15 07:23:00,36.5,33.3,30.00,SSW,202,7.0,11.0,88,0.00,,---,0.00,VWS V14.01,2013-02-15 12:23:00,
2013-02-15 07:24:00,36.5,33.3,29.99,SSW,203,7.0,11.0,88,0.00,,---,0.00,VWS V14.01,2013-02-15 12:24:00,
2013-02-15 07:25:00,36.5,33.3,29.99,SSW,204,9.0,11.0,88,0.00,,---,0.00,VWS V14.01,2013-02-15 12:25:00,
2013-02-15 07:26:00,36.5,33.3,29.99,SSW,206,9.0,11.0,88,0.00,,---,0.00,VWS V14.01,2013-02-15 12:26:00,
2013-02-15 07:27:00,36.5,33.3,29.99,SSW,205,8.0,11.0,88,0.00,,---,0.00,VWS V14.01,2013-02-15 12:27:00,
2013-02-15 07:28:00,36.5,33.3,29.99,SSW,202,7.0,11.0,88,0.00,,---,0.00,VWS V14.01,2013-02-15 12:28:00,
2013-02-15 07:29:00,36.5,33.3,29.99,SSW,202,8.0,11.0,88,0.00,,---,0.00,VWS V14.01,2013-02-15 12:29:00,
2013-02-15 07:30:00,36.5,33.3,29.99,SSW,201,7.0,11.0,88,0.00,,---,0.00,VWS V14.01,2013-02-15 12:30:00,
2013-02-15 07:31:00,36.5,33.3,29.99,SSW,202,9.0,11.0,88,0.00,,---,0.00,VWS V14.01,2013-02-15 12:31:00,
2013-02-15 07:32:00,36.5,33.3,30.00,SSW,205,7.0,12.0,88,0.00,,---,0.00,VWS V14.01,2013-02-15 12:32:00,
2013-02-15 07:33:00,36.6,33.4,30.00,SSW,203,10.0,12.0,88,0.00,,---,0.00,VWS V14.01,2013-02-15 12:33:00,
2013-02-15 07:34:00,36.6,33.4,30.00,SSW,202,10.0,12.0,88,0.00,,---,0.00,VWS V14.01,2013-02-15 12:34:00,
2013-02-15 07:35:00,36.6,33.4,30.00,SSW,202,9.0,12.0,88,0.00,,---,0.00,VWS V14.01,2013-02-15 12:35:00,
2013-02-15 07:36:00,36.6,33.1,30.00,SSW,204,12.0,12.0,87,0.00,,---,0.00,VWS V14.01,2013-02-15 12:36:00,
2013-02-15 07:37:00,36.7,33.2,30.00,SSW,203,10.0,12.0,87,0.00,,---,0.00,VWS V14.01,2013-02-15 12:37:00,
2013-02-15 07:38:00,36.7,33.2,30.00,SSW,202,9.0,12.0,87,0.00,,---,0.00,VWS V14.01,2013-02-15 12:38:00,
2013-02-15 07:39:00,36.7,33.2,30.00,SSW,202,13.0,13.0,87,0.00,,---,0.00,VWS V14.01,2013-02-15 12:39:00,
2013-02-15 07:40:00,36.7,33.2,30.00,SSW,202,13.0,14.0,87,0.00,,---,0.00,VWS V14.01,2013-02-15 12:40:00,
2013-02-15 07:41:00,36.8,33.3,30.00,SSW,202,10.0,14.0,87,0.00,,---,0.00,VWS V14.01,2013-02-15 12:41:00,
2013-02-15 07:42:00,36.8,33.3,30.00,SSW,204,10.0,14.0,87,0.00,,---,0.00,VWS V14.01,2013-02-15 12:42:00,
2013-02-15 07:43:00,36.8,33.3,30.00,SSW,204,12.0,14.0,87,0.00,,---,0.00,VWS V14.01,2013-02-15 12:43:00,
2013-02-15 07:44:00,36.8,33.3,30.00,SSW,205,10.0,14.0,87,0.00,,---,0.00,VWS V14.01,2013-02-15 12:44:00,
2013-02-15 07:45:00,36.9,33.4,30.00,SSW,202,9.0,14.0,87,0.00,,---,0.00,VWS V14.01,2013-02-15 12:45:00,
2013-02-15 07:46:00,36.9,33.4,30.00,SSW,206,11.0,14.0,87,0.00,,---,0.00,VWS V14.01,2013-02-15 12:46:00,
2013-02-15 07:47:00,36.9,33.4,30.00,SSW,199,9.0,14.0,87,0.00,,---,0.00,VWS V14.01,2013-02-15 12:47:00,
2013-02-15 07:48:00,37.0,33.5,30.00,SSW,202,13.0,14.0,87,0.00,,---,0.00,VWS V14.01,2013-02-15 12:48:00,
2013-02-15 07:49:00,37.0,33.5,30.00,SSW,205,8.0,14.0,87,0.00,,---,0.00,VWS V14.01,2013-02-15 12:49:00,
2013-02-15 07:50:00,37.0,33.5,30.00,SSW,203,9.0,14.0,87,0.00,,---,0.00,VWS V14.01,2013-02-15 12:50:00,
2013-02-15 07:51:00,37.1,33.6,30.00,SSW,204,7.0,14.0,87,0.00,,---,0.00,VWS V14.01,2013-02-15 12:51:00,
2013-02-15 07:52:00,37.1,33.6,30.00,SSW,205,8.0,14.0,87,0.00,,---,0.00,VWS V14.01,2013-02-15 12:52:00,
2013-02-15 07:53:00,37.2,33.7,30.00,SSW,202,11.0,14.0,87,0.00,,---,0.00,VWS V14.01,2013-02-15 12:53:00,
2013-02-15 07:54:00,37.2,33.7,30.00,SSW,204,9.0,14.0,87,0.00,,---,0.00,VWS V14.01,2013-02-15 12:54:00,
2013-02-15 07:55:00,37.2,33.7,30.00,SSW,206,11.0,14.0,87,0.00,,---,0.00,VWS V14.01,2013-02-15 12:55:00,
2013-02-15 07:56:00,37.2,33.7,30.00,SSW,202,10.0,14.0,87,0.00,,---,0.00,VWS V14.01,2013-02-15 12:56:00,
2013-02-15 07:57:00,37.2,33.7,30.00,SSW,202,11.0,14.0,87,0.00,,---,0.00,VWS V14.01,2013-02-15 12:57:00,
2013-02-15 07:58:00,37.3,33.8,30.00,SSW,202,12.0,14.0,87,0.00,,---,0.00,VWS V14.01,2013-02-15 12:58:00,
2013-02-15 07:59:00,37.3,33.8,30.00,SSW,194,9.0,14.0,87,0.00,,---,0.00,VWS V14.01,2013-02-15 12:59:00,
2013-02-15 08:00:00,37.3,33.8,30.00,SSW,202,10.0,14.0,87,0.00,,---,0.00,VWS V14.01,2013-02-15 13:00:00,
2013-02-15 08:01:00,37.4,33.9,30.00,SSW,202,10.0,10.0,87,0.00,,---,0.00,VWS V14.01,2013-02-15 13:01:00,
2013-02-15 08:02:00,37.4,33.9,30.00,SSW,202,8.0,11.0,87,0.00,,---,0.00,VWS V14.01,2013-02-15 13:02:00,
2013-02-15 08:03:00,37.4,33.9,30.00,SSW,203,8.0,12.0,87,0.00,,---,0.00,VWS V14.01,2013-02-15 13:03:00,
2013-02-15 08:04:00,37.5,34.0,30.00,SSW,206,8.0,12.0,87,0.00,,---,0.00,VWS V14.01,2013-02-15 13:04:00,
2013-02-15 08:05:00,37.5,34.0,30.00,SSW,202,8.0,12.0,87,0.00,,---,0.00,VWS V14.01,2013-02-15 13:05:00,
2013-02-15 08:06:00,37.5,34.0,30.00,SSW,204,8.0,12.0,87,0.00,,---,0.00,VWS V14.01,2013-02-15 13:06:00,
2013-02-15 08:07:00,37.6,34.1,30.00,SSW,205,9.0,12.0,87,0.00,,---,0.00,VWS V14.01,2013-02-15 13:07:00,
2013-02-15 08:08:00,37.6,33.8,30.00,SSW,205,8.0,12.0,86,0.00,,---,0.00,VWS V14.01,2013-02-15 13:08:00,
2013-02-15 08:09:00,37.7,33.9,30.00,SSW,201,9.0,12.0,86,0.00,,---,0.00,VWS V14.01,2013-02-15 13:09:00,
2013-02-15 08:10:00,37.7,33.9,30.00,SSW,204,8.0,12.0,86,0.00,,---,0.00,VWS V14.01,2013-02-15 13:10:00,
2013-02-15 08:11:00,37.7,33.9,30.00,SSW,203,7.0,12.0,86,0.00,,---,0.00,VWS V14.01,2013-02-15 13:11:00,
2013-02-15 08:12:00,37.8,34.0,30.00,SSW,202,10.0,12.0,86,0.00,,---,0.00,VWS V14.01,2013-02-15 13:12:00,
2013-02-15 08:13:00,37.8,34.0,30.00,SSW,204,9.0,12.0,86,0.00,,---,0.00,VWS V14.01,2013-02-15 13:13:00,
2013-02-15 08:14:00,37.9,34.1,30.00,SSW,202,8.0,12.0,86,0.00,,---,0.00,VWS V14.01,2013-02-15 13:14:00,
2013-02-15 08:15:00,37.9,34.1,30.00,SSW,202,9.0,12.0,86,0.00,,---,0.00,VWS V14.01,2013-02-15 13:15:00,
2013-02-15 08:16:00,37.9,34.1,30.00,SSW,202,9.0,12.0,86,0.00,,---,0.00,VWS V14.01,2013-02-15 13:16:00,
2013-02-15 08:17:00,38.0,34.2,30.00,SSW,201,8.0,12.0,86,0.00,,---,0.00,VWS V14.01,2013-02-15 13:17:00,
2013-02-15 08:18:00,38.0,34.2,30.00,SSW,201,8.0,12.0,86,0.00,,---,0.00,VWS V14.01,2013-02-15 13:18:00,
2013-02-15 08:19:00,38.1,34.3,30.00,SSW,198,7.0,12.0,86,0.00,,---,0.00,VWS V14.01,2013-02-15 13:19:00,
2013-02-15 08:20:00,38.1,34.3,30.00,SSW,202,8.0,12.0,86,0.00,,---,0.00,VWS V14.01,2013-02-15 13:20:00,
2013-02-15 08:21:00,38.2,34.4,30.00,SSW,201,8.0,12.0,86,0.00,,---,0.00,VWS V14.01,2013-02-15 13:21:00,
2013-02-15 08:22:00,38.2,34.4,30.00,SSW,199,7.0,12.0,86,0.00,,---,0.00,VWS V14.01,2013-02-15 13:22:00,
2013-02-15 08:23:00,38.3,34.2,30.00,SSW,198,7.0,12.0,85,0.00,,---,0.00,VWS V14.01,2013-02-15 13:23:00,
2013-02-15 08:24:00,38.3,34.2,30.00,SSW,199,9.0,12.0,85,0.00,,---,0.00,VWS V14.01,2013-02-15 13:24:00,
2013-02-15 08:25:00,38.4,34.3,30.00,SSW,198,6.0,12.0,85,0.00,,---,0.00,VWS V14.01,2013-02-15 13:25:00,
2013-02-15 08:26:00,38.5,34.4,30.00,SSW,198,7.0,12.0,85,0.00,,---,0.00,VWS V14.01,2013-02-15 13:26:00,
2013-02-15 08:27:00,38.6,34.5,30.00,SSW,198,7.0,12.0,85,0.00,,---,0.00,VWS V14.01,2013-02-15 13:27:00,
2013-02-15 08:28:00,38.6,34.5,30.00,SSW,197,7.0,12.0,85,0.00,,---,0.00,VWS V14.01,2013-02-15 13:28:00,
2013-02-15 08:29:00,38.7,34.3,30.00,SSW,197,7.0,12.0,84,0.00,,---,0.00,VWS V14.01,2013-02-15 13:29:00,
2013-02-15 08:30:00,38.7,34.3,30.00,SSW,196,7.0,12.0,84,0.00,,---,0.00,VWS V14.01,2013-02-15 13:30:00,
2013-02-15 08:31:00,38.8,34.4,30.00,South,188,7.0,7.0,84,0.00,,---,0.00,VWS V14.01,2013-02-15 13:31:00,
2013-02-15 08:32:00,38.9,34.5,30.00,South,191,5.0,9.0,84,0.00,,---,0.00,VWS V14.01,2013-02-15 13:32:00,
2013-02-15 08:33:00,39.0,34.6,30.00,SSW,194,7.0,9.0,84,0.00,,---,0.00,VWS V14.01,2013-02-15 13:33:00,
2013-02-15 08:34:00,39.1,34.7,30.00,SSW,194,6.0,9.0,84,0.00,,---,0.00,VWS V14.01,2013-02-15 13:34:00,
2013-02-15 08:35:00,39.1,34.7,30.00,SSW,198,7.0,9.0,84,0.00,,---,0.00,VWS V14.01,2013-02-15 13:35:00,
2013-02-15 08:36:00,39.2,34.5,30.00,SSW,196,7.0,10.0,83,0.00,,---,0.00,VWS V14.01,2013-02-15 13:36:00,
2013-02-15 08:37:00,39.3,34.6,30.00,SSW,197,9.0,10.0,83,0.00,,---,0.00,VWS V14.01,2013-02-15 13:37:00,
2013-02-15 08:38:00,39.4,34.7,30.00,SSW,199,7.0,10.0,83,0.00,,---,0.00,VWS V14.01,2013-02-15 13:38:00,
2013-02-15 08:39:00,39.5,34.5,30.00,SSW,206,9.0,10.0,82,0.00,,---,0.00,VWS V14.01,2013-02-15 13:39:00,
2013-02-15 08:40:00,39.6,34.6,29.99,SSW,211,8.0,11.0,82,0.00,,---,0.00,VWS V14.01,2013-02-15 13:40:00,
2013-02-15 08:41:00,39.8,34.5,29.99,SSW,205,7.0,11.0,81,0.00,,---,0.00,VWS V14.01,2013-02-15 13:41:00,
2013-02-15 08:42:00,39.9,34.5,29.99,SSW,209,11.0,11.0,81,0.00,,---,0.00,VWS V14.01,2013-02-15 13:42:00,
2013-02-15 08:43:00,40.0,34.7,30.00,SSW,212,11.0,12.0,81,0.00,,---,0.00,VWS V14.01,2013-02-15 13:43:00,
2013-02-15 08:44:00,40.1,34.4,30.00,SSW,211,9.0,12.0,80,0.00,,---,0.00,VWS V14.01,2013-02-15 13:44:00,
2013-02-15 08:45:00,40.2,34.5,29.99,SSW,212,8.0,12.0,80,0.00,,---,0.00,VWS V14.01,2013-02-15 13:45:00,
2013-02-15 08:46:00,40.3,34.6,29.99,SSW,212,8.0,12.0,80,0.00,,---,0.00,VWS V14.01,2013-02-15 13:46:00,
2013-02-15 08:47:00,40.4,34.7,29.99,SSW,211,8.0,12.0,80,0.00,,---,0.00,VWS V14.01,2013-02-15 13:47:00,
2013-02-15 08:48:00,40.5,34.8,29.99,SSW,211,8.0,12.0,80,0.00,,---,0.00,VWS V14.01,2013-02-15 13:48:00,
2013-02-15 08:49:00,40.5,34.5,29.99,SW,216,8.0,12.0,79,0.00,,---,0.00,VWS V14.01,2013-02-15 13:49:00,
2013-02-15 08:50:00,40.6,34.6,29.99,SSW,212,8.0,12.0,79,0.00,,---,0.00,VWS V14.01,2013-02-15 13:50:00,
2013-02-15 08:51:00,40.6,34.6,29.99,SW,214,10.0,12.0,79,0.00,,---,0.00,VWS V14.01,2013-02-15 13:51:00,
2013-02-15 08:52:00,40.7,34.7,29.99,SSW,213,7.0,12.0,79,0.00,,---,0.00,VWS V14.01,2013-02-15 13:52:00,
2013-02-15 08:53:00,40.8,34.8,29.99,SSW,211,7.0,12.0,79,0.00,,---,0.00,VWS V14.01,2013-02-15 13:53:00,
2013-02-15 08:54:00,40.8,34.8,29.99,SSW,209,7.0,12.0,79,0.00,,---,0.00,VWS V14.01,2013-02-15 13:54:00,
2013-02-15 08:55:00,40.9,34.9,29.99,SSW,207,7.0,12.0,79,0.00,,---,0.00,VWS V14.01,2013-02-15 13:55:00,
2013-02-15 08:56:00,40.9,34.9,29.99,SSW,209,7.0,12.0,79,0.00,,---,0.00,VWS V14.01,2013-02-15 13:56:00,
2013-02-15 08:57:00,40.9,35.2,29.99,SSW,209,7.0,12.0,80,0.00,,---,0.00,VWS V14.01,2013-02-15 13:57:00,
2013-02-15 08:58:00,40.9,35.2,29.99,SSW,209,6.0,12.0,80,0.00,,---,0.00,VWS V14.01,2013-02-15 13:58:00,
2013-02-15 08:59:00,41.0,35.3,29.99,SSW,208,5.0,12.0,80,0.00,,---,0.00,VWS V14.01,2013-02-15 13:59:00,
2013-02-15 09:00:00,41.0,35.3,29.99,SSW,203,6.0,12.0,80,0.00,,---,0.00,VWS V14.01,2013-02-15 14:00:00,
2013-02-15 09:01:00,41.0,35.3,29.99,SSW,201,7.0,8.0,80,0.00,,---,0.00,VWS V14.01,2013-02-15 14:01:00,
2013-02-15 09:02:00,41.0,35.0,29.99,SSW,200,7.0,8.0,79,0.00,,---,0.00,VWS V14.01,2013-02-15 14:02:00,
2013-02-15 09:03:00,41.0,35.0,29.99,SSW,200,7.0,8.0,79,0.00,,---,0.00,VWS V14.01,2013-02-15 14:03:00,
2013-02-15 09:04:00,41.1,35.1,29.99,SSW,200,7.0,8.0,79,0.00,,---,0.00,VWS V14.01,2013-02-15 14:04:00,
2013-02-15 09:05:00,41.1,35.1,29.99,SSW,202,7.0,8.0,79,0.00,,---,0.00,VWS V14.01,2013-02-15 14:05:00,
2013-02-15 09:06:00,41.2,35.2,29.99,SSW,202,7.0,8.0,79,0.00,,---,0.00,VWS V14.01,2013-02-15 14:06:00,
2013-02-15 09:07:00,41.2,35.2,29.99,SSW,201,7.0,8.0,79,0.00,,---,0.00,VWS V14.01,2013-02-15 14:07:00,
2013-02-15 09:08:00,41.3,35.3,29.99,SSW,200,6.0,8.0,79,0.00,,---,0.00,VWS V14.01,2013-02-15 14:08:00,
2013-02-15 09:09:00,41.4,35.4,29.99,SSW,199,4.0,8.0,79,0.00,,---,0.00,VWS V14.01,2013-02-15 14:09:00,
2013-02-15 09:10:00,41.5,35.5,29.99,SSW,196,7.0,8.0,79,0.00,,---,0.00,VWS V14.01,2013-02-15 14:10:00,
2013-02-15 09:11:00,41.7,35.7,29.99,SSW,197,7.0,8.0,79,0.00,,---,0.00,VWS V14.01,2013-02-15 14:11:00,
2013-02-15 09:12:00,41.8,35.5,29.99,SSW,198,7.0,9.0,78,0.00,,---,0.00,VWS V14.01,2013-02-15 14:12:00,
2013-02-15 09:13:00,42.0,35.7,29.99,SSW,197,8.0,9.0,78,0.00,,---,0.00,VWS V14.01,2013-02-15 14:13:00,
2013-02-15 09:14:00,42.0,35.0,29.99,SSW,200,7.0,9.0,76,0.00,,---,0.00,VWS V14.01,2013-02-15 14:14:00,
2013-02-15 09:15:00,42.2,35.2,29.99,SSW,201,7.0,9.0,76,0.00,,---,0.00,VWS V14.01,2013-02-15 14:15:00,
2013-02-15 09:16:00,42.3,35.3,29.99,SSW,201,7.0,9.0,76,0.00,,---,0.00,VWS V14.01,2013-02-15 14:16:00,
2013-02-15 09:17:00,42.4,35.4,29.99,SSW,200,7.0,9.0,76,0.00,,---,0.00,VWS V14.01,2013-02-15 14:17:00,
2013-02-15 09:18:00,42.5,35.5,29.99,SSW,202,8.0,9.0,76,0.00,,---,0.00,VWS V14.01,2013-02-15 14:18:00,
2013-02-15 09:19:00,42.5,35.5,29.99,SSW,204,7.0,9.0,76,0.00,,---,0.00,VWS V14.01,2013-02-15 14:19:00,
2013-02-15 09:20:00,42.6,34.9,29.99,SSW,200,9.0,9.0,74,0.00,,---,0.00,VWS V14.01,2013-02-15 14:20:00,
2013-02-15 09:21:00,42.7,35.0,29.99,SSW,202,10.0,11.0,74,0.00,,---,0.00,VWS V14.01,2013-02-15 14:21:00,
2013-02-15 09:22:00,42.7,35.0,29.99,SSW,200,10.0,11.0,74,0.00,,---,0.00,VWS V14.01,2013-02-15 14:22:00,
2013-02-15 09:23:00,42.8,34.8,29.99,SSW,200,9.0,11.0,73,0.00,,---,0.00,VWS V14.01,2013-02-15 14:23:00,
2013-02-15 09:24:00,42.9,34.8,29.99,SSW,200,8.0,11.0,73,0.00,,---,0.00,VWS V14.01,2013-02-15 14:24:00,
2013-02-15 09:25:00,43.0,35.0,29.99,SSW,200,8.0,13.0,73,0.00,,---,0.00,VWS V14.01,2013-02-15 14:25:00,
2013-02-15 09:26:00,43.1,35.0,29.99,SSW,201,8.0,13.0,73,0.00,,---,0.00,VWS V14.01,2013-02-15 14:26:00,
2013-02-15 09:27:00,43.2,35.1,29.99,SSW,198,9.0,13.0,73,0.00,,---,0.00,VWS V14.01,2013-02-15 14:27:00,
2013-02-15 09:28:00,43.3,34.9,29.98,SSW,198,8.0,13.0,72,0.00,,---,0.00,VWS V14.01,2013-02-15 14:28:00,
2013-02-15 09:29:00,43.4,35.0,29.99,SSW,200,11.0,13.0,72,0.00,,---,0.00,VWS V14.01,2013-02-15 14:29:00,
2013-02-15 09:30:00,43.5,35.1,29.99,SSW,203,8.0,13.0,72,0.00,,---,0.00,VWS V14.01,2013-02-15 14:30:00,
2013-02-15 09:31:00,43.5,35.1,29.98,SSW,207,8.0,10.0,72,0.00,,---,0.00,VWS V14.01,2013-02-15 14:31:00,
2013-02-15 09:32:00,43.6,35.2,29.98,SSW,207,9.0,10.0,72,0.00,,---,0.00,VWS V14.01,2013-02-15 14:32:00,
2013-02-15 09:33:00,43.7,35.6,29.98,SSW,205,8.0,10.0,73,0.00,,---,0.00,VWS V14.01,2013-02-15 14:33:00,
2013-02-15 09:34:00,43.7,35.3,29.98,SSW,206,7.0,10.0,72,0.00,,---,0.00,VWS V14.01,2013-02-15 14:34:00,
2013-02-15 09:35:00,43.8,35.4,29.98,SSW,200,8.0,10.0,72,0.00,,---,0.00,VWS V14.01,2013-02-15 14:35:00,
2013-02-15 09:36:00,43.9,35.5,29.98,SSW,204,8.0,11.0,72,0.00,,---,0.00,VWS V14.01,2013-02-15 14:36:00,
2013-02-15 09:37:00,43.9,35.1,29.98,SSW,202,9.0,11.0,71,0.00,,---,0.00,VWS V14.01,2013-02-15 14:37:00,
2013-02-15 09:38:00,44.0,35.2,29.98,SSW,205,7.0,11.0,71,0.00,,---,0.00,VWS V14.01,2013-02-15 14:38:00,
2013-02-15 09:39:00,44.0,35.6,29.98,SSW,206,10.0,11.0,72,0.00,,---,0.00,VWS V14.01,2013-02-15 14:39:00,
2013-02-15 09:40:00,44.1,35.3,29.98,SSW,205,8.0,11.0,71,0.00,,---,0.00,VWS V14.01,2013-02-15 14:40:00,
2013-02-15 09:41:00,44.1,35.3,29.98,SSW,211,9.0,11.0,71,0.00,,---,0.00,VWS V14.01,2013-02-15 14:41:00,
2013-02-15 09:42:00,44.2,35.8,29.98,SSW,212,10.0,11.0,72,0.00,,---,0.00,VWS V14.01,2013-02-15 14:42:00,
2013-02-15 09:43:00,44.2,35.8,29.98,SSW,212,10.0,12.0,72,0.00,,---,0.00,VWS V14.01,2013-02-15 14:43:00,
2013-02-15 09:44:00,44.2,35.8,29.98,SW,220,13.0,13.0,72,0.00,,---,0.00,VWS V14.01,2013-02-15 14:44:00,
2013-02-15 09:45:00,44.3,35.5,29.98,SSW,210,14.0,14.0,71,0.00,,---,0.00,VWS V14.01,2013-02-15 14:45:00,
2013-02-15 09:46:00,44.3,35.5,29.98,SSW,209,11.0,16.0,71,0.00,,---,0.00,VWS V14.01,2013-02-15 14:46:00,
2013-02-15 09:47:00,44.5,35.7,29.98,SSW,213,11.0,16.0,71,0.00,,---,0.00,VWS V14.01,2013-02-15 14:47:00,
2013-02-15 09:48:00,44.5,35.7,29.98,SSW,213,11.0,16.0,71,0.00,,---,0.00,VWS V14.01,2013-02-15 14:48:00,
2013-02-15 09:49:00,44.6,35.8,29.98,SSW,211,13.0,16.0,71,0.00,,---,0.00,VWS V14.01,2013-02-15 14:49:00,
2013-02-15 09:50:00,44.7,35.9,29.98,SW,215,10.0,16.0,71,0.00,,---,0.00,VWS V14.01,2013-02-15 14:50:00,
2013-02-15 09:51:00,44.7,35.9,29.98,SSW,207,11.0,16.0,71,0.00,,---,0.00,VWS V14.01,2013-02-15 14:51:00,
2013-02-15 09:52:00,44.7,35.5,29.98,SW,215,15.0,16.0,70,0.00,,---,0.00,VWS V14.01,2013-02-15 14:52:00,
2013-02-15 09:53:00,44.7,35.5,29.98,SSW,210,10.0,16.0,70,0.00,,---,0.00,VWS V14.01,2013-02-15 14:53:00,
2013-02-15 09:54:00,44.8,35.6,29.98,SSW,209,9.0,16.0,70,0.00,,---,0.00,VWS V14.01,2013-02-15 14:54:00,
2013-02-15 09:55:00,44.8,35.6,29.98,SSW,213,9.0,16.0,70,0.00,,---,0.00,VWS V14.01,2013-02-15 14:55:00,
2013-02-15 09:56:00,44.8,36.0,29.98,SSW,213,11.0,16.0,71,0.00,,---,0.00,VWS V14.01,2013-02-15 14:56:00,
2013-02-15 09:57:00,44.9,36.1,29.98,SSW,211,10.0,16.0,71,0.00,,---,0.00,VWS V14.01,2013-02-15 14:57:00,
2013-02-15 09:58:00,44.9,35.7,29.97,SSW,213,13.0,16.0,70,0.00,,---,0.00,VWS V14.01,2013-02-15 14:58:00,
2013-02-15 09:59:00,44.9,35.7,29.97,SSW,210,10.0,16.0,70,0.00,,---,0.00,VWS V14.01,2013-02-15 14:59:00,
2013-02-15 10:00:00,44.9,35.7,29.97,SSW,213,13.0,16.0,70,0.00,,---,0.00,VWS V14.01,2013-02-15 15:00:00,
2013-02-15 10:01:00,44.9,35.7,29.97,SSW,210,12.0,14.0,70,0.00,,---,0.00,VWS V14.01,2013-02-15 15:01:00,
2013-02-15 10:02:00,44.8,35.6,29.97,SSW,211,11.0,15.0,70,0.00,,---,0.00,VWS V14.01,2013-02-15 15:02:00,
2013-02-15 10:03:00,44.9,35.7,29.97,SSW,211,11.0,15.0,70,0.00,,---,0.00,VWS V14.01,2013-02-15 15:03:00,
2013-02-15 10:04:00,44.9,35.7,29.97,SSW,209,11.0,15.0,70,0.00,,---,0.00,VWS V14.01,2013-02-15 15:04:00,
2013-02-15 10:05:00,44.9,35.7,29.97,SSW,212,11.0,15.0,70,0.00,,---,0.00,VWS V14.01,2013-02-15 15:05:00,
2013-02-15 10:06:00,44.9,35.7,29.97,SW,215,13.0,15.0,70,0.00,,---,0.00,VWS V14.01,2013-02-15 15:06:00,
2013-02-15 10:07:00,44.9,35.7,29.97,SSW,212,11.0,15.0,70,0.00,,---,0.00,VWS V14.01,2013-02-15 15:07:00,
2013-02-15 10:08:00,45.0,35.8,29.97,SSW,211,8.0,15.0,70,0.00,,---,0.00,VWS V14.01,2013-02-15 15:08:00,
2013-02-15 10:09:00,45.1,36.3,29.97,SSW,212,10.0,15.0,71,0.00,,---,0.00,VWS V14.01,2013-02-15 15:09:00,
2013-02-15 10:10:00,45.1,35.9,29.97,SSW,212,9.0,15.0,70,0.00,,---,0.00,VWS V14.01,2013-02-15 15:10:00,
2013-02-15 10:11:00,45.1,35.9,29.97,SSW,212,8.0,15.0,70,0.00,,---,0.00,VWS V14.01,2013-02-15 15:11:00,
2013-02-15 10:12:00,45.2,36.0,29.97,SSW,209,12.0,15.0,70,0.00,,---,0.00,VWS V14.01,2013-02-15 15:12:00,
2013-02-15 10:13:00,45.2,35.7,29.96,SSW,213,11.0,15.0,69,0.00,,---,0.00,VWS V14.01,2013-02-15 15:13:00,
2013-02-15 10:14:00,45.3,35.7,29.96,SSW,205,13.0,15.0,69,0.00,,---,0.00,VWS V14.01,2013-02-15 15:14:00,
2013-02-15 10:15:00,45.4,35.8,29.96,SSW,213,14.0,17.0,69,0.00,,---,0.00,VWS V14.01,2013-02-15 15:15:00,
2013-02-15 10:16:00,45.5,35.6,29.96,SSW,207,16.0,19.0,68,0.00,,---,0.00,VWS V14.01,2013-02-15 15:16:00,
2013-02-15 10:17:00,45.6,35.3,29.96,SSW,211,11.0,19.0,67,0.00,,---,0.00,VWS V14.01,2013-02-15 15:17:00,
2013-02-15 10:18:00,45.7,35.8,29.96,SSW,211,10.0,19.0,68,0.00,,---,0.00,VWS V14.01,2013-02-15 15:18:00,
2013-02-15 10:19:00,45.8,36.2,29.96,SSW,212,14.0,19.0,69,0.00,,---,0.00,VWS V14.01,2013-02-15 15:19:00,
2013-02-15 10:20:00,45.7,35.4,29.96,SW,215,10.0,19.0,67,0.00,,---,0.00,VWS V14.01,2013-02-15 15:20:00,
2013-02-15 10:21:00,45.7,35.8,29.96,SSW,207,10.0,19.0,68,0.00,,---,0.00,VWS V14.01,2013-02-15 15:21:00,
2013-02-15 10:22:00,45.8,36.2,29.96,SSW,210,10.0,19.0,69,0.00,,---,0.00,VWS V14.01,2013-02-15 15:22:00,
2013-02-15 10:23:00,45.7,36.1,29.96,SSW,205,11.0,19.0,69,0.00,,---,0.00,VWS V14.01,2013-02-15 15:23:00,
2013-02-15 10:24:00,45.7,36.5,29.96,SSW,207,10.0,19.0,70,0.00,,---,0.00,VWS V14.01,2013-02-15 15:24:00,
2013-02-15 10:25:00,45.7,36.1,29.96,SSW,206,9.0,19.0,69,0.00,,---,0.00,VWS V14.01,2013-02-15 15:25:00,
2013-02-15 10:26:00,45.7,36.1,29.96,SSW,209,10.0,19.0,69,0.00,,---,0.00,VWS V14.01,2013-02-15 15:26:00,
2013-02-15 10:27:00,45.7,36.1,29.96,SSW,205,9.0,19.0,69,0.00,,---,0.00,VWS V14.01,2013-02-15 15:27:00,
2013-02-15 10:28:00,45.7,36.1,29.95,SSW,208,11.0,19.0,69,0.00,,---,0.00,VWS V14.01,2013-02-15 15:28:00,
2013-02-15 10:29:00,45.8,36.2,29.95,SSW,207,12.0,19.0,69,0.00,,---,0.00,VWS V14.01,2013-02-15 15:29:00,
2013-02-15 10:30:00,45.8,36.2,29.96,SSW,209,11.0,19.0,69,0.00,,---,0.00,VWS V14.01,2013-02-15 15:30:00,
2013-02-15 10:31:00,45.9,36.0,29.95,SW,214,14.0,14.0,68,0.00,,---,0.00,VWS V14.01,2013-02-15 15:31:00,
2013-02-15 10:32:00,45.9,36.0,29.95,SSW,212,13.0,17.0,68,0.00,,---,0.00,VWS V14.01,2013-02-15 15:32:00,
2013-02-15 10:33:00,45.9,35.6,29.95,SSW,212,12.0,17.0,67,0.00,,---,0.00,VWS V14.01,2013-02-15 15:33:00,
2013-02-15 10:34:00,46.0,35.7,29.95,SSW,209,14.0,19.0,67,0.00,,---,0.00,VWS V14.01,2013-02-15 15:34:00,
2013-02-15 10:35:00,46.1,35.8,29.95,SW,218,12.0,19.0,67,0.00,,---,0.00,VWS V14.01,2013-02-15 15:35:00,
2013-02-15 10:36:00,46.1,36.1,29.95,SSW,207,9.0,19.0,68,0.00,,---,0.00,VWS V14.01,2013-02-15 15:36:00,
2013-02-15 10:37:00,46.1,36.1,29.95,SSW,202,10.0,19.0,68,0.00,,---,0.00,VWS V14.01,2013-02-15 15:37:00,
2013-02-15 10:38:00,46.1,36.1,29.95,SSW,209,8.0,19.0,68,0.00,,---,0.00,VWS V14.01,2013-02-15 15:38:00,
2013-02-15 10:39:00,46.2,36.2,29.95,SSW,209,10.0,19.0,68,0.00,,---,0.00,VWS V14.01,2013-02-15 15:39:00,
2013-02-15 10:40:00,46.3,36.3,29.95,SSW,211,14.0,19.0,68,0.00,,---,0.00,VWS V14.01,2013-02-15 15:40:00,
2013-02-15 10:41:00,46.3,36.0,29.95,SSW,210,11.0,19.0,67,0.00,,---,0.00,VWS V14.01,2013-02-15 15:41:00,
2013-02-15 10:42:00,46.2,35.9,29.95,SSW,209,10.0,19.0,67,0.00,,---,0.00,VWS V14.01,2013-02-15 15:42:00,
2013-02-15 10:43:00,46.2,36.2,29.95,SSW,210,14.0,19.0,68,0.00,,---,0.00,VWS V14.01,2013-02-15 15:43:00,
2013-02-15 10:44:00,46.3,36.0,29.95,SSW,206,12.0,19.0,67,0.00,,---,0.00,VWS V14.01,2013-02-15 15:44:00,
2013-02-15 10:45:00,46.3,36.0,29.95,SSW,211,13.0,19.0,67,0.00,,---,0.00,VWS V14.01,2013-02-15 15:45:00,
2013-02-15 10:46:00,46.3,36.0,29.95,SSW,209,11.0,19.0,67,0.00,,---,0.00,VWS V14.01,2013-02-15 15:46:00,
2013-02-15 10:47:00,46.4,36.4,29.95,SSW,205,13.0,19.0,68,0.00,,---,0.00,VWS V14.01,2013-02-15 15:47:00,
2013-02-15 10:48:00,46.3,36.0,29.95,SSW,207,12.0,19.0,67,0.00,,---,0.00,VWS V14.01,2013-02-15 15:48:00,
2013-02-15 10:49:00,46.4,36.0,29.95,SSW,208,11.0,19.0,67,0.00,,---,0.00,VWS V14.01,2013-02-15 15:49:00,
2013-02-15 10:50:00,46.5,36.2,29.95,SSW,207,12.0,19.0,67,0.00,,---,0.00,VWS V14.01,2013-02-15 15:50:00,
2013-02-15 10:51:00,46.5,36.2,29.94,SSW,207,10.0,19.0,67,0.00,,---,0.00,VWS V14.01,2013-02-15 15:51:00,
2013-02-15 10:52:00,46.5,36.2,29.94,SSW,208,14.0,19.0,67,0.00,,---,0.00,VWS V14.01,2013-02-15 15:52:00,
2013-02-15 10:53:00,46.5,36.2,29.94,SSW,206,10.0,19.0,67,0.00,,---,0.00,VWS V14.01,2013-02-15 15:53:00,
2013-02-15 10:54:00,46.5,36.2,29.94,SSW,206,12.0,19.0,67,0.00,,---,0.00,VWS V14.01,2013-02-15 15:54:00,
2013-02-15 10:55:00,46.6,35.9,29.94,SSW,210,10.0,19.0,66,0.00,,---,0.00,VWS V14.01,2013-02-15 15:55:00,
2013-02-15 10:56:00,46.6,36.2,29.94,SSW,210,11.0,19.0,67,0.00,,---,0.00,VWS V14.01,2013-02-15 15:56:00,
2013-02-15 10:57:00,46.6,36.2,29.94,SSW,212,10.0,19.0,67,0.00,,---,0.00,VWS V14.01,2013-02-15 15:57:00,
2013-02-15 10:58:00,46.5,36.5,29.94,SSW,209,9.0,19.0,68,0.00,,---,0.00,VWS V14.01,2013-02-15 15:58:00,
2013-02-15 10:59:00,46.5,36.5,29.94,SSW,209,10.0,19.0,68,0.00,,---,0.00,VWS V14.01,2013-02-15 15:59:00,
2013-02-15 11:00:00,46.5,36.5,29.94,SSW,210,11.0,19.0,68,0.00,,---,0.00,VWS V14.01,2013-02-15 16:00:00,
2013-02-15 11:01:00,46.4,36.4,29.94,SSW,210,11.0,12.0,68,0.00,,---,0.00,VWS V14.01,2013-02-15 16:01:00,
2013-02-15 11:02:00,46.4,36.4,29.94,SSW,210,11.0,12.0,68,0.00,,---,0.00,VWS V14.01,2013-02-15 16:02:00,
2013-02-15 11:03:00,46.4,36.4,29.94,SSW,210,11.0,13.0,68,0.00,,---,0.00,VWS V14.01,2013-02-15 16:03:00,
2013-02-15 11:04:00,46.4,36.4,29.94,SSW,213,11.0,13.0,68,0.00,,---,0.00,VWS V14.01,2013-02-15 16:04:00,
2013-02-15 11:05:00,46.3,36.3,29.94,SSW,213,9.0,13.0,68,0.00,,---,0.00,VWS V14.01,2013-02-15 16:05:00,
2013-02-15 11:06:00,46.3,36.7,29.94,SSW,211,10.0,13.0,69,0.00,,---,0.00,VWS V14.01,2013-02-15 16:06:00,
2013-02-15 11:07:00,46.3,36.7,29.94,SSW,211,9.0,13.0,69,0.00,,---,0.00,VWS V14.01,2013-02-15 16:07:00,
2013-02-15 11:08:00,46.2,36.6,29.94,SSW,210,9.0,13.0,69,0.00,,---,0.00,VWS V14.01,2013-02-15 16:08:00,
2013-02-15 11:09:00,46.2,37.0,29.94,SSW,210,8.0,13.0,70,0.00,,---,0.00,VWS V14.01,2013-02-15 16:09:00,
2013-02-15 11:10:00,46.2,36.6,29.94,SSW,209,9.0,13.0,69,0.00,,---,0.00,VWS V14.01,2013-02-15 16:10:00,
2013-02-15 11:11:00,46.2,37.0,29.94,SSW,204,10.0,13.0,70,0.00,,---,0.00,VWS V14.01,2013-02-15 16:11:00,
2013-02-15 11:12:00,46.2,37.0,29.94,SSW,202,12.0,13.0,70,0.00,,---,0.00,VWS V14.01,2013-02-15 16:12:00,
2013-02-15 11:13:00,46.3,36.7,29.94,SSW,206,13.0,14.0,69,0.00,,---,0.00,VWS V14.01,2013-02-15 16:13:00,
2013-02-15 11:14:00,46.4,36.8,29.94,SSW,210,10.0,14.0,69,0.00,,---,0.00,VWS V14.01,2013-02-15 16:14:00,
2013-02-15 11:15:00,46.5,36.9,29.94,SSW,209,10.0,14.0,69,0.00,,---,0.00,VWS V14.01,2013-02-15 16:15:00,
2013-02-15 11:16:00,46.5,36.9,29.94,SSW,205,14.0,14.0,69,0.00,,---,0.00,VWS V14.01,2013-02-15 16:16:00,
2013-02-15 11:17:00,46.6,36.6,29.94,SSW,205,11.0,14.0,68,0.00,,---,0.00,VWS V14.01,2013-02-15 16:17:00,
2013-02-15 11:18:00,46.7,36.7,29.93,SSW,205,11.0,14.0,68,0.00,,---,0.00,VWS V14.01,2013-02-15 16:18:00,
2013-02-15 11:19:00,46.8,36.8,29.94,SSW,202,13.0,14.0,68,0.00,,---,0.00,VWS V14.01,2013-02-15 16:19:00,
2013-02-15 11:20:00,46.8,36.4,29.94,SSW,207,12.0,15.0,67,0.00,,---,0.00,VWS V14.01,2013-02-15 16:20:00,
2013-02-15 11:21:00,46.8,36.8,29.93,SSW,206,12.0,15.0,68,0.00,,---,0.00,VWS V14.01,2013-02-15 16:21:00,
2013-02-15 11:22:00,46.8,36.8,29.93,SSW,208,13.0,15.0,68,0.00,,---,0.00,VWS V14.01,2013-02-15 16:22:00,
2013-02-15 11:23:00,46.8,36.4,29.93,SSW,211,11.0,15.0,67,0.00,,---,0.00,VWS V14.01,2013-02-15 16:23:00,
2013-02-15 11:24:00,46.8,36.8,29.93,SSW,211,11.0,15.0,68,0.00,,---,0.00,VWS V14.01,2013-02-15 16:24:00,
2013-02-15 11:25:00,46.8,36.8,29.93,SSW,210,9.0,15.0,68,0.00,,---,0.00,VWS V14.01,2013-02-15 16:25:00,
2013-02-15 11:26:00,46.8,36.8,29.93,SSW,211,10.0,15.0,68,0.00,,---,0.00,VWS V14.01,2013-02-15 16:26:00,
2013-02-15 11:27:00,46.7,36.7,29.93,SSW,211,10.0,15.0,68,0.00,,---,0.00,VWS V14.01,2013-02-15 16:27:00,
2013-02-15 11:28:00,46.7,37.1,29.93,SSW,209,10.0,15.0,69,0.00,,---,0.00,VWS V14.01,2013-02-15 16:28:00,
2013-02-15 11:29:00,46.7,37.1,29.93,SSW,208,10.0,15.0,69,0.00,,---,0.00,VWS V14.01,2013-02-15 16:29:00,
2013-02-15 11:30:00,46.7,37.1,29.93,SSW,205,11.0,15.0,69,0.00,,---,0.00,VWS V14.01,2013-02-15 16:30:00,
2013-02-15 11:31:00,46.7,37.1,29.93,SSW,205,10.0,12.0,69,0.00,,---,0.00,VWS V14.01,2013-02-15 16:31:00,
2013-02-15 11:32:00,46.7,37.1,29.93,SSW,203,9.0,12.0,69,0.00,,---,0.00,VWS V14.01,2013-02-15 16:32:00,
2013-02-15 11:33:00,46.8,36.8,29.93,SSW,203,11.0,12.0,68,0.00,,---,0.00,VWS V14.01,2013-02-15 16:33:00,
2013-02-15 11:34:00,46.8,36.8,29.93,SSW,204,11.0,13.0,68,0.00,,---,0.00,VWS V14.01,2013-02-15 16:34:00,
2013-02-15 11:35:00,46.9,36.9,29.93,SSW,202,11.0,13.0,68,0.00,,---,0.00,VWS V14.01,2013-02-15 16:35:00,
2013-02-15 11:36:00,47.0,37.0,29.93,SSW,202,11.0,13.0,68,0.00,,---,0.00,VWS V14.01,2013-02-15 16:36:00,
2013-02-15 11:37:00,47.0,37.0,29.93,SSW,201,13.0,15.0,68,0.00,,---,0.00,VWS V14.01,2013-02-15 16:37:00,
2013-02-15 11:38:00,47.0,36.6,29.93,SSW,202,13.0,15.0,67,0.00,,---,0.00,VWS V14.01,2013-02-15 16:38:00,
2013-02-15 11:39:00,47.1,36.7,29.93,SSW,202,12.0,16.0,67,0.00,,---,0.00,VWS V14.01,2013-02-15 16:39:00,
2013-02-15 11:40:00,47.1,36.7,29.93,SSW,200,13.0,16.0,67,0.00,,---,0.00,VWS V14.01,2013-02-15 16:40:00,
2013-02-15 11:41:00,47.2,36.8,29.93,SSW,201,14.0,16.0,67,0.00,,---,0.00,VWS V14.01,2013-02-15 16:41:00,
2013-02-15 11:42:00,47.2,36.8,29.93,SSW,201,14.0,16.0,67,0.00,,---,0.00,VWS V14.01,2013-02-15 16:42:00,
2013-02-15 11:43:00,47.2,36.8,29.93,SSW,200,13.0,16.0,67,0.00,,---,0.00,VWS V14.01,2013-02-15 16:43:00,
2013-02-15 11:44:00,47.2,36.8,29.93,SSW,201,16.0,16.0,67,0.00,,---,0.00,VWS V14.01,2013-02-15 16:44:00,
2013-02-15 11:45:00,47.2,36.8,29.93,SSW,202,14.0,16.0,67,0.00,,---,0.00,VWS V14.01,2013-02-15 16:45:00,
2013-02-15 11:46:00,47.2,36.8,29.93,SSW,205,12.0,16.0,67,0.00,,---,0.00,VWS V14.01,2013-02-15 16:46:00,
2013-02-15 11:47:00,47.2,36.8,29.92,SSW,203,12.0,16.0,67,0.00,,---,0.00,VWS V14.01,2013-02-15 16:47:00,
2013-02-15 11:48:00,47.2,37.2,29.93,SSW,201,11.0,16.0,68,0.00,,---,0.00,VWS V14.01,2013-02-15 16:48:00,
2013-02-15 11:49:00,47.1,36.7,29.92,SSW,203,14.0,16.0,67,0.00,,---,0.00,VWS V14.01,2013-02-15 16:49:00,
2013-02-15 11:50:00,47.2,36.8,29.92,SSW,202,12.0,16.0,67,0.00,,---,0.00,VWS V14.01,2013-02-15 16:50:00,
2013-02-15 11:51:00,47.1,36.7,29.92,SSW,203,13.0,16.0,67,0.00,,---,0.00,VWS V14.01,2013-02-15 16:51:00,
2013-02-15 11:52:00,47.2,36.8,29.92,SSW,203,14.0,16.0,67,0.00,,---,0.00,VWS V14.01,2013-02-15 16:52:00,
2013-02-15 11:53:00,47.2,36.8,29.92,SSW,202,13.0,16.0,67,0.00,,---,0.00,VWS V14.01,2013-02-15 16:53:00,
2013-02-15 11:54:00,47.2,36.8,29.92,SSW,202,13.0,16.0,67,0.00,,---,0.00,VWS V14.01,2013-02-15 16:54:00,
2013-02-15 11:55:00,47.3,36.9,29.92,SSW,205,13.0,16.0,67,0.00,,---,0.00,VWS V14.01,2013-02-15 16:55:00,
2013-02-15 11:56:00,47.3,36.9,29.92,SSW,200,12.0,16.0,67,0.00,,---,0.00,VWS V14.01,2013-02-15 16:56:00,
2013-02-15 11:57:00,47.4,37.0,29.92,SSW,202,11.0,16.0,67,0.00,,---,0.00,VWS V14.01,2013-02-15 16:57:00,
2013-02-15 11:58:00,47.4,37.4,29.92,SSW,200,11.0,16.0,68,0.00,,---,0.00,VWS V14.01,2013-02-15 16:58:00,
2013-02-15 11:59:00,47.5,37.1,29.92,SSW,200,13.0,16.0,67,0.00,,---,0.00,VWS V14.01,2013-02-15 16:59:00,
2013-02-15 12:00:00,47.5,37.1,29.92,SSW,201,12.0,16.0,67,0.00,,---,0.00,VWS V14.01,2013-02-15 17:00:00,
2013-02-15 12:01:00,47.6,37.2,29.92,SSW,202,11.0,13.0,67,0.00,,---,0.00,VWS V14.01,2013-02-15 17:01:00,
2013-02-15 12:02:00,47.6,37.2,29.92,North,360,13.0,13.0,67,0.00,,---,0.00,VWS V14.01,2013-02-15 17:02:00,
2013-02-15 12:03:00,47.6,37.2,29.92,SSW,201,11.0,13.0,67,0.00,,---,0.00,VWS V14.01,2013-02-15 17:03:00,
2013-02-15 12:04:00,47.6,37.2,29.92,SSW,198,14.0,16.0,67,0.00,,---,0.00,VWS V14.01,2013-02-15 17:04:00,
2013-02-15 12:05:00,47.6,36.8,29.92,SSW,199,15.0,16.0,66,0.00,,---,0.00,VWS V14.01,2013-02-15 17:05:00,
2013-02-15 12:06:00,47.7,36.9,29.92,SSW,200,14.0,17.0,66,0.00,,---,0.00,VWS V14.01,2013-02-15 17:06:00,
2013-02-15 12:07:00,47.8,37.0,29.92,SSW,200,12.0,17.0,66,0.00,,---,0.00,VWS V14.01,2013-02-15 17:07:00,
2013-02-15 12:08:00,47.9,37.1,29.92,SSW,202,11.0,17.0,66,0.00,,---,0.00,VWS V14.01,2013-02-15 17:08:00,
2013-02-15 12:09:00,48.0,37.2,29.92,SSW,198,13.0,17.0,66,0.00,,---,0.00,VWS V14.01,2013-02-15 17:09:00,
2013-02-15 12:10:00,48.0,36.8,29.92,SSW,200,13.0,17.0,65,0.00,,---,0.00,VWS V14.01,2013-02-15 17:10:00,
2013-02-15 12:11:00,48.1,36.9,29.92,SSW,202,12.0,17.0,65,0.00,,---,0.00,VWS V14.01,2013-02-15 17:11:00,
2013-02-15 12:12:00,48.1,37.3,29.92,SSW,202,11.0,17.0,66,0.00,,---,0.00,VWS V14.01,2013-02-15 17:12:00,
2013-02-15 12:13:00,48.1,37.3,29.92,SSW,201,12.0,17.0,66,0.00,,---,0.00,VWS V14.01,2013-02-15 17:13:00,
2013-02-15 12:14:00,48.0,37.2,29.92,SSW,202,12.0,17.0,66,0.00,,---,0.00,VWS V14.01,2013-02-15 17:14:00,
2013-02-15 12:15:00,47.9,37.1,29.92,SSW,201,13.0,17.0,66,0.00,,---,0.00,VWS V14.01,2013-02-15 17:15:00,
2013-02-15 12:16:00,47.9,37.1,29.92,SSW,198,12.0,17.0,66,0.00,,---,0.00,VWS V14.01,2013-02-15 17:16:00,
2013-02-15 12:17:00,47.8,37.4,29.92,SSW,201,11.0,17.0,67,0.00,,---,0.00,VWS V14.01,2013-02-15 17:17:00,
2013-02-15 12:18:00,47.8,37.0,29.92,SSW,200,12.0,17.0,66,0.00,,---,0.00,VWS V14.01,2013-02-15 17:18:00,
2013-02-15 12:19:00,47.9,37.1,29.92,SSW,202,13.0,17.0,66,0.00,,---,0.00,VWS V14.01,2013-02-15 17:19:00,
2013-02-15 12:20:00,48.1,37.3,29.92,SSW,202,12.0,17.0,66,0.00,,---,0.00,VWS V14.01,2013-02-15 17:20:00,
2013-02-15 12:21:00,48.1,37.3,29.92,SSW,204,10.0,17.0,66,0.00,,---,0.00,VWS V14.01,2013-02-15 17:21:00,
2013-02-15 12:22:00,48.1,37.3,29.92,SSW,202,12.0,17.0,66,0.00,,---,0.00,VWS V14.01,2013-02-15 17:22:00,
2013-02-15 12:23:00,48.1,37.3,29.92,SSW,202,12.0,17.0,66,0.00,,---,0.00,VWS V14.01,2013-02-15 17:23:00,
2013-02-15 12:24:00,48.1,37.3,29.92,SSW,199,12.0,17.0,66,0.00,,---,0.00,VWS V14.01,2013-02-15 17:24:00,
2013-02-15 12:25:00,48.2,37.4,29.92,SSW,202,11.0,17.0,66,0.00,,---,0.00,VWS V14.01,2013-02-15 17:25:00,
2013-02-15 12:26:00,48.2,37.4,29.92,SSW,199,11.0,17.0,66,0.00,,---,0.00,VWS V14.01,2013-02-15 17:26:00,
2013-02-15 12:27:00,48.1,37.3,29.92,SSW,200,12.0,17.0,66,0.00,,---,0.00,VWS V14.01,2013-02-15 17:27:00,
2013-02-15 12:28:00,48.1,37.3,29.92,SSW,200,11.0,17.0,66,0.00,,---,0.00,VWS V14.01,2013-02-15 17:28:00,
2013-02-15 12:29:00,48.2,37.4,29.92,SSW,201,12.0,17.0,66,0.00,,---,0.00,VWS V14.01,2013-02-15 17:29:00,
2013-02-15 12:30:00,48.2,37.4,29.92,SSW,200,12.0,17.0,66,0.00,,---,0.00,VWS V14.01,2013-02-15 17:30:00,
2013-02-15 12:31:00,48.2,37.4,29.92,SSW,200,11.0,13.0,66,0.00,,---,0.00,VWS V14.01,2013-02-15 17:31:00,
2013-02-15 12:32:00,48.3,37.5,29.92,SSW,199,12.0,13.0,66,0.00,,---,0.00,VWS V14.01,2013-02-15 17:32:00,
2013-02-15 12:33:00,48.3,37.5,29.92,SSW,199,14.0,14.0,66,0.00,,---,0.00,VWS V14.01,2013-02-15 17:33:00,
2013-02-15 12:34:00,48.4,37.6,29.92,SSW,199,10.0,15.0,66,0.00,,---,0.00,VWS V14.01,2013-02-15 17:34:00,
2013-02-15 12:35:00,48.5,37.3,29.92,SSW,198,14.0,15.0,65,0.00,,---,0.00,VWS V14.01,2013-02-15 17:35:00,
2013-02-15 12:36:00,48.6,37.4,29.92,SSW,198,15.0,17.0,65,0.00,,---,0.00,VWS V14.01,2013-02-15 17:36:00,
2013-02-15 12:37:00,48.7,37.1,29.92,SSW,198,14.0,17.0,64,0.00,,---,0.00,VWS V14.01,2013-02-15 17:37:00,
2013-02-15 12:38:00,48.7,37.1,29.92,SSW,197,14.0,17.0,64,0.00,,---,0.00,VWS V14.01,2013-02-15 17:38:00,
2013-02-15 12:39:00,48.8,37.6,29.92,SSW,198,12.0,17.0,65,0.00,,---,0.00,VWS V14.01,2013-02-15 17:39:00,
2013-02-15 12:40:00,48.9,37.7,29.92,SSW,200,12.0,17.0,65,0.00,,---,0.00,VWS V14.01,2013-02-15 17:40:00,
2013-02-15 12:41:00,48.9,37.7,29.92,SSW,202,10.0,17.0,65,0.00,,---,0.00,VWS V14.01,2013-02-15 17:41:00,
2013-02-15 12:42:00,48.8,37.6,29.92,SSW,202,10.0,17.0,65,0.00,,---,0.00,VWS V14.01,2013-02-15 17:42:00,
2013-02-15 12:43:00,48.8,38.0,29.92,SSW,200,12.0,17.0,66,0.00,,---,0.00,VWS V14.01,2013-02-15 17:43:00,
2013-02-15 12:44:00,48.7,37.9,29.92,SSW,200,10.0,17.0,66,0.00,,---,0.00,VWS V14.01,2013-02-15 17:44:00,
2013-02-15 12:45:00,48.7,37.9,29.92,SSW,199,13.0,17.0,66,0.00,,---,0.00,VWS V14.01,2013-02-15 17:45:00,
2013-02-15 12:46:00,48.6,37.8,29.92,SSW,200,11.0,17.0,66,0.00,,---,0.00,VWS V14.01,2013-02-15 17:46:00,
2013-02-15 12:47:00,48.7,37.9,29.92,SSW,198,12.0,17.0,66,0.00,,---,0.00,VWS V14.01,2013-02-15 17:47:00,
2013-02-15 12:48:00,48.6,37.8,29.92,SSW,199,14.0,17.0,66,0.00,,---,0.00,VWS V14.01,2013-02-15 17:48:00,
2013-02-15 12:49:00,48.7,37.9,29.92,SSW,198,11.0,17.0,66,0.00,,---,0.00,VWS V14.01,2013-02-15 17:49:00,
2013-02-15 12:50:00,48.6,37.8,29.92,SSW,199,13.0,17.0,66,0.00,,---,0.00,VWS V14.01,2013-02-15 17:50:00,
2013-02-15 12:51:00,48.7,37.9,29.92,SSW,200,13.0,17.0,66,0.00,,---,0.00,VWS V14.01,2013-02-15 17:51:00,
2013-02-15 12:52:00,48.7,37.9,29.92,SSW,201,13.0,17.0,66,0.00,,---,0.00,VWS V14.01,2013-02-15 17:52:00,
2013-02-15 12:53:00,48.7,37.9,29.92,SSW,201,11.0,17.0,66,0.00,,---,0.00,VWS V14.01,2013-02-15 17:53:00,
2013-02-15 12:54:00,48.7,37.9,29.92,SSW,201,14.0,17.0,66,0.00,,---,0.00,VWS V14.01,2013-02-15 17:54:00,
2013-02-15 12:55:00,48.7,37.9,29.92,SSW,198,13.0,17.0,66,0.00,,---,0.00,VWS V14.01,2013-02-15 17:55:00,
2013-02-15 12:56:00,48.7,37.9,29.92,SSW,200,15.0,17.0,66,0.00,,---,0.00,VWS V14.01,2013-02-15 17:56:00,
2013-02-15 12:57:00,48.8,38.0,29.92,SSW,199,16.0,17.0,66,0.00,,---,0.00,VWS V14.01,2013-02-15 17:57:00,
2013-02-15 12:58:00,48.7,37.9,29.91,SSW,202,16.0,17.0,66,0.00,,---,0.00,VWS V14.01,2013-02-15 17:58:00,
2013-02-15 12:59:00,48.7,37.9,29.92,SSW,203,16.0,17.0,66,0.00,,---,0.00,VWS V14.01,2013-02-15 17:59:00,
2013-02-15 13:00:00,48.7,37.5,29.92,SSW,201,15.0,17.0,65,0.00,,---,0.00,VWS V14.01,2013-02-15 18:00:00,
2013-02-15 13:01:00,48.8,37.6,29.92,SSW,202,15.0,16.0,65,0.00,,---,0.00,VWS V14.01,2013-02-15 18:01:00,
2013-02-15 13:02:00,48.8,37.6,29.92,SSW,201,14.0,16.0,65,0.00,,---,0.00,VWS V14.01,2013-02-15 18:02:00,
2013-02-15 13:03:00,48.8,38.0,29.92,SSW,200,13.0,16.0,66,0.00,,---,0.00,VWS V14.01,2013-02-15 18:03:00,
2013-02-15 13:04:00,48.7,37.9,29.92,SSW,202,14.0,16.0,66,0.00,,---,0.00,VWS V14.01,2013-02-15 18:04:00,
2013-02-15 13:05:00,48.7,37.9,29.92,SSW,203,13.0,16.0,66,0.00,,---,0.00,VWS V14.01,2013-02-15 18:05:00,
2013-02-15 13:06:00,48.6,37.8,29.92,SSW,201,14.0,16.0,66,0.00,,---,0.00,VWS V14.01,2013-02-15 18:06:00,
2013-02-15 13:07:00,48.6,37.8,29.92,SSW,200,15.0,17.0,66,0.00,,---,0.00,VWS V14.01,2013-02-15 18:07:00,
2013-02-15 13:08:00,48.5,37.7,29.92,SSW,198,13.0,17.0,66,0.00,,---,0.00,VWS V14.01,2013-02-15 18:08:00,
2013-02-15 13:09:00,48.5,37.7,29.92,SSW,198,13.0,17.0,66,0.00,,---,0.00,VWS V14.01,2013-02-15 18:09:00,
2013-02-15 13:10:00,48.6,37.8,29.92,SSW,198,13.0,17.0,66,0.00,,---,0.00,VWS V14.01,2013-02-15 18:10:00,
2013-02-15 13:11:00,48.6,37.8,29.91,SSW,200,11.0,17.0,66,0.00,,---,0.00,VWS V14.01,2013-02-15 18:11:00,
2013-02-15 13:12:00,48.6,37.8,29.91,SSW,202,15.0,17.0,66,0.00,,---,0.00,VWS V14.01,2013-02-15 18:12:00,
2013-02-15 13:13:00,48.6,37.8,29.92,SSW,201,14.0,17.0,66,0.00,,---,0.00,VWS V14.01,2013-02-15 18:13:00,
2013-02-15 13:14:00,48.6,37.8,29.91,SSW,200,13.0,17.0,66,0.00,,---,0.00,VWS V14.01,2013-02-15 18:14:00,
2013-02-15 13:15:00,48.6,37.8,29.91,SSW,201,14.0,17.0,66,0.00,,---,0.00,VWS V14.01,2013-02-15 18:15:00,
2013-02-15 13:16:00,48.6,37.8,29.91,SSW,200,13.0,17.0,66,0.00,,---,0.00,VWS V14.01,2013-02-15 18:16:00,
2013-02-15 13:17:00,48.6,37.8,29.91,SSW,203,13.0,17.0,66,0.00,,---,0.00,VWS V14.01,2013-02-15 18:17:00,
2013-02-15 13:18:00,48.6,37.8,29.91,SSW,203,13.0,17.0,66,0.00,,---,0.00,VWS V14.01,2013-02-15 18:18:00,
2013-02-15 13:19:00,48.6,37.8,29.91,SSW,202,12.0,17.0,66,0.00,,---,0.00,VWS V14.01,2013-02-15 18:19:00,
2013-02-15 13:20:00,48.6,37.8,29.91,SSW,205,13.0,17.0,66,0.00,,---,0.00,VWS V14.01,2013-02-15 18:20:00,
2013-02-15 13:21:00,48.5,38.1,29.91,SSW,204,11.0,17.0,67,0.00,,---,0.00,VWS V14.01,2013-02-15 18:21:00,
2013-02-15 13:22:00,48.5,38.1,29.91,SSW,205,11.0,17.0,67,0.00,,---,0.00,VWS V14.01,2013-02-15 18:22:00,
2013-02-15 13:23:00,48.6,38.2,29.91,SSW,204,11.0,17.0,67,0.00,,---,0.00,VWS V14.01,2013-02-15 18:23:00,
2013-02-15 13:24:00,48.6,38.2,29.91,SSW,202,11.0,17.0,67,0.00,,---,0.00,VWS V14.01,2013-02-15 18:24:00,
2013-02-15 13:25:00,48.5,38.1,29.91,SSW,201,12.0,17.0,67,0.00,,---,0.00,VWS V14.01,2013-02-15 18:25:00,
2013-02-15 13:26:00,48.5,38.1,29.91,SSW,202,12.0,17.0,67,0.00,,---,0.00,VWS V14.01,2013-02-15 18:26:00,
2013-02-15 13:27:00,48.4,38.0,29.91,SSW,202,11.0,17.0,67,0.00,,---,0.00,VWS V14.01,2013-02-15 18:27:00,
2013-02-15 13:28:00,48.4,38.0,29.91,SSW,202,11.0,17.0,67,0.00,,---,0.00,VWS V14.01,2013-02-15 18:28:00,
2013-02-15 13:29:00,48.4,38.0,29.91,SSW,201,12.0,17.0,67,0.00,,---,0.00,VWS V14.01,2013-02-15 18:29:00,
2013-02-15 13:30:00,48.4,38.0,29.91,SSW,200,13.0,17.0,67,0.00,,---,0.00,VWS V14.01,2013-02-15 18:30:00,
2013-02-15 13:31:00,48.5,38.1,29.91,SSW,200,14.0,14.0,67,0.00,,---,0.00,VWS V14.01,2013-02-15 18:31:00,
2013-02-15 13:32:00,48.6,37.8,29.91,SSW,200,14.0,16.0,66,0.00,,---,0.00,VWS V14.01,2013-02-15 18:32:00,
2013-02-15 13:33:00,48.7,37.9,29.91,SSW,201,13.0,16.0,66,0.00,,---,0.00,VWS V14.01,2013-02-15 18:33:00,
2013-02-15 13:34:00,48.8,38.0,29.91,SSW,198,12.0,16.0,66,0.00,,---,0.00,VWS V14.01,2013-02-15 18:34:00,
2013-02-15 13:35:00,48.9,38.1,29.91,SSW,200,14.0,16.0,66,0.00,,---,0.00,VWS V14.01,2013-02-15 18:35:00,
2013-02-15 13:36:00,48.9,38.1,29.91,SSW,200,13.0,17.0,66,0.00,,---,0.00,VWS V14.01,2013-02-15 18:36:00,
2013-02-15 13:37:00,48.9,38.1,29.91,SSW,202,13.0,17.0,66,0.00,,---,0.00,VWS V14.01,2013-02-15 18:37:00,
2013-02-15 13:38:00,48.9,38.1,29.91,SSW,202,15.0,17.0,66,0.00,,---,0.00,VWS V14.01,2013-02-15 18:38:00,
2013-02-15 13:39:00,48.9,38.1,29.91,SSW,202,14.0,17.0,66,0.00,,---,0.00,VWS V14.01,2013-02-15 18:39:00,
2013-02-15 13:40:00,48.9,38.1,29.91,SSW,201,14.0,17.0,66,0.00,,---,0.00,VWS V14.01,2013-02-15 18:40:00,
2013-02-15 13:41:00,48.9,38.1,29.91,SSW,202,9.0,17.0,66,0.00,,---,0.00,VWS V14.01,2013-02-15 18:41:00,
2013-02-15 13:42:00,48.9,38.1,29.91,SSW,201,8.0,17.0,66,0.00,,---,0.00,VWS V14.01,2013-02-15 18:42:00,
2013-02-15 13:43:00,48.9,38.4,29.91,SSW,200,13.0,17.0,67,0.00,,---,0.00,VWS V14.01,2013-02-15 18:43:00,
2013-02-15 13:44:00,48.8,38.3,29.91,SSW,200,10.0,17.0,67,0.00,,---,0.00,VWS V14.01,2013-02-15 18:44:00,
2013-02-15 13:45:00,48.7,38.2,29.91,SSW,200,11.0,17.0,67,0.00,,---,0.00,VWS V14.01,2013-02-15 18:45:00,
2013-02-15 13:46:00,48.7,38.2,29.91,SSW,201,11.0,17.0,67,0.00,,---,0.00,VWS V14.01,2013-02-15 18:46:00,
2013-02-15 13:47:00,48.7,38.2,29.91,SSW,200,13.0,17.0,67,0.00,,---,0.00,VWS V14.01,2013-02-15 18:47:00,
2013-02-15 13:48:00,48.7,38.2,29.91,SSW,199,15.0,17.0,67,0.00,,---,0.00,VWS V14.01,2013-02-15 18:48:00,
2013-02-15 13:49:00,48.6,38.2,29.91,SSW,200,12.0,17.0,67,0.00,,---,0.00,VWS V14.01,2013-02-15 18:49:00,
2013-02-15 13:50:00,48.7,37.9,29.91,SSW,200,12.0,17.0,66,0.00,,---,0.00,VWS V14.01,2013-02-15 18:50:00,
2013-02-15 13:51:00,48.7,37.9,29.91,SSW,199,12.0,17.0,66,0.00,,---,0.00,VWS V14.01,2013-02-15 18:51:00,
2013-02-15 13:52:00,48.8,38.0,29.91,SSW,198,15.0,17.0,66,0.00,,---,0.00,VWS V14.01,2013-02-15 18:52:00,
2013-02-15 13:53:00,48.9,38.1,29.91,SSW,194,9.0,17.0,66,0.00,,---,0.00,VWS V14.01,2013-02-15 18:53:00,
2013-02-15 13:54:00,49.0,38.5,29.91,SSW,198,11.0,17.0,67,0.00,,---,0.00,VWS V14.01,2013-02-15 18:54:00,
2013-02-15 13:55:00,49.1,38.2,29.91,SSW,193,8.0,17.0,66,0.00,,---,0.00,VWS V14.01,2013-02-15 18:55:00,
2013-02-15 13:56:00,49.1,38.6,29.91,SSW,193,9.0,17.0,67,0.00,,---,0.00,VWS V14.01,2013-02-15 18:56:00,
2013-02-15 13:57:00,49.1,38.6,29.91,South,189,11.0,17.0,67,0.00,,---,0.00,VWS V14.01,2013-02-15 18:57:00,
2013-02-15 13:58:00,49.1,38.6,29.91,South,190,10.0,17.0,67,0.00,,---,0.00,VWS V14.01,2013-02-15 18:58:00,
2013-02-15 13:59:00,49.2,38.7,29.91,SSW,192,8.0,17.0,67,0.00,,---,0.00,VWS V14.01,2013-02-15 18:59:00,
2013-02-15 14:00:00,49.2,38.7,29.91,South,191,14.0,17.0,67,0.00,,---,0.00,VWS V14.01,2013-02-15 19:00:00,
2013-02-15 14:01:00,49.2,38.3,29.91,SSW,198,13.0,15.0,66,0.00,,---,0.00,VWS V14.01,2013-02-15 19:01:00,
2013-02-15 14:02:00,49.2,38.3,29.91,South,180,8.0,15.0,66,0.00,,---,0.00,VWS V14.01,2013-02-15 19:02:00,
2013-02-15 14:03:00,49.2,38.7,29.91,South,189,9.0,15.0,67,0.00,,---,0.00,VWS V14.01,2013-02-15 19:03:00,
2013-02-15 14:04:00,49.1,38.6,29.91,South,187,9.0,15.0,67,0.00,,---,0.00,VWS V14.01,2013-02-15 19:04:00,
2013-02-15 14:05:00,49.1,38.6,29.91,SSW,193,10.0,15.0,67,0.00,,---,0.00,VWS V14.01,2013-02-15 19:05:00,
2013-02-15 14:06:00,49.1,38.6,29.91,SSW,198,12.0,16.0,67,0.00,,---,0.00,VWS V14.01,2013-02-15 19:06:00,
2013-02-15 14:07:00,49.0,38.2,29.91,South,190,14.0,16.0,66,0.00,,---,0.00,VWS V14.01,2013-02-15 19:07:00,
2013-02-15 14:08:00,49.0,38.5,29.91,SSW,196,9.0,16.0,67,0.00,,---,0.00,VWS V14.01,2013-02-15 19:08:00,
2013-02-15 14:09:00,49.0,38.5,29.91,SSW,194,11.0,16.0,67,0.00,,---,0.00,VWS V14.01,2013-02-15 19:09:00,
2013-02-15 14:10:00,49.0,38.5,29.91,SSW,197,11.0,16.0,67,0.00,,---,0.00,VWS V14.01,2013-02-15 19:10:00,
2013-02-15 14:11:00,49.0,38.5,29.91,SSW,196,14.0,16.0,67,0.00,,---,0.00,VWS V14.01,2013-02-15 19:11:00,
2013-02-15 14:12:00,48.9,38.4,29.91,SSW,198,11.0,16.0,67,0.00,,---,0.00,VWS V14.01,2013-02-15 19:12:00,
2013-02-15 14:13:00,48.9,38.4,29.91,SSW,196,9.0,16.0,67,0.00,,---,0.00,VWS V14.01,2013-02-15 19:13:00,
2013-02-15 14:14:00,48.8,38.7,29.91,SSW,195,11.0,16.0,68,0.00,,---,0.00,VWS V14.01,2013-02-15 19:14:00,
2013-02-15 14:15:00,48.8,38.7,29.91,SSW,192,9.0,16.0,68,0.00,,---,0.00,VWS V14.01,2013-02-15 19:15:00,
2013-02-15 14:16:00,48.8,38.7,29.90,South,187,10.0,16.0,68,0.00,,---,0.00,VWS V14.01,2013-02-15 19:16:00,
2013-02-15 14:17:00,48.8,38.7,29.91,SSW,199,14.0,16.0,68,0.00,,---,0.00,VWS V14.01,2013-02-15 19:17:00,
2013-02-15 14:18:00,48.8,38.7,29.90,South,190,8.0,16.0,68,0.00,,---,0.00,VWS V14.01,2013-02-15 19:18:00,
2013-02-15 14:19:00,48.8,38.3,29.90,SSW,197,11.0,16.0,67,0.00,,---,0.00,VWS V14.01,2013-02-15 19:19:00,
2013-02-15 14:20:00,48.8,38.3,29.90,SSW,194,9.0,16.0,67,0.00,,---,0.00,VWS V14.01,2013-02-15 19:20:00,
2013-02-15 14:21:00,48.8,38.3,29.91,SSW,194,10.0,16.0,67,0.00,,---,0.00,VWS V14.01,2013-02-15 19:21:00,
2013-02-15 14:22:00,48.9,38.4,29.91,SSW,194,11.0,16.0,67,0.00,,---,0.00,VWS V14.01,2013-02-15 19:22:00,
2013-02-15 14:23:00,48.9,38.4,29.91,SSW,197,11.0,16.0,67,0.00,,---,0.00,VWS V14.01,2013-02-15 19:23:00,
2013-02-15 14:24:00,48.8,38.3,29.91,SSW,197,7.0,16.0,67,0.00,,---,0.00,VWS V14.01,2013-02-15 19:24:00,
2013-02-15 14:25:00,48.7,38.6,29.90,SSW,194,10.0,16.0,68,0.00,,---,0.00,VWS V14.01,2013-02-15 19:25:00,
2013-02-15 14:26:00,48.6,38.5,29.90,SSW,198,13.0,16.0,68,0.00,,---,0.00,VWS V14.01,2013-02-15 19:26:00,
2013-02-15 14:27:00,48.6,38.5,29.90,SSW,196,11.0,16.0,68,0.00,,---,0.00,VWS V14.01,2013-02-15 19:27:00,
2013-02-15 14:28:00,48.5,38.4,29.90,SSW,196,12.0,17.0,68,0.00,,---,0.00,VWS V14.01,2013-02-15 19:28:00,
2013-02-15 14:29:00,48.3,38.2,29.90,SSW,196,14.0,17.0,68,0.00,,---,0.00,VWS V14.01,2013-02-15 19:29:00,
2013-02-15 14:30:00,48.3,38.6,29.90,SSW,197,17.0,17.0,69,0.00,,---,0.00,VWS V14.01,2013-02-15 19:30:00,
2013-02-15 14:31:00,48.2,38.5,29.90,SSW,197,15.0,17.0,69,0.00,,---,0.00,VWS V14.01,2013-02-15 19:31:00,
2013-02-15 14:32:00,48.2,38.5,29.90,SSW,197,14.0,18.0,69,0.00,,---,0.00,VWS V14.01,2013-02-15 19:32:00,
2013-02-15 14:33:00,48.1,38.4,29.90,SSW,196,11.0,18.0,69,0.00,,---,0.00,VWS V14.01,2013-02-15 19:33:00,
2013-02-15 14:34:00,48.0,38.3,29.90,SSW,199,15.0,18.0,69,0.00,,---,0.00,VWS V14.01,2013-02-15 19:34:00,
2013-02-15 14:35:00,48.0,38.3,29.90,SSW,196,17.0,18.0,69,0.00,,---,0.00,VWS V14.01,2013-02-15 19:35:00,
2013-02-15 14:36:00,47.9,38.2,29.90,SSW,200,13.0,18.0,69,0.00,,---,0.00,VWS V14.01,2013-02-15 19:36:00,
2013-02-15 14:37:00,47.9,38.2,29.90,SSW,198,10.0,18.0,69,0.00,,---,0.00,VWS V14.01,2013-02-15 19:37:00,
2013-02-15 14:38:00,47.8,38.5,29.90,SSW,198,13.0,18.0,70,0.00,,---,0.00,VWS V14.01,2013-02-15 19:38:00,
2013-02-15 14:39:00,47.7,38.4,29.90,SSW,200,12.0,18.0,70,0.00,,---,0.00,VWS V14.01,2013-02-15 19:39:00,
2013-02-15 14:40:00,47.6,38.3,29.90,SSW,198,11.0,18.0,70,0.00,,---,0.00,VWS V14.01,2013-02-15 19:40:00,
2013-02-15 14:41:00,47.5,38.2,29.90,SSW,197,11.0,18.0,70,0.00,,---,0.00,VWS V14.01,2013-02-15 19:41:00,
2013-02-15 14:42:00,47.4,38.1,29.90,SSW,196,12.0,18.0,70,0.00,,---,0.00,VWS V14.01,2013-02-15 19:42:00,
2013-02-15 14:43:00,47.3,38.4,29.90,SSW,198,10.0,18.0,71,0.00,,---,0.00,VWS V14.01,2013-02-15 19:43:00,
2013-02-15 14:44:00,47.2,38.3,29.90,South,191,10.0,18.0,71,0.00,,---,0.00,VWS V14.01,2013-02-15 19:44:00,
2013-02-15 14:45:00,47.2,38.3,29.90,SSW,198,10.0,18.0,71,0.00,,---,0.00,VWS V14.01,2013-02-15 19:45:00,
2013-02-15 14:46:00,47.2,38.3,29.90,South,187,11.0,18.0,71,0.00,,---,0.00,VWS V14.01,2013-02-15 19:46:00,
2013-02-15 14:47:00,47.2,38.3,29.91,SSW,195,14.0,18.0,71,0.00,,---,0.00,VWS V14.01,2013-02-15 19:47:00,
2013-02-15 14:48:00,47.2,38.3,29.91,SSW,192,16.0,18.0,71,0.00,,---,0.00,VWS V14.01,2013-02-15 19:48:00,
2013-02-15 14:49:00,47.2,38.3,29.91,SSW,205,13.0,18.0,71,0.00,,---,0.00,VWS V14.01,2013-02-15 19:49:00,
2013-02-15 14:50:00,47.2,38.3,29.91,SSW,198,12.0,18.0,71,0.00,,---,0.00,VWS V14.01,2013-02-15 19:50:00,
2013-02-15 14:51:00,47.1,38.2,29.91,SSW,194,11.0,18.0,71,0.00,,---,0.00,VWS V14.01,2013-02-15 19:51:00,
2013-02-15 14:52:00,46.9,38.0,29.91,SSW,199,12.0,18.0,71,0.00,,---,0.00,VWS V14.01,2013-02-15 19:52:00,
2013-02-15 14:53:00,46.9,38.4,29.91,SSW,199,11.0,18.0,72,0.00,,---,0.00,VWS V14.01,2013-02-15 19:53:00,
2013-02-15 14:54:00,46.8,38.3,29.91,SSW,205,14.0,18.0,72,0.00,,---,0.00,VWS V14.01,2013-02-15 19:54:00,
2013-02-15 14:55:00,46.9,38.4,29.91,SSW,196,15.0,18.0,72,0.00,,---,0.00,VWS V14.01,2013-02-15 19:55:00,
2013-02-15 14:56:00,46.9,38.4,29.91,SSW,197,12.0,18.0,72,0.00,,---,0.00,VWS V14.01,2013-02-15 19:56:00,
2013-02-15 14:57:00,46.9,38.4,29.91,SSW,204,11.0,18.0,72,0.00,,---,0.00,VWS V14.01,2013-02-15 19:57:00,
2013-02-15 14:58:00,47.0,38.5,29.91,South,190,16.0,18.0,72,0.00,,---,0.00,VWS V14.01,2013-02-15 19:58:00,
2013-02-15 14:59:00,46.9,38.4,29.90,SSW,194,13.0,18.0,72,0.00,,---,0.00,VWS V14.01,2013-02-15 19:59:00,
2013-02-15 15:00:00,46.8,38.3,29.90,SSW,198,16.0,18.0,72,0.00,,---,0.00,VWS V14.01,2013-02-15 20:00:00,
2013-02-15 15:01:00,46.8,38.3,29.91,SSW,196,15.0,17.0,72,0.00,,---,0.00,VWS V14.01,2013-02-15 20:01:00,
2013-02-15 15:02:00,46.7,38.2,29.91,SSW,207,13.0,17.0,72,0.00,,---,0.00,VWS V14.01,2013-02-15 20:02:00,
2013-02-15 15:03:00,46.7,38.2,29.91,South,188,15.0,17.0,72,0.00,,---,0.00,VWS V14.01,2013-02-15 20:03:00,
2013-02-15 15:04:00,46.7,38.2,29.91,SSW,197,13.0,17.0,72,0.00,,---,0.00,VWS V14.01,2013-02-15 20:04:00,
2013-02-15 15:05:00,46.5,38.0,29.91,SSW,201,15.0,17.0,72,0.00,,---,0.00,VWS V14.01,2013-02-15 20:05:00,
2013-02-15 15:06:00,46.4,37.9,29.91,SSW,200,14.0,17.0,72,0.00,,---,0.00,VWS V14.01,2013-02-15 20:06:00,
2013-02-15 15:07:00,46.3,38.1,29.91,SSW,200,14.0,17.0,73,0.00,,---,0.00,VWS V14.01,2013-02-15 20:07:00,
2013-02-15 15:08:00,46.3,38.1,29.91,SSW,197,12.0,17.0,73,0.00,,---,0.00,VWS V14.01,2013-02-15 20:08:00,
2013-02-15 15:09:00,46.3,38.1,29.91,SSW,194,14.0,17.0,73,0.00,,---,0.00,VWS V14.01,2013-02-15 20:09:00,
2013-02-15 15:10:00,46.2,38.0,29.91,SSW,199,15.0,17.0,73,0.00,,---,0.00,VWS V14.01,2013-02-15 20:10:00,
2013-02-15 15:11:00,46.1,37.9,29.91,SSW,194,16.0,17.0,73,0.00,,---,0.00,VWS V14.01,2013-02-15 20:11:00,
2013-02-15 15:12:00,46.1,37.9,29.91,South,189,16.0,17.0,73,0.00,,---,0.00,VWS V14.01,2013-02-15 20:12:00,
2013-02-15 15:13:00,46.0,37.8,29.91,SSW,196,16.0,17.0,73,0.00,,---,0.00,VWS V14.01,2013-02-15 20:13:00,
2013-02-15 15:14:00,45.9,37.8,29.91,SSW,197,15.0,17.0,73,0.00,,---,0.00,VWS V14.01,2013-02-15 20:14:00,
2013-02-15 15:15:00,45.9,37.8,29.91,SSW,196,16.0,17.0,73,0.00,,---,0.00,VWS V14.01,2013-02-15 20:15:00,
2013-02-15 15:16:00,45.8,37.7,29.91,SSW,196,13.0,17.0,73,0.00,,---,0.00,VWS V14.01,2013-02-15 20:16:00,
2013-02-15 15:17:00,45.8,38.0,29.91,SSW,201,13.0,17.0,74,0.00,,---,0.00,VWS V14.01,2013-02-15 20:17:00,
2013-02-15 15:18:00,45.8,37.7,29.91,SSW,199,13.0,17.0,73,0.00,,---,0.00,VWS V14.01,2013-02-15 20:18:00,
2013-02-15 15:19:00,45.7,37.9,29.91,SSW,196,13.0,17.0,74,0.00,,---,0.00,VWS V14.01,2013-02-15 20:19:00,
2013-02-15 15:20:00,45.6,37.8,29.91,SSW,194,13.0,17.0,74,0.00,,---,0.00,VWS V14.01,2013-02-15 20:20:00,
2013-02-15 15:21:00,45.6,37.8,29.91,SSW,200,15.0,17.0,74,0.00,,---,0.00,VWS V14.01,2013-02-15 20:21:00,
2013-02-15 15:22:00,45.5,37.7,29.91,SSW,198,14.0,17.0,74,0.00,,---,0.00,VWS V14.01,2013-02-15 20:22:00,
2013-02-15 15:23:00,45.5,37.7,29.91,SSW,205,15.0,17.0,74,0.00,,---,0.00,VWS V14.01,2013-02-15 20:23:00,
2013-02-15 15:24:00,45.6,37.8,29.91,SSW,196,15.0,17.0,74,0.00,,---,0.00,VWS V14.01,2013-02-15 20:24:00,
2013-02-15 15:25:00,45.5,37.7,29.91,SSW,207,12.0,17.0,74,0.00,,---,0.00,VWS V14.01,2013-02-15 20:25:00,
2013-02-15 15:26:00,45.4,37.6,29.91,SSW,202,11.0,17.0,74,0.00,,---,0.00,VWS V14.01,2013-02-15 20:26:00,
2013-02-15 15:27:00,45.4,37.6,29.91,SSW,203,13.0,17.0,74,0.00,,---,0.00,VWS V14.01,2013-02-15 20:27:00,
2013-02-15 15:28:00,45.2,37.4,29.91,SSW,209,12.0,17.0,74,0.00,,---,0.00,VWS V14.01,2013-02-15 20:28:00,
2013-02-15 15:29:00,45.1,37.7,29.91,SSW,200,12.0,17.0,75,0.00,,---,0.00,VWS V14.01,2013-02-15 20:29:00,
2013-02-15 15:30:00,45.0,37.6,29.91,SSW,199,14.0,17.0,75,0.00,,---,0.00,VWS V14.01,2013-02-15 20:30:00,
2013-02-15 15:31:00,45.0,37.6,29.91,SSW,205,14.0,15.0,75,0.00,,---,0.00,VWS V14.01,2013-02-15 20:31:00,
2013-02-15 15:32:00,44.9,37.5,29.91,SSW,198,14.0,15.0,75,0.00,,---,0.00,VWS V14.01,2013-02-15 20:32:00,
2013-02-15 15:33:00,44.9,37.5,29.91,SSW,200,14.0,16.0,75,0.00,,---,0.00,VWS V14.01,2013-02-15 20:33:00,
2013-02-15 15:34:00,44.8,37.4,29.91,SSW,202,14.0,16.0,75,0.00,,---,0.00,VWS V14.01,2013-02-15 20:34:00,
2013-02-15 15:35:00,44.8,37.4,29.91,SSW,195,11.0,16.0,75,0.00,,---,0.00,VWS V14.01,2013-02-15 20:35:00,
2013-02-15 15:36:00,44.8,37.4,29.91,SSW,198,13.0,16.0,75,0.00,,---,0.00,VWS V14.01,2013-02-15 20:36:00,
2013-02-15 15:37:00,44.8,37.4,29.91,SSW,211,15.0,16.0,75,0.00,,---,0.00,VWS V14.01,2013-02-15 20:37:00,
2013-02-15 15:38:00,44.8,37.4,29.91,SSW,198,13.0,16.0,75,0.00,,---,0.00,VWS V14.01,2013-02-15 20:38:00,
2013-02-15 15:39:00,44.8,37.4,29.91,SSW,196,12.0,16.0,75,0.00,,---,0.00,VWS V14.01,2013-02-15 20:39:00,
2013-02-15 15:40:00,44.8,37.4,29.91,SSW,200,11.0,16.0,75,0.00,,---,0.00,VWS V14.01,2013-02-15 20:40:00,
2013-02-15 15:41:00,44.7,37.3,29.91,SSW,202,11.0,16.0,75,0.00,,---,0.00,VWS V14.01,2013-02-15 20:41:00,
2013-02-15 15:42:00,44.7,37.3,29.91,SSW,205,12.0,16.0,75,0.00,,---,0.00,VWS V14.01,2013-02-15 20:42:00,
2013-02-15 15:43:00,44.6,37.2,29.91,SSW,203,8.0,16.0,75,0.00,,---,0.00,VWS V14.01,2013-02-15 20:43:00,
2013-02-15 15:44:00,44.6,37.2,29.91,SSW,198,14.0,16.0,75,0.00,,---,0.00,VWS V14.01,2013-02-15 20:44:00,
2013-02-15 15:45:00,44.5,37.4,29.91,SSW,200,12.0,16.0,76,0.00,,---,0.00,VWS V14.01,2013-02-15 20:45:00,
2013-02-15 15:46:00,44.5,37.4,29.91,SSW,204,10.0,16.0,76,0.00,,---,0.00,VWS V14.01,2013-02-15 20:46:00,
2013-02-15 15:47:00,44.4,37.3,29.91,SSW,205,13.0,16.0,76,0.00,,---,0.00,VWS V14.01,2013-02-15 20:47:00,
2013-02-15 15:48:00,44.3,37.2,29.91,SSW,205,14.0,16.0,76,0.00,,---,0.00,VWS V14.01,2013-02-15 20:48:00,
2013-02-15 15:49:00,44.3,37.2,29.91,SSW,202,14.0,16.0,76,0.00,,---,0.00,VWS V14.01,2013-02-15 20:49:00,
2013-02-15 15:50:00,44.2,37.1,29.91,SSW,202,14.0,16.0,76,0.00,,---,0.00,VWS V14.01,2013-02-15 20:50:00,
2013-02-15 15:51:00,44.2,37.1,29.91,SSW,200,15.0,16.0,76,0.00,,---,0.00,VWS V14.01,2013-02-15 20:51:00,
2013-02-15 15:52:00,44.2,37.1,29.91,SSW,195,10.0,16.0,76,0.00,,---,0.00,VWS V14.01,2013-02-15 20:52:00,
2013-02-15 15:53:00,44.2,37.1,29.91,SSW,210,13.0,16.0,76,0.00,,---,0.00,VWS V14.01,2013-02-15 20:53:00,
2013-02-15 15:54:00,44.2,37.1,29.91,SSW,201,13.0,16.0,76,0.00,,---,0.00,VWS V14.01,2013-02-15 20:54:00,
2013-02-15 15:55:00,44.2,37.1,29.91,South,191,16.0,16.0,76,0.00,,---,0.00,VWS V14.01,2013-02-15 20:55:00,
2013-02-15 15:56:00,44.2,37.1,29.91,SSW,199,14.0,16.0,76,0.00,,---,0.00,VWS V14.01,2013-02-15 20:56:00,
2013-02-15 15:57:00,44.3,37.2,29.91,SSW,200,15.0,16.0,76,0.00,,---,0.00,VWS V14.01,2013-02-15 20:57:00,
2013-02-15 15:58:00,44.3,37.2,29.91,SSW,201,12.0,16.0,76,0.00,,---,0.00,VWS V14.01,2013-02-15 20:58:00,
2013-02-15 15:59:00,44.3,37.2,29.91,SSW,202,14.0,16.0,76,0.00,,---,0.00,VWS V14.01,2013-02-15 20:59:00,
2013-02-15 16:00:00,44.3,37.2,29.91,SSW,200,14.0,16.0,76,0.00,,---,0.00,VWS V14.01,2013-02-15 21:00:00,
2013-02-15 16:01:00,44.3,37.2,29.91,SSW,200,13.0,15.0,76,0.00,,---,0.00,VWS V14.01,2013-02-15 21:01:00,
2013-02-15 16:02:00,44.3,37.2,29.91,SSW,196,13.0,15.0,76,0.00,,---,0.00,VWS V14.01,2013-02-15 21:02:00,
2013-02-15 16:03:00,44.3,37.2,29.91,SSW,202,12.0,16.0,76,0.00,,---,0.00,VWS V14.01,2013-02-15 21:03:00,
2013-02-15 16:04:00,44.3,37.2,29.91,SSW,197,13.0,16.0,76,0.00,,---,0.00,VWS V14.01,2013-02-15 21:04:00,
2013-02-15 16:05:00,44.3,37.2,29.91,SSW,200,13.0,16.0,76,0.00,,---,0.00,VWS V14.01,2013-02-15 21:05:00,
2013-02-15 16:06:00,44.3,37.2,29.91,SSW,197,12.0,16.0,76,0.00,,---,0.00,VWS V14.01,2013-02-15 21:06:00,
2013-02-15 16:07:00,44.3,37.2,29.91,SSW,196,15.0,16.0,76,0.00,,---,0.00,VWS V14.01,2013-02-15 21:07:00,
2013-02-15 16:08:00,44.3,37.2,29.91,SSW,197,13.0,16.0,76,0.00,,---,0.00,VWS V14.01,2013-02-15 21:08:00,
2013-02-15 16:09:00,44.3,37.2,29.90,SSW,197,15.0,17.0,76,0.00,,---,0.00,VWS V14.01,2013-02-15 21:09:00,
2013-02-15 16:10:00,44.3,37.2,29.90,South,188,14.0,17.0,76,0.00,,---,0.00,VWS V14.01,2013-02-15 21:10:00,
2013-02-15 16:11:00,44.2,37.1,29.91,SSW,198,14.0,17.0,76,0.00,,---,0.00,VWS V14.01,2013-02-15 21:11:00,
2013-02-15 16:12:00,44.2,37.1,29.91,SSW,194,13.0,17.0,76,0.00,,---,0.00,VWS V14.01,2013-02-15 21:12:00,
2013-02-15 16:13:00,44.2,37.1,29.91,SSW,199,11.0,17.0,76,0.00,,---,0.00,VWS V14.01,2013-02-15 21:13:00,
2013-02-15 16:14:00,44.2,37.1,29.91,SSW,202,12.0,17.0,76,0.00,,---,0.00,VWS V14.01,2013-02-15 21:14:00,
2013-02-15 16:15:00,44.2,37.1,29.91,SSW,200,11.0,17.0,76,0.00,,---,0.00,VWS V14.01,2013-02-15 21:15:00,
2013-02-15 16:16:00,44.1,37.0,29.91,SSW,200,10.0,17.0,76,0.00,,---,0.00,VWS V14.01,2013-02-15 21:16:00,
2013-02-15 16:17:00,44.0,36.9,29.91,SSW,196,11.0,17.0,76,0.00,,---,0.00,VWS V14.01,2013-02-15 21:17:00,
2013-02-15 16:18:00,43.9,36.8,29.91,SSW,200,10.0,17.0,76,0.00,,---,0.00,VWS V14.01,2013-02-15 21:18:00,
2013-02-15 16:19:00,43.8,36.7,29.91,SSW,201,11.0,17.0,76,0.00,,---,0.00,VWS V14.01,2013-02-15 21:19:00,
2013-02-15 16:20:00,43.8,36.7,29.91,SSW,202,10.0,17.0,76,0.00,,---,0.00,VWS V14.01,2013-02-15 21:20:00,
2013-02-15 16:21:00,43.7,36.6,29.91,SSW,200,8.0,17.0,76,0.00,,---,0.00,VWS V14.01,2013-02-15 21:21:00,
2013-02-15 16:22:00,43.6,36.9,29.91,SSW,202,7.0,17.0,77,0.00,,---,0.00,VWS V14.01,2013-02-15 21:22:00,
2013-02-15 16:23:00,43.5,36.8,29.91,SSW,201,8.0,17.0,77,0.00,,---,0.00,VWS V14.01,2013-02-15 21:23:00,
2013-02-15 16:24:00,43.4,36.7,29.92,SSW,200,9.0,17.0,77,0.00,,---,0.00,VWS V14.01,2013-02-15 21:24:00,
2013-02-15 16:25:00,43.4,36.7,29.92,SSW,202,8.0,17.0,77,0.00,,---,0.00,VWS V14.01,2013-02-15 21:25:00,
2013-02-15 16:26:00,43.3,36.6,29.92,SSW,207,7.0,17.0,77,0.00,,---,0.00,VWS V14.01,2013-02-15 21:26:00,
2013-02-15 16:27:00,43.2,36.8,29.92,SSW,205,8.0,17.0,78,0.00,,---,0.00,VWS V14.01,2013-02-15 21:27:00,
2013-02-15 16:28:00,43.1,36.7,29.92,SSW,200,7.0,17.0,78,0.00,,---,0.00,VWS V14.01,2013-02-15 21:28:00,
2013-02-15 16:29:00,43.1,36.7,29.92,SSW,207,7.0,17.0,78,0.00,,---,0.00,VWS V14.01,2013-02-15 21:29:00,
2013-02-15 16:30:00,43.0,36.6,29.92,SSW,204,7.0,17.0,78,0.00,,---,0.00,VWS V14.01,2013-02-15 21:30:00,
2013-02-15 16:31:00,42.9,36.5,29.92,SSW,209,8.0,8.0,78,0.00,,---,0.00,VWS V14.01,2013-02-15 21:31:00,
2013-02-15 16:32:00,42.9,36.5,29.92,SSW,202,8.0,9.0,78,0.00,,---,0.00,VWS V14.01,2013-02-15 21:32:00,
2013-02-15 16:33:00,42.8,36.4,29.92,SSW,202,7.0,10.0,78,0.00,,---,0.00,VWS V14.01,2013-02-15 21:33:00,
2013-02-15 16:34:00,42.8,36.8,29.92,SSW,202,8.0,10.0,79,0.00,,---,0.00,VWS V14.01,2013-02-15 21:34:00,
2013-02-15 16:35:00,42.7,36.7,29.92,SSW,209,8.0,11.0,79,0.00,,---,0.00,VWS V14.01,2013-02-15 21:35:00,
2013-02-15 16:36:00,42.7,36.7,29.92,SSW,205,10.0,11.0,79,0.00,,---,0.00,VWS V14.01,2013-02-15 21:36:00,
2013-02-15 16:37:00,42.7,36.7,29.92,SSW,203,10.0,11.0,79,0.00,,---,0.00,VWS V14.01,2013-02-15 21:37:00,
2013-02-15 16:38:00,42.7,36.7,29.92,SSW,200,10.0,11.0,79,0.00,,---,0.00,VWS V14.01,2013-02-15 21:38:00,
2013-02-15 16:39:00,42.7,36.7,29.92,SSW,202,11.0,12.0,79,0.00,,---,0.00,VWS V14.01,2013-02-15 21:39:00,
2013-02-15 16:40:00,42.7,36.7,29.92,SSW,204,10.0,12.0,79,0.00,,---,0.00,VWS V14.01,2013-02-15 21:40:00,
2013-02-15 16:41:00,42.6,36.5,29.92,SSW,203,9.0,12.0,79,0.00,,---,0.00,VWS V14.01,2013-02-15 21:41:00,
2013-02-15 16:42:00,42.6,36.5,29.92,SSW,202,10.0,12.0,79,0.00,,---,0.00,VWS V14.01,2013-02-15 21:42:00,
2013-02-15 16:43:00,42.6,36.5,29.92,SSW,200,9.0,13.0,79,0.00,,---,0.00,VWS V14.01,2013-02-15 21:43:00,
2013-02-15 16:44:00,42.6,36.5,29.92,SSW,203,9.0,13.0,79,0.00,,---,0.00,VWS V14.01,2013-02-15 21:44:00,
2013-02-15 16:45:00,42.6,36.5,29.92,SSW,196,10.0,13.0,79,0.00,,---,0.00,VWS V14.01,2013-02-15 21:45:00,
2013-02-15 16:46:00,42.7,36.7,29.92,SSW,201,10.0,13.0,79,0.00,,---,0.00,VWS V14.01,2013-02-15 21:46:00,
2013-02-15 16:47:00,42.6,36.5,29.92,SSW,200,11.0,13.0,79,0.00,,---,0.00,VWS V14.01,2013-02-15 21:47:00,
2013-02-15 16:48:00,42.6,36.5,29.92,SSW,200,9.0,13.0,79,0.00,,---,0.00,VWS V14.01,2013-02-15 21:48:00,
2013-02-15 16:49:00,42.6,36.5,29.92,SSW,204,9.0,13.0,79,0.00,,---,0.00,VWS V14.01,2013-02-15 21:49:00,
2013-02-15 16:50:00,42.6,36.5,29.92,SSW,202,8.0,13.0,79,0.00,,---,0.00,VWS V14.01,2013-02-15 21:50:00,
2013-02-15 16:51:00,42.5,36.8,29.92,SSW,202,8.0,13.0,80,0.00,,---,0.00,VWS V14.01,2013-02-15 21:51:00,
2013-02-15 16:52:00,42.4,36.7,29.92,SSW,202,9.0,13.0,80,0.00,,---,0.00,VWS V14.01,2013-02-15 21:52:00,
2013-02-15 16:53:00,42.4,36.7,29.92,SSW,206,8.0,13.0,80,0.00,,---,0.00,VWS V14.01,2013-02-15 21:53:00,
2013-02-15 16:54:00,42.3,36.6,29.92,SSW,206,9.0,13.0,80,0.00,,---,0.00,VWS V14.01,2013-02-15 21:54:00,
2013-02-15 16:55:00,42.2,36.5,29.92,SSW,207,8.0,13.0,80,0.00,,---,0.00,VWS V14.01,2013-02-15 21:55:00,
2013-02-15 16:56:00,42.2,36.5,29.92,SSW,211,8.0,13.0,80,0.00,,---,0.00,VWS V14.01,2013-02-15 21:56:00,
2013-02-15 16:57:00,42.1,36.7,29.92,SSW,205,8.0,13.0,81,0.00,,---,0.00,VWS V14.01,2013-02-15 21:57:00,
2013-02-15 16:58:00,42.0,36.6,29.92,SW,214,10.0,13.0,81,0.00,,---,0.00,VWS V14.01,2013-02-15 21:58:00,
2013-02-15 16:59:00,42.0,36.6,29.92,SSW,210,8.0,13.0,81,0.00,,---,0.00,VWS V14.01,2013-02-15 21:59:00,
2013-02-15 17:00:00,41.9,36.5,29.92,SSW,210,8.0,13.0,81,0.00,,---,0.00,VWS V14.01,2013-02-15 22:00:00,
2013-02-15 17:01:00,41.9,36.5,29.92,SSW,207,7.0,9.0,81,0.00,,---,0.00,VWS V14.01,2013-02-15 22:01:00,
2013-02-15 17:02:00,41.9,36.5,29.92,SSW,211,8.0,9.0,81,0.00,,---,0.00,VWS V14.01,2013-02-15 22:02:00,
2013-02-15 17:03:00,41.8,36.4,29.92,SSW,208,8.0,9.0,81,0.00,,---,0.00,VWS V14.01,2013-02-15 22:03:00,
2013-02-15 17:04:00,41.8,36.4,29.92,SSW,209,7.0,10.0,81,0.00,,---,0.00,VWS V14.01,2013-02-15 22:04:00,
2013-02-15 17:05:00,41.8,36.7,29.92,SSW,205,9.0,10.0,82,0.00,,---,0.00,VWS V14.01,2013-02-15 22:05:00,
2013-02-15 17:06:00,41.7,36.6,29.92,SSW,207,9.0,10.0,82,0.00,,---,0.00,VWS V14.01,2013-02-15 22:06:00,
2013-02-15 17:07:00,41.7,36.6,29.92,SSW,204,7.0,11.0,82,0.00,,---,0.00,VWS V14.01,2013-02-15 22:07:00,
2013-02-15 17:08:00,41.7,36.6,29.92,SSW,202,10.0,11.0,82,0.00,,---,0.00,VWS V14.01,2013-02-15 22:08:00,
2013-02-15 17:09:00,41.7,36.6,29.92,SSW,210,11.0,11.0,82,0.00,,---,0.00,VWS V14.01,2013-02-15 22:09:00,
2013-02-15 17:10:00,41.7,36.6,29.92,SSW,209,9.0,11.0,82,0.00,,---,0.00,VWS V14.01,2013-02-15 22:10:00,
2013-02-15 17:11:00,41.7,36.6,29.92,SSW,209,7.0,12.0,82,0.00,,---,0.00,VWS V14.01,2013-02-15 22:11:00,
2013-02-15 17:12:00,41.7,36.6,29.92,SSW,202,8.0,12.0,82,0.00,,---,0.00,VWS V14.01,2013-02-15 22:12:00,
2013-02-15 17:13:00,41.7,36.6,29.92,SSW,211,10.0,12.0,82,0.00,,---,0.00,VWS V14.01,2013-02-15 22:13:00,
2013-02-15 17:14:00,41.6,36.5,29.92,SW,215,10.0,12.0,82,0.00,,---,0.00,VWS V14.01,2013-02-15 22:14:00,
2013-02-15 17:15:00,41.6,36.5,29.92,SSW,211,8.0,12.0,82,0.00,,---,0.00,VWS V14.01,2013-02-15 22:15:00,
2013-02-15 17:16:00,41.6,36.5,29.92,SSW,212,9.0,12.0,82,0.00,,---,0.00,VWS V14.01,2013-02-15 22:16:00,
2013-02-15 17:17:00,41.6,36.8,29.92,SSW,211,9.0,12.0,83,0.00,,---,0.00,VWS V14.01,2013-02-15 22:17:00,
2013-02-15 17:18:00,41.5,36.7,29.92,SSW,211,8.0,12.0,83,0.00,,---,0.00,VWS V14.01,2013-02-15 22:18:00,
2013-02-15 17:19:00,41.5,36.7,29.92,SSW,211,7.0,12.0,83,0.00,,---,0.00,VWS V14.01,2013-02-15 22:19:00,
2013-02-15 17:20:00,41.4,36.6,29.92,SSW,210,6.0,12.0,83,0.00,,---,0.00,VWS V14.01,2013-02-15 22:20:00,
2013-02-15 17:21:00,41.4,36.6,29.92,SSW,211,8.0,12.0,83,0.00,,---,0.00,VWS V14.01,2013-02-15 22:21:00,
2013-02-15 17:22:00,41.3,36.5,29.92,SW,215,9.0,12.0,83,0.00,,---,0.00,VWS V14.01,2013-02-15 22:22:00,
2013-02-15 17:23:00,41.3,36.5,29.92,SW,217,9.0,12.0,83,0.00,,---,0.00,VWS V14.01,2013-02-15 22:23:00,
2013-02-15 17:24:00,41.4,36.6,29.92,SW,215,9.0,12.0,83,0.00,,---,0.00,VWS V14.01,2013-02-15 22:24:00,
2013-02-15 17:25:00,41.4,36.6,29.92,SW,215,10.0,12.0,83,0.00,,---,0.00,VWS V14.01,2013-02-15 22:25:00,
2013-02-15 17:26:00,41.4,36.6,29.92,SSW,212,7.0,12.0,83,0.00,,---,0.00,VWS V14.01,2013-02-15 22:26:00,
2013-02-15 17:27:00,41.4,36.6,29.92,SW,215,9.0,12.0,83,0.00,,---,0.00,VWS V14.01,2013-02-15 22:27:00,
2013-02-15 17:28:00,41.4,36.6,29.92,SSW,207,7.0,12.0,83,0.00,,---,0.00,VWS V14.01,2013-02-15 22:28:00,
2013-02-15 17:29:00,41.3,36.5,29.92,SW,215,9.0,12.0,83,0.00,,---,0.00,VWS V14.01,2013-02-15 22:29:00,
2013-02-15 17:30:00,41.3,36.5,29.92,SW,218,9.0,12.0,83,0.00,,---,0.00,VWS V14.01,2013-02-15 22:30:00,
2013-02-15 17:31:00,41.3,36.5,29.92,SW,215,9.0,10.0,83,0.00,,---,0.00,VWS V14.01,2013-02-15 22:31:00,
2013-02-15 17:32:00,41.3,36.5,29.92,SW,222,10.0,10.0,83,0.00,,---,0.00,VWS V14.01,2013-02-15 22:32:00,
2013-02-15 17:33:00,41.3,36.8,29.92,SW,220,8.0,12.0,84,0.00,,---,0.00,VWS V14.01,2013-02-15 22:33:00,
2013-02-15 17:34:00,41.3,36.5,29.92,SW,215,9.0,12.0,83,0.00,,---,0.00,VWS V14.01,2013-02-15 22:34:00,
2013-02-15 17:35:00,41.3,36.8,29.93,SW,218,10.0,12.0,84,0.00,,---,0.00,VWS V14.01,2013-02-15 22:35:00,
2013-02-15 17:36:00,41.3,36.8,29.93,SSW,212,10.0,12.0,84,0.00,,---,0.00,VWS V14.01,2013-02-15 22:36:00,
2013-02-15 17:37:00,41.4,36.6,29.92,SSW,213,8.0,12.0,83,0.00,,---,0.00,VWS V14.01,2013-02-15 22:37:00,
2013-02-15 17:38:00,41.4,36.6,29.93,SSW,213,8.0,12.0,83,0.00,,---,0.00,VWS V14.01,2013-02-15 22:38:00,
2013-02-15 17:39:00,41.4,36.6,29.93,SW,218,10.0,12.0,83,0.00,,---,0.00,VWS V14.01,2013-02-15 22:39:00,
2013-02-15 17:40:00,41.4,36.6,29.92,SW,216,10.0,12.0,83,0.00,,---,0.00,VWS V14.01,2013-02-15 22:40:00,
2013-02-15 17:41:00,41.5,36.7,29.92,SW,215,10.0,12.0,83,0.00,,---,0.00,VWS V14.01,2013-02-15 22:41:00,
2013-02-15 17:42:00,41.5,36.7,29.92,SSW,213,7.0,12.0,83,0.00,,---,0.00,VWS V14.01,2013-02-15 22:42:00,
2013-02-15 17:43:00,41.5,36.7,29.92,SSW,212,9.0,12.0,83,0.00,,---,0.00,VWS V14.01,2013-02-15 22:43:00,
2013-02-15 17:44:00,41.5,36.7,29.92,SSW,205,9.0,12.0,83,0.00,,---,0.00,VWS V14.01,2013-02-15 22:44:00,
2013-02-15 17:45:00,41.5,36.7,29.92,SSW,210,8.0,12.0,83,0.00,,---,0.00,VWS V14.01,2013-02-15 22:45:00,
2013-02-15 17:46:00,41.5,36.7,29.92,SSW,213,9.0,12.0,83,0.00,,---,0.00,VWS V14.01,2013-02-15 22:46:00,
2013-02-15 17:47:00,41.5,36.7,29.92,SSW,211,8.0,12.0,83,0.00,,---,0.00,VWS V14.01,2013-02-15 22:47:00,
2013-02-15 17:48:00,41.5,36.7,29.92,SSW,213,8.0,12.0,83,0.00,,---,0.00,VWS V14.01,2013-02-15 22:48:00,
2013-02-15 17:49:00,41.4,36.6,29.92,SSW,213,10.0,12.0,83,0.00,,---,0.00,VWS V14.01,2013-02-15 22:49:00,
2013-02-15 17:50:00,41.4,36.6,29.93,SW,214,11.0,12.0,83,0.00,,---,0.00,VWS V14.01,2013-02-15 22:50:00,
2013-02-15 17:51:00,41.4,36.6,29.93,SSW,213,9.0,12.0,83,0.00,,---,0.00,VWS V14.01,2013-02-15 22:51:00,
2013-02-15 17:52:00,41.3,36.5,29.93,SSW,211,8.0,12.0,83,0.00,,---,0.00,VWS V14.01,2013-02-15 22:52:00,
2013-02-15 17:53:00,41.3,36.5,29.93,SSW,212,8.0,12.0,83,0.00,,---,0.00,VWS V14.01,2013-02-15 22:53:00,
2013-02-15 17:54:00,41.2,36.4,29.93,SSW,211,8.0,12.0,83,0.00,,---,0.00,VWS V14.01,2013-02-15 22:54:00,
2013-02-15 17:55:00,41.2,36.7,29.93,SSW,211,7.0,12.0,84,0.00,,---,0.00,VWS V14.01,2013-02-15 22:55:00,
2013-02-15 17:56:00,41.1,36.6,29.93,SSW,212,7.0,12.0,84,0.00,,---,0.00,VWS V14.01,2013-02-15 22:56:00,
2013-02-15 17:57:00,41.1,36.6,29.93,SSW,210,7.0,12.0,84,0.00,,---,0.00,VWS V14.01,2013-02-15 22:57:00,
2013-02-15 17:58:00,41.0,36.5,29.93,SW,214,8.0,12.0,84,0.00,,---,0.00,VWS V14.01,2013-02-15 22:58:00,
2013-02-15 17:59:00,40.9,36.5,29.93,SSW,212,7.0,12.0,84,0.00,,---,0.00,VWS V14.01,2013-02-15 22:59:00,
2013-02-15 18:00:00,40.9,36.5,29.93,SSW,212,7.0,12.0,84,0.00,,---,0.00,VWS V14.01,2013-02-15 23:00:00,
2013-02-15 18:01:00,40.9,36.5,29.93,SSW,211,7.0,8.0,84,0.00,,---,0.00,VWS V14.01,2013-02-15 23:01:00,
2013-02-15 18:02:00,40.9,36.5,29.93,SSW,213,8.0,10.0,84,0.00,,---,0.00,VWS V14.01,2013-02-15 23:02:00,
2013-02-15 18:03:00,40.9,36.5,29.93,SSW,209,7.0,10.0,84,0.00,,---,0.00,VWS V14.01,2013-02-15 23:03:00,
2013-02-15 18:04:00,40.9,36.5,29.93,SSW,211,7.0,10.0,84,0.00,,---,0.00,VWS V14.01,2013-02-15 23:04:00,
2013-02-15 18:05:00,40.8,36.3,29.93,SSW,211,7.0,10.0,84,0.00,,---,0.00,VWS V14.01,2013-02-15 23:05:00,
2013-02-15 18:06:00,40.8,36.3,29.93,SSW,210,7.0,10.0,84,0.00,,---,0.00,VWS V14.01,2013-02-15 23:06:00,
2013-02-15 18:07:00,40.8,36.3,29.93,SSW,210,7.0,10.0,84,0.00,,---,0.00,VWS V14.01,2013-02-15 23:07:00,
2013-02-15 18:08:00,40.8,36.3,29.93,SSW,205,6.0,10.0,84,0.00,,---,0.00,VWS V14.01,2013-02-15 23:08:00,
2013-02-15 18:09:00,40.8,36.3,29.93,SSW,210,7.0,10.0,84,0.00,,---,0.00,VWS V14.01,2013-02-15 23:09:00,
2013-02-15 18:10:00,40.8,36.3,29.93,SSW,209,7.0,10.0,84,0.00,,---,0.00,VWS V14.01,2013-02-15 23:10:00,
2013-02-15 18:11:00,40.7,36.2,29.93,SSW,207,7.0,10.0,84,0.00,,---,0.00,VWS V14.01,2013-02-15 23:11:00,
2013-02-15 18:12:00,40.7,36.2,29.93,SSW,208,7.0,10.0,84,0.00,,---,0.00,VWS V14.01,2013-02-15 23:12:00,
2013-02-15 18:13:00,40.7,36.2,29.93,SSW,208,5.0,10.0,84,0.00,,---,0.00,VWS V14.01,2013-02-15 23:13:00,
2013-02-15 18:14:00,40.6,36.2,29.92,SSW,207,7.0,10.0,84,0.00,,---,0.00,VWS V14.01,2013-02-15 23:14:00,
2013-02-15 18:15:00,40.6,36.5,29.93,SSW,207,6.0,10.0,85,0.00,,---,0.00,VWS V14.01,2013-02-15 23:15:00,
2013-02-15 18:16:00,40.6,36.5,29.93,SSW,207,6.0,10.0,85,0.00,,---,0.00,VWS V14.01,2013-02-15 23:16:00,
2013-02-15 18:17:00,40.6,36.5,29.93,SSW,205,4.0,10.0,85,0.00,,---,0.00,VWS V14.01,2013-02-15 23:17:00,
2013-02-15 18:18:00,40.6,36.5,29.93,SSW,206,7.0,10.0,85,0.00,,---,0.00,VWS V14.01,2013-02-15 23:18:00,
2013-02-15 18:19:00,40.5,36.3,29.93,SSW,206,6.0,10.0,85,0.00,,---,0.00,VWS V14.01,2013-02-15 23:19:00,
2013-02-15 18:20:00,40.5,36.3,29.93,SSW,207,5.0,10.0,85,0.00,,---,0.00,VWS V14.01,2013-02-15 23:20:00,
2013-02-15 18:21:00,40.5,36.3,29.93,SSW,205,5.0,10.0,85,0.00,,---,0.00,VWS V14.01,2013-02-15 23:21:00,
2013-02-15 18:22:00,40.5,36.3,29.93,SSW,206,6.0,10.0,85,0.00,,---,0.00,VWS V14.01,2013-02-15 23:22:00,
2013-02-15 18:23:00,40.5,36.3,29.93,SSW,207,6.0,10.0,85,0.00,,---,0.00,VWS V14.01,2013-02-15 23:23:00,
2013-02-15 18:24:00,40.5,36.3,29.93,SSW,203,4.0,10.0,85,0.00,,---,0.00,VWS V14.01,2013-02-15 23:24:00,
2013-02-15 18:25:00,40.5,36.3,29.93,SSW,205,6.0,10.0,85,0.00,,---,0.00,VWS V14.01,2013-02-15 23:25:00,
2013-02-15 18:26:00,40.4,36.3,29.93,SSW,204,5.0,10.0,85,0.00,,---,0.00,VWS V14.01,2013-02-15 23:26:00,
2013-02-15 18:27:00,40.4,36.3,29.93,SSW,202,5.0,10.0,85,0.00,,---,0.00,VWS V14.01,2013-02-15 23:27:00,
2013-02-15 18:28:00,40.4,36.3,29.93,SSW,202,7.0,10.0,85,0.00,,---,0.00,VWS V14.01,2013-02-15 23:28:00,
2013-02-15 18:29:00,40.4,36.3,29.93,SSW,202,7.0,10.0,85,0.00,,---,0.00,VWS V14.01,2013-02-15 23:29:00,
2013-02-15 18:30:00,40.4,36.3,29.93,SSW,202,6.0,10.0,85,0.00,,---,0.00,VWS V14.01,2013-02-15 23:30:00,
2013-02-15 18:31:00,40.4,36.3,29.93,SSW,205,5.0,6.0,85,0.00,,---,0.00,VWS V14.01,2013-02-15 23:31:00,
2013-02-15 18:32:00,40.3,36.2,29.93,SSW,205,5.0,6.0,85,0.00,,---,0.00,VWS V14.01,2013-02-15 23:32:00,
2013-02-15 18:33:00,40.3,36.2,29.93,SSW,205,6.0,7.0,85,0.00,,---,0.00,VWS V14.01,2013-02-15 23:33:00,
2013-02-15 18:34:00,40.2,36.1,29.93,SSW,205,4.0,7.0,85,0.00,,---,0.00,VWS V14.01,2013-02-15 23:34:00,
2013-02-15 18:35:00,40.2,36.1,29.93,SSW,205,5.0,7.0,85,0.00,,---,0.00,VWS V14.01,2013-02-15 23:35:00,
2013-02-15 18:36:00,40.2,36.1,29.94,SSW,204,6.0,7.0,85,0.00,,---,0.00,VWS V14.01,2013-02-15 23:36:00,
2013-02-15 18:37:00,40.2,36.1,29.94,SSW,205,5.0,7.0,85,0.00,,---,0.00,VWS V14.01,2013-02-15 23:37:00,
2013-02-15 18:38:00,40.2,36.1,29.94,SSW,202,6.0,7.0,85,0.00,,---,0.00,VWS V14.01,2013-02-15 23:38:00,
2013-02-15 18:39:00,40.1,36.0,29.94,SSW,202,5.0,7.0,85,0.00,,---,0.00,VWS V14.01,2013-02-15 23:39:00,
2013-02-15 18:40:00,40.1,36.0,29.94,SSW,203,6.0,7.0,85,0.00,,---,0.00,VWS V14.01,2013-02-15 23:40:00,
2013-02-15 18:41:00,40.1,36.0,29.94,SSW,203,6.0,7.0,85,0.00,,---,0.00,VWS V14.01,2013-02-15 23:41:00,
2013-02-15 18:42:00,40.1,36.0,29.94,SSW,203,5.0,7.0,85,0.00,,---,0.00,VWS V14.01,2013-02-15 23:42:00,
2013-02-15 18:43:00,40.1,36.0,29.94,SSW,202,5.0,7.0,85,0.00,,---,0.00,VWS V14.01,2013-02-15 23:43:00,
2013-02-15 18:44:00,40.0,35.9,29.94,SSW,202,5.0,7.0,85,0.00,,---,0.00,VWS V14.01,2013-02-15 23:44:00,
2013-02-15 18:45:00,40.0,35.9,29.94,SSW,202,7.0,7.0,85,0.00,,---,0.00,VWS V14.01,2013-02-15 23:45:00,
2013-02-15 18:46:00,40.0,35.9,29.93,SSW,203,5.0,7.0,85,0.00,,---,0.00,VWS V14.01,2013-02-15 23:46:00,
2013-02-15 18:47:00,40.0,35.9,29.93,SSW,201,5.0,7.0,85,0.00,,---,0.00,VWS V14.01,2013-02-15 23:47:00,
2013-02-15 18:48:00,40.0,35.9,29.93,SSW,201,6.0,7.0,85,0.00,,---,0.00,VWS V14.01,2013-02-15 23:48:00,
2013-02-15 18:49:00,40.0,35.9,29.93,SSW,201,6.0,7.0,85,0.00,,---,0.00,VWS V14.01,2013-02-15 23:49:00,
2013-02-15 18:50:00,40.0,35.9,29.93,SSW,201,6.0,7.0,85,0.00,,---,0.00,VWS V14.01,2013-02-15 23:50:00,
2013-02-15 18:51:00,40.0,35.9,29.93,SSW,200,6.0,7.0,85,0.00,,---,0.00,VWS V14.01,2013-02-15 23:51:00,
2013-02-15 18:52:00,40.0,35.9,29.94,SSW,200,6.0,7.0,85,0.00,,---,0.00,VWS V14.01,2013-02-15 23:52:00,
2013-02-15 18:53:00,40.1,36.0,29.93,SSW,200,7.0,7.0,85,0.00,,---,0.00,VWS V14.01,2013-02-15 23:53:00,
2013-02-15 18:54:00,40.1,36.0,29.94,SSW,198,6.0,7.0,85,0.00,,---,0.00,VWS V14.01,2013-02-15 23:54:00,
2013-02-15 18:55:00,40.1,36.0,29.94,SSW,198,7.0,7.0,85,0.00,,---,0.00,VWS V14.01,2013-02-15 23:55:00,
2013-02-15 18:56:00,40.1,36.0,29.94,South,191,7.0,7.0,85,0.00,,---,0.00,VWS V14.01,2013-02-15 23:56:00,
2013-02-15 18:57:00,40.1,36.0,29.94,SSW,194,6.0,8.0,85,0.00,,---,0.00,VWS V14.01,2013-02-15 23:57:00,
2013-02-15 18:58:00,40.1,36.0,29.94,SSW,194,7.0,8.0,85,0.00,,---,0.00,VWS V14.01,2013-02-15 23:58:00,
2013-02-15 18:59:00,40.1,36.0,29.94,SSW,194,7.0,8.0,85,0.00,,---,0.00,VWS V14.01,2013-02-15 23:59:00,
2013-02-15 19:00:00,40.1,36.0,29.94,SSW,192,7.0,8.0,85,0.00,,---,0.00,VWS V14.01,2013-02-16 00:00:00,
2013-02-15 19:01:00,40.2,36.1,29.94,SSW,192,7.0,8.0,85,0.00,,---,0.00,VWS V14.01,2013-02-16 00:01:00,
2013-02-15 19:02:00,40.2,36.1,29.94,South,188,9.0,9.0,85,0.00,,---,0.00,VWS V14.01,2013-02-16 00:02:00,
2013-02-15 19:03:00,40.2,36.1,29.94,South,190,8.0,9.0,85,0.00,,---,0.00,VWS V14.01,2013-02-16 00:03:00,
2013-02-15 19:04:00,40.2,36.1,29.94,SSW,192,7.0,9.0,85,0.00,,---,0.00,VWS V14.01,2013-02-16 00:04:00,
2013-02-15 19:05:00,40.2,36.1,29.94,South,188,8.0,9.0,85,0.00,,---,0.00,VWS V14.01,2013-02-16 00:05:00,
2013-02-15 19:06:00,40.2,36.1,29.94,South,188,8.0,9.0,85,0.00,,---,0.00,VWS V14.01,2013-02-16 00:06:00,
2013-02-15 19:07:00,40.3,36.2,29.94,South,180,6.0,9.0,85,0.00,,---,0.00,VWS V14.01,2013-02-16 00:07:00,
2013-02-15 19:08:00,40.3,36.2,29.94,South,175,6.0,9.0,85,0.00,,---,0.00,VWS V14.01,2013-02-16 00:08:00,
2013-02-15 19:09:00,40.3,36.2,29.94,SSW,193,7.0,9.0,85,0.00,,---,0.00,VWS V14.01,2013-02-16 00:09:00,
2013-02-15 19:10:00,40.3,36.2,29.94,South,191,8.0,9.0,85,0.00,,---,0.00,VWS V14.01,2013-02-16 00:10:00,
2013-02-15 19:11:00,40.3,36.2,29.94,SSW,194,7.0,9.0,85,0.00,,---,0.00,VWS V14.01,2013-02-16 00:11:00,
2013-02-15 19:12:00,40.4,36.3,29.94,SSW,192,7.0,9.0,85,0.00,,---,0.00,VWS V14.01,2013-02-16 00:12:00,
2013-02-15 19:13:00,40.4,36.3,29.94,SSW,192,7.0,9.0,85,0.00,,---,0.00,VWS V14.01,2013-02-16 00:13:00,
2013-02-15 19:14:00,40.4,36.3,29.94,South,190,6.0,9.0,85,0.00,,---,0.00,VWS V14.01,2013-02-16 00:14:00,
2013-02-15 19:15:00,40.4,36.3,29.94,South,181,5.0,9.0,85,0.00,,---,0.00,VWS V14.01,2013-02-16 00:15:00,
2013-02-15 19:16:00,40.4,36.3,29.94,South,186,5.0,9.0,85,0.00,,---,0.00,VWS V14.01,2013-02-16 00:16:00,
2013-02-15 19:17:00,40.4,36.3,29.94,South,186,5.0,9.0,85,0.00,,---,0.00,VWS V14.01,2013-02-16 00:17:00,
2013-02-15 19:18:00,40.4,36.3,29.94,South,178,6.0,9.0,85,0.00,,---,0.00,VWS V14.01,2013-02-16 00:18:00,
2013-02-15 19:19:00,40.3,36.2,29.94,South,187,5.0,9.0,85,0.00,,---,0.00,VWS V14.01,2013-02-16 00:19:00,
2013-02-15 19:20:00,40.3,36.2,29.94,SSW,194,7.0,9.0,85,0.00,,---,0.00,VWS V14.01,2013-02-16 00:20:00,
2013-02-15 19:21:00,40.4,36.3,29.94,SSW,194,7.0,9.0,85,0.00,,---,0.00,VWS V14.01,2013-02-16 00:21:00,
2013-02-15 19:22:00,40.4,36.3,29.94,SSW,194,7.0,9.0,85,0.00,,---,0.00,VWS V14.01,2013-02-16 00:22:00,
2013-02-15 19:23:00,40.4,36.3,29.94,SSW,196,6.0,9.0,85,0.00,,---,0.00,VWS V14.01,2013-02-16 00:23:00,
2013-02-15 19:24:00,40.4,36.3,29.94,SSW,196,6.0,9.0,85,0.00,,---,0.00,VWS V14.01,2013-02-16 00:24:00,
2013-02-15 19:25:00,40.3,36.2,29.94,SSW,196,6.0,9.0,85,0.00,,---,0.00,VWS V14.01,2013-02-16 00:25:00,
2013-02-15 19:26:00,40.3,36.2,29.94,SSW,197,6.0,9.0,85,0.00,,---,0.00,VWS V14.01,2013-02-16 00:26:00,
2013-02-15 19:27:00,40.3,36.2,29.94,SSW,194,7.0,9.0,85,0.00,,---,0.00,VWS V14.01,2013-02-16 00:27:00,
2013-02-15 19:28:00,40.3,36.2,29.94,SSW,196,7.0,9.0,85,0.00,,---,0.00,VWS V14.01,2013-02-16 00:28:00,
2013-02-15 19:29:00,40.2,36.1,29.94,SSW,196,7.0,9.0,85,0.00,,---,0.00,VWS V14.01,2013-02-16 00:29:00,
2013-02-15 19:30:00,40.2,36.1,29.94,SSW,197,7.0,9.0,85,0.00,,---,0.00,VWS V14.01,2013-02-16 00:30:00,
2013-02-15 19:31:00,40.2,36.1,29.94,SSW,198,7.0,8.0,85,0.00,,---,0.00,VWS V14.01,2013-02-16 00:31:00,
2013-02-15 19:32:00,40.1,36.0,29.94,SSW,199,7.0,8.0,85,0.00,,---,0.00,VWS V14.01,2013-02-16 00:32:00,
2013-02-15 19:33:00,40.1,36.0,29.94,SSW,200,6.0,8.0,85,0.00,,---,0.00,VWS V14.01,2013-02-16 00:33:00,
2013-02-15 19:34:00,40.1,36.0,29.94,SSW,201,7.0,8.0,85,0.00,,---,0.00,VWS V14.01,2013-02-16 00:34:00,
2013-02-15 19:35:00,40.1,36.0,29.94,SSW,200,7.0,8.0,85,0.00,,---,0.00,VWS V14.01,2013-02-16 00:35:00,
2013-02-15 19:36:00,40.0,35.9,29.94,SSW,197,6.0,8.0,85,0.00,,---,0.00,VWS V14.01,2013-02-16 00:36:00,
2013-02-15 19:37:00,40.0,35.9,29.94,SSW,198,7.0,8.0,85,0.00,,---,0.00,VWS V14.01,2013-02-16 00:37:00,
2013-02-15 19:38:00,40.0,35.9,29.94,SSW,197,7.0,8.0,85,0.00,,---,0.00,VWS V14.01,2013-02-16 00:38:00,
2013-02-15 19:39:00,40.0,35.9,29.94,SSW,203,7.0,8.0,85,0.00,,---,0.00,VWS V14.01,2013-02-16 00:39:00,
2013-02-15 19:40:00,39.9,35.8,29.94,SSW,200,7.0,8.0,85,0.00,,---,0.00,VWS V14.01,2013-02-16 00:40:00,
2013-02-15 19:41:00,39.9,35.8,29.94,SSW,203,5.0,8.0,85,0.00,,---,0.00,VWS V14.01,2013-02-16 00:41:00,
2013-02-15 19:42:00,39.9,35.8,29.94,SSW,204,2.0,8.0,85,0.00,,---,0.00,VWS V14.01,2013-02-16 00:42:00,
2013-02-15 19:43:00,39.8,35.7,29.94,SSW,205,3.0,8.0,85,0.00,,---,0.00,VWS V14.01,2013-02-16 00:43:00,
2013-02-15 19:44:00,39.8,35.7,29.94,WSW,250,3.0,8.0,85,0.00,,---,0.00,VWS V14.01,2013-02-16 00:44:00,
2013-02-15 19:45:00,39.8,35.7,29.95,West,281,4.0,8.0,85,0.00,,---,0.00,VWS V14.01,2013-02-16 00:45:00,
2013-02-15 19:46:00,39.7,35.6,29.95,WNW,301,4.0,8.0,85,0.00,,---,0.00,VWS V14.01,2013-02-16 00:46:00,
2013-02-15 19:47:00,39.7,35.9,29.95,WNW,302,4.0,8.0,86,0.00,,---,0.00,VWS V14.01,2013-02-16 00:47:00,
2013-02-15 19:48:00,39.7,35.9,29.95,WNW,302,4.0,8.0,86,0.00,,---,0.00,VWS V14.01,2013-02-16 00:48:00,
2013-02-15 19:49:00,39.7,35.9,29.94,SW,235,4.0,8.0,86,0.00,,---,0.00,VWS V14.01,2013-02-16 00:49:00,
2013-02-15 19:50:00,39.7,35.9,29.94,SW,216,5.0,8.0,86,0.00,,---,0.00,VWS V14.01,2013-02-16 00:50:00,
2013-02-15 19:51:00,39.8,36.0,29.94,SW,219,5.0,8.0,86,0.00,,---,0.00,VWS V14.01,2013-02-16 00:51:00,
2013-02-15 19:52:00,39.8,36.0,29.95,SW,219,4.0,8.0,86,0.00,,---,0.00,VWS V14.01,2013-02-16 00:52:00,
2013-02-15 19:53:00,39.9,36.1,29.95,SW,219,4.0,8.0,86,0.00,,---,0.00,VWS V14.01,2013-02-16 00:53:00,
2013-02-15 19:54:00,39.9,36.1,29.95,SW,220,4.0,8.0,86,0.00,,---,0.00,VWS V14.01,2013-02-16 00:54:00,
2013-02-15 19:55:00,40.0,36.2,29.95,SW,221,6.0,8.0,86,0.00,,---,0.00,VWS V14.01,2013-02-16 00:55:00,
2013-02-15 19:56:00,40.0,36.2,29.95,SW,221,4.0,8.0,86,0.00,,---,0.00,VWS V14.01,2013-02-16 00:56:00,
2013-02-15 19:57:00,40.1,36.3,29.94,SW,220,4.0,8.0,86,0.00,,---,0.00,VWS V14.01,2013-02-16 00:57:00,
2013-02-15 19:58:00,40.1,36.3,29.94,SW,219,4.0,8.0,86,0.00,,---,0.00,VWS V14.01,2013-02-16 00:58:00,
2013-02-15 19:59:00,40.1,36.3,29.95,SW,219,6.0,8.0,86,0.00,,---,0.00,VWS V14.01,2013-02-16 00:59:00,
2013-02-15 20:00:00,40.1,36.3,29.95,SW,219,6.0,8.0,86,0.00,,---,0.00,VWS V14.01,2013-02-16 01:00:00,
2013-02-15 20:01:00,40.1,36.3,29.95,SW,219,5.0,6.0,86,0.00,,---,0.00,VWS V14.01,2013-02-16 01:01:00,
2013-02-15 20:02:00,40.1,36.3,29.95,SW,219,6.0,7.0,86,0.00,,---,0.00,VWS V14.01,2013-02-16 01:02:00,
2013-02-15 20:03:00,40.1,36.0,29.95,SW,216,5.0,7.0,85,0.00,,---,0.00,VWS V14.01,2013-02-16 01:03:00,
2013-02-15 20:04:00,40.1,36.0,29.95,SW,216,4.0,7.0,85,0.00,,---,0.00,VWS V14.01,2013-02-16 01:04:00,
2013-02-15 20:05:00,40.1,36.3,29.95,SW,217,4.0,7.0,86,0.00,,---,0.00,VWS V14.01,2013-02-16 01:05:00,
2013-02-15 20:06:00,40.1,36.0,29.95,SW,217,4.0,7.0,85,0.00,,---,0.00,VWS V14.01,2013-02-16 01:06:00,
2013-02-15 20:07:00,40.2,36.1,29.95,SW,217,2.0,7.0,85,0.00,,---,0.00,VWS V14.01,2013-02-16 01:07:00,
2013-02-15 20:08:00,40.2,36.1,29.95,SW,217,3.0,7.0,85,0.00,,---,0.00,VWS V14.01,2013-02-16 01:08:00,
2013-02-15 20:09:00,40.2,36.1,29.95,SW,217,2.0,7.0,85,0.00,,---,0.00,VWS V14.01,2013-02-16 01:09:00,
2013-02-15 20:10:00,40.2,36.1,29.94,SW,217,0.0,7.0,85,0.00,,---,0.00,VWS V14.01,2013-02-16 01:10:00,
2013-02-15 20:11:00,40.2,36.1,29.95,SW,217,0.0,7.0,85,0.00,,---,0.00,VWS V14.01,2013-02-16 01:11:00,
2013-02-15 20:12:00,40.2,36.1,29.95,SW,217,0.0,7.0,85,0.00,,---,0.00,VWS V14.01,2013-02-16 01:12:00,
2013-02-15 20:13:00,40.2,36.1,29.95,SW,217,0.0,7.0,85,0.00,,---,0.00,VWS V14.01,2013-02-16 01:13:00,
2013-02-15 20:14:00,40.1,36.0,29.95,SW,217,0.0,7.0,85,0.00,,---,0.00,VWS V14.01,2013-02-16 01:14:00,
2013-02-15 20:15:00,40.1,36.0,29.95,SW,217,0.0,7.0,85,0.00,,---,0.00,VWS V14.01,2013-02-16 01:15:00,
2013-02-15 20:16:00,40.1,36.0,29.95,SW,217,0.0,7.0,85,0.00,,---,0.00,VWS V14.01,2013-02-16 01:16:00,
2013-02-15 20:17:00,40.1,36.0,29.95,SW,217,0.0,7.0,85,0.00,,---,0.00,VWS V14.01,2013-02-16 01:17:00,
2013-02-15 20:18:00,40.0,35.9,29.95,SW,217,0.0,7.0,85,0.00,,---,0.00,VWS V14.01,2013-02-16 01:18:00,
2013-02-15 20:19:00,40.0,35.9,29.95,SW,217,0.0,7.0,85,0.00,,---,0.00,VWS V14.01,2013-02-16 01:19:00,
2013-02-15 20:20:00,40.0,35.9,29.95,SW,217,0.0,7.0,85,0.00,,---,0.00,VWS V14.01,2013-02-16 01:20:00,
2013-02-15 20:21:00,40.0,35.9,29.95,SW,217,0.0,7.0,85,0.00,,---,0.00,VWS V14.01,2013-02-16 01:21:00,
2013-02-15 20:22:00,40.0,35.9,29.95,SW,217,0.0,7.0,85,0.00,,---,0.00,VWS V14.01,2013-02-16 01:22:00,
2013-02-15 20:23:00,39.9,35.8,29.95,SW,217,0.0,7.0,85,0.00,,---,0.00,VWS V14.01,2013-02-16 01:23:00,
2013-02-15 20:24:00,39.9,35.8,29.95,SW,217,0.0,7.0,85,0.00,,---,0.00,VWS V14.01,2013-02-16 01:24:00,
2013-02-15 20:25:00,39.9,35.8,29.95,SW,217,0.0,7.0,85,0.00,,---,0.00,VWS V14.01,2013-02-16 01:25:00,
2013-02-15 20:26:00,39.9,35.8,29.95,SW,216,0.0,7.0,85,0.00,,---,0.00,VWS V14.01,2013-02-16 01:26:00,
2013-02-15 20:27:00,39.9,35.8,29.95,SSW,205,0.0,7.0,85,0.00,,---,0.00,VWS V14.01,2013-02-16 01:27:00,
2013-02-15 20:28:00,39.9,35.8,29.95,SSW,193,0.0,7.0,85,0.00,,---,0.00,VWS V14.01,2013-02-16 01:28:00,
2013-02-15 20:29:00,39.9,35.8,29.95,South,176,3.0,7.0,85,0.00,,---,0.00,VWS V14.01,2013-02-16 01:29:00,
2013-02-15 20:30:00,39.8,35.7,29.95,South,169,2.0,7.0,85,0.00,,---,0.00,VWS V14.01,2013-02-16 01:30:00,
2013-02-15 20:31:00,39.8,35.7,29.95,South,169,0.0,2.0,85,0.00,,---,0.00,VWS V14.01,2013-02-16 01:31:00,
2013-02-15 20:32:00,39.8,35.7,29.95,South,169,3.0,3.0,85,0.00,,---,0.00,VWS V14.01,2013-02-16 01:32:00,
2013-02-15 20:33:00,39.8,35.7,29.95,South,169,0.0,3.0,85,0.00,,---,0.00,VWS V14.01,2013-02-16 01:33:00,
2013-02-15 20:34:00,39.8,35.7,29.95,South,169,0.0,3.0,85,0.00,,---,0.00,VWS V14.01,2013-02-16 01:34:00,
2013-02-15 20:35:00,39.7,35.6,29.95,South,169,2.0,3.0,85,0.00,,---,0.00,VWS V14.01,2013-02-16 01:35:00,
2013-02-15 20:36:00,39.7,35.6,29.95,South,169,3.0,3.0,85,0.00,,---,0.00,VWS V14.01,2013-02-16 01:36:00,
2013-02-15 20:37:00,39.7,35.6,29.95,South,169,0.0,3.0,85,0.00,,---,0.00,VWS V14.01,2013-02-16 01:37:00,
2013-02-15 20:38:00,39.8,35.7,29.95,South,169,0.0,3.0,85,0.00,,---,0.00,VWS V14.01,2013-02-16 01:38:00,
2013-02-15 20:39:00,39.8,35.7,29.95,South,169,0.0,3.0,85,0.00,,---,0.00,VWS V14.01,2013-02-16 01:39:00,
2013-02-15 20:40:00,39.8,35.7,29.95,South,169,0.0,3.0,85,0.00,,---,0.00,VWS V14.01,2013-02-16 01:40:00,
2013-02-15 20:41:00,39.8,36.0,29.95,South,169,0.0,3.0,86,0.00,,---,0.00,VWS V14.01,2013-02-16 01:41:00,
2013-02-15 20:42:00,39.9,36.1,29.95,South,169,0.0,3.0,86,0.00,,---,0.00,VWS V14.01,2013-02-16 01:42:00,
2013-02-15 20:43:00,40.0,36.2,29.95,South,169,0.0,3.0,86,0.00,,---,0.00,VWS V14.01,2013-02-16 01:43:00,
2013-02-15 20:44:00,40.0,35.9,29.95,South,169,0.0,3.0,85,0.00,,---,0.00,VWS V14.01,2013-02-16 01:44:00,
2013-02-15 20:45:00,40.1,36.0,29.95,South,169,0.0,3.0,85,0.00,,---,0.00,VWS V14.01,2013-02-16 01:45:00,
2013-02-15 20:46:00,40.1,36.3,29.95,South,169,0.0,3.0,86,0.00,,---,0.00,VWS V14.01,2013-02-16 01:46:00,
2013-02-15 20:47:00,40.1,36.0,29.95,South,169,0.0,3.0,85,0.00,,---,0.00,VWS V14.01,2013-02-16 01:47:00,
2013-02-15 20:48:00,40.2,36.1,29.94,South,169,0.0,3.0,85,0.00,,---,0.00,VWS V14.01,2013-02-16 01:48:00,
2013-02-15 20:49:00,40.2,36.1,29.95,South,169,0.0,3.0,85,0.00,,---,0.00,VWS V14.01,2013-02-16 01:49:00,
2013-02-15 20:50:00,40.2,36.1,29.95,South,170,5.0,5.0,85,0.00,,---,0.00,VWS V14.01,2013-02-16 01:50:00,
2013-02-15 20:51:00,40.2,36.1,29.95,South,171,4.0,5.0,85,0.00,,---,0.00,VWS V14.01,2013-02-16 01:51:00,
2013-02-15 20:52:00,40.2,36.1,29.95,South,174,5.0,5.0,85,0.00,,---,0.00,VWS V14.01,2013-02-16 01:52:00,
2013-02-15 20:53:00,40.2,36.1,29.95,South,175,5.0,5.0,85,0.00,,---,0.00,VWS V14.01,2013-02-16 01:53:00,
2013-02-15 20:54:00,40.2,36.1,29.95,South,176,5.0,6.0,85,0.00,,---,0.00,VWS V14.01,2013-02-16 01:54:00,
2013-02-15 20:55:00,40.2,36.1,29.95,South,176,4.0,6.0,85,0.00,,---,0.00,VWS V14.01,2013-02-16 01:55:00,
2013-02-15 20:56:00,40.2,36.1,29.95,South,176,3.0,6.0,85,0.00,,---,0.00,VWS V14.01,2013-02-16 01:56:00,
2013-02-15 20:57:00,40.2,36.1,29.95,South,176,4.0,6.0,85,0.00,,---,0.00,VWS V14.01,2013-02-16 01:57:00,
2013-02-15 20:58:00,40.2,36.1,29.95,South,176,2.0,6.0,85,0.00,,---,0.00,VWS V14.01,2013-02-16 01:58:00,
2013-02-15 20:59:00,40.1,36.0,29.94,South,176,5.0,6.0,85,0.00,,---,0.00,VWS V14.01,2013-02-16 01:59:00,
2013-02-15 21:00:00,40.1,36.0,29.95,South,180,6.0,6.0,85,0.00,,---,0.00,VWS V14.01,2013-02-16 02:00:00,
2013-02-15 21:01:00,40.1,36.0,29.94,South,182,5.0,6.0,85,0.00,,---,0.00,VWS V14.01,2013-02-16 02:01:00,
2013-02-15 21:02:00,40.1,36.0,29.94,South,184,5.0,6.0,85,0.00,,---,0.00,VWS V14.01,2013-02-16 02:02:00,
2013-02-15 21:03:00,40.1,36.0,29.94,South,185,4.0,6.0,85,0.00,,---,0.00,VWS V14.01,2013-02-16 02:03:00,
2013-02-15 21:04:00,40.1,36.0,29.94,South,186,4.0,6.0,85,0.00,,---,0.00,VWS V14.01,2013-02-16 02:04:00,
2013-02-15 21:05:00,40.1,36.0,29.94,South,186,4.0,6.0,85,0.00,,---,0.00,VWS V14.01,2013-02-16 02:05:00,
2013-02-15 21:06:00,40.1,36.0,29.94,South,186,3.0,6.0,85,0.00,,---,0.00,VWS V14.01,2013-02-16 02:06:00,
2013-02-15 21:07:00,40.1,36.0,29.94,South,186,3.0,6.0,85,0.00,,---,0.00,VWS V14.01,2013-02-16 02:07:00,
2013-02-15 21:08:00,40.1,36.0,29.94,South,186,3.0,6.0,85,0.00,,---,0.00,VWS V14.01,2013-02-16 02:08:00,
2013-02-15 21:09:00,40.0,35.9,29.94,South,186,4.0,6.0,85,0.00,,---,0.00,VWS V14.01,2013-02-16 02:09:00,
2013-02-15 21:10:00,40.0,35.9,29.94,South,186,3.0,6.0,85,0.00,,---,0.00,VWS V14.01,2013-02-16 02:10:00,
2013-02-15 21:11:00,40.0,35.9,29.94,South,186,3.0,6.0,85,0.00,,---,0.00,VWS V14.01,2013-02-16 02:11:00,
2013-02-15 21:12:00,40.0,35.9,29.94,South,186,3.0,6.0,85,0.00,,---,0.00,VWS V14.01,2013-02-16 02:12:00,
2013-02-15 21:13:00,39.9,35.8,29.94,South,186,4.0,6.0,85,0.00,,---,0.00,VWS V14.01,2013-02-16 02:13:00,
2013-02-15 21:14:00,39.9,35.8,29.94,South,186,2.0,6.0,85,0.00,,---,0.00,VWS V14.01,2013-02-16 02:14:00,
2013-02-15 21:15:00,39.8,35.7,29.94,South,186,3.0,6.0,85,0.00,,---,0.00,VWS V14.01,2013-02-16 02:15:00,
2013-02-15 21:16:00,39.8,35.7,29.94,South,186,3.0,6.0,85,0.00,,---,0.00,VWS V14.01,2013-02-16 02:16:00,
2013-02-15 21:17:00,39.8,36.0,29.94,South,186,6.0,6.0,86,0.00,,---,0.00,VWS V14.01,2013-02-16 02:17:00,
2013-02-15 21:18:00,39.7,35.9,29.94,South,188,6.0,7.0,86,0.00,,---,0.00,VWS V14.01,2013-02-16 02:18:00,
2013-02-15 21:19:00,39.7,35.9,29.94,South,190,6.0,7.0,86,0.00,,---,0.00,VWS V14.01,2013-02-16 02:19:00,
2013-02-15 21:20:00,39.6,35.8,29.94,SSW,193,5.0,7.0,86,0.00,,---,0.00,VWS V14.01,2013-02-16 02:20:00,
2013-02-15 21:21:00,39.6,35.8,29.94,SSW,194,6.0,7.0,86,0.00,,---,0.00,VWS V14.01,2013-02-16 02:21:00,
2013-02-15 21:22:00,39.6,35.8,29.94,SSW,197,7.0,7.0,86,0.00,,---,0.00,VWS V14.01,2013-02-16 02:22:00,
2013-02-15 21:23:00,39.5,35.7,29.94,SSW,198,5.0,7.0,86,0.00,,---,0.00,VWS V14.01,2013-02-16 02:23:00,
2013-02-15 21:24:00,39.5,35.7,29.94,SSW,197,5.0,7.0,86,0.00,,---,0.00,VWS V14.01,2013-02-16 02:24:00,
2013-02-15 21:25:00,39.5,35.7,29.94,SSW,197,6.0,7.0,86,0.00,,---,0.00,VWS V14.01,2013-02-16 02:25:00,
2013-02-15 21:26:00,39.4,35.6,29.94,SSW,197,5.0,7.0,86,0.00,,---,0.00,VWS V14.01,2013-02-16 02:26:00,
2013-02-15 21:27:00,39.4,35.6,29.94,SSW,197,5.0,7.0,86,0.00,,---,0.00,VWS V14.01,2013-02-16 02:27:00,
2013-02-15 21:28:00,39.4,35.6,29.94,SSW,197,4.0,7.0,86,0.00,,---,0.00,VWS V14.01,2013-02-16 02:28:00,
2013-02-15 21:29:00,39.3,35.5,29.94,SSW,197,4.0,7.0,86,0.00,,---,0.00,VWS V14.01,2013-02-16 02:29:00,
2013-02-15 21:30:00,39.3,35.5,29.94,SSW,197,4.0,7.0,86,0.00,,---,0.00,VWS V14.01,2013-02-16 02:30:00,
2013-02-15 21:31:00,39.3,35.5,29.94,SSW,197,3.0,4.0,86,0.00,,---,0.00,VWS V14.01,2013-02-16 02:31:00,
2013-02-15 21:32:00,39.3,35.5,29.94,SSW,198,0.0,4.0,86,0.00,,---,0.00,VWS V14.01,2013-02-16 02:32:00,
2013-02-15 21:33:00,39.2,35.4,29.94,SSW,197,0.0,4.0,86,0.00,,---,0.00,VWS V14.01,2013-02-16 02:33:00,
2013-02-15 21:34:00,39.2,35.4,29.94,SSW,197,0.0,4.0,86,0.00,,---,0.00,VWS V14.01,2013-02-16 02:34:00,
2013-02-15 21:35:00,39.2,35.4,29.94,SSW,197,0.0,4.0,86,0.00,,---,0.00,VWS V14.01,2013-02-16 02:35:00,
2013-02-15 21:36:00,39.1,35.3,29.94,SSW,197,0.0,4.0,86,0.00,,---,0.00,VWS V14.01,2013-02-16 02:36:00,
2013-02-15 21:37:00,39.1,35.3,29.94,SSW,197,0.0,4.0,86,0.00,,---,0.00,VWS V14.01,2013-02-16 02:37:00,
2013-02-15 21:38:00,39.1,35.3,29.94,SSW,197,0.0,4.0,86,0.00,,---,0.00,VWS V14.01,2013-02-16 02:38:00,
2013-02-15 21:39:00,39.0,35.2,29.94,SSW,197,0.0,4.0,86,0.00,,---,0.00,VWS V14.01,2013-02-16 02:39:00,
2013-02-15 21:40:00,39.0,35.2,29.94,SSW,197,0.0,4.0,86,0.00,,---,0.00,VWS V14.01,2013-02-16 02:40:00,
2013-02-15 21:41:00,39.0,35.2,29.94,SSW,197,0.0,4.0,86,0.00,,---,0.00,VWS V14.01,2013-02-16 02:41:00,
2013-02-15 21:42:00,38.9,35.1,29.94,SSW,197,0.0,4.0,86,0.00,,---,0.00,VWS V14.01,2013-02-16 02:42:00,
2013-02-15 21:43:00,38.9,35.4,29.94,SSW,197,0.0,4.0,87,0.00,,---,0.00,VWS V14.01,2013-02-16 02:43:00,
2013-02-15 21:44:00,38.9,35.4,29.94,SSW,197,0.0,4.0,87,0.00,,---,0.00,VWS V14.01,2013-02-16 02:44:00,
2013-02-15 21:45:00,38.9,35.4,29.94,SSW,197,0.0,4.0,87,0.00,,---,0.00,VWS V14.01,2013-02-16 02:45:00,
2013-02-15 21:46:00,38.8,35.3,29.94,SSW,197,0.0,4.0,87,0.00,,---,0.00,VWS V14.01,2013-02-16 02:46:00,
2013-02-15 21:47:00,38.8,35.3,29.95,SSW,197,0.0,4.0,87,0.00,,---,0.00,VWS V14.01,2013-02-16 02:47:00,
2013-02-15 21:48:00,38.8,35.3,29.95,SSW,197,0.0,4.0,87,0.00,,---,0.00,VWS V14.01,2013-02-16 02:48:00,
2013-02-15 21:49:00,38.8,35.3,29.95,SSW,197,0.0,4.0,87,0.00,,---,0.00,VWS V14.01,2013-02-16 02:49:00,
2013-02-15 21:50:00,38.7,35.2,29.95,SSW,197,0.0,4.0,87,0.00,,---,0.00,VWS V14.01,2013-02-16 02:50:00,
2013-02-15 21:51:00,38.7,35.2,29.95,SSW,197,0.0,4.0,87,0.00,,---,0.00,VWS V14.01,2013-02-16 02:51:00,
2013-02-15 21:52:00,38.7,35.2,29.95,SSW,197,0.0,4.0,87,0.00,,---,0.00,VWS V14.01,2013-02-16 02:52:00,
2013-02-15 21:53:00,38.7,35.2,29.94,SSW,197,0.0,4.0,87,0.00,,---,0.00,VWS V14.01,2013-02-16 02:53:00,
2013-02-15 21:54:00,38.7,35.2,29.94,SSW,197,0.0,4.0,87,0.00,,---,0.00,VWS V14.01,2013-02-16 02:54:00,
2013-02-15 21:55:00,38.7,35.2,29.94,SSW,197,0.0,4.0,87,0.00,,---,0.00,VWS V14.01,2013-02-16 02:55:00,
2013-02-15 21:56:00,38.6,35.1,29.94,SSW,197,0.0,4.0,87,0.00,,---,0.00,VWS V14.01,2013-02-16 02:56:00,
2013-02-15 21:57:00,38.6,35.1,29.94,SSW,197,0.0,4.0,87,0.00,,---,0.00,VWS V14.01,2013-02-16 02:57:00,
2013-02-15 21:58:00,38.6,35.1,29.94,SSW,197,0.0,4.0,87,0.00,,---,0.00,VWS V14.01,2013-02-16 02:58:00,
2013-02-15 21:59:00,38.6,35.1,29.94,SSW,197,0.0,4.0,87,0.00,,---,0.00,VWS V14.01,2013-02-16 02:59:00,
2013-02-15 22:00:00,38.6,35.1,29.94,SSW,197,0.0,4.0,87,0.00,,---,0.00,VWS V14.01,2013-02-16 03:00:00,
2013-02-15 22:01:00,38.6,35.1,29.94,SSW,197,0.0,0.0,87,0.00,,---,0.00,VWS V14.01,2013-02-16 03:01:00,
2013-02-15 22:02:00,38.6,35.1,29.94,SSW,197,0.0,0.0,87,0.00,,---,0.00,VWS V14.01,2013-02-16 03:02:00,
2013-02-15 22:03:00,38.6,35.1,29.94,SSW,197,0.0,0.0,87,0.00,,---,0.00,VWS V14.01,2013-02-16 03:03:00,
2013-02-15 22:04:00,38.5,35.0,29.94,SSW,197,0.0,0.0,87,0.00,,---,0.00,VWS V14.01,2013-02-16 03:04:00,
2013-02-15 22:05:00,38.6,35.1,29.94,SSW,197,0.0,0.0,87,0.00,,---,0.00,VWS V14.01,2013-02-16 03:05:00,
2013-02-15 22:06:00,38.5,35.0,29.94,SSW,197,0.0,0.0,87,0.00,,---,0.00,VWS V14.01,2013-02-16 03:06:00,
2013-02-15 22:07:00,38.5,35.0,29.94,SSW,197,0.0,0.0,87,0.00,,---,0.00,VWS V14.01,2013-02-16 03:07:00,
2013-02-15 22:08:00,38.5,35.0,29.94,SSW,197,0.0,0.0,87,0.00,,---,0.00,VWS V14.01,2013-02-16 03:08:00,
2013-02-15 22:09:00,38.5,35.0,29.94,SSW,197,0.0,0.0,87,0.00,,---,0.00,VWS V14.01,2013-02-16 03:09:00,
2013-02-15 22:10:00,38.4,34.9,29.94,SSW,197,0.0,0.0,87,0.00,,---,0.00,VWS V14.01,2013-02-16 03:10:00,
2013-02-15 22:11:00,38.4,34.9,29.94,SSW,197,0.0,0.0,87,0.00,,---,0.00,VWS V14.01,2013-02-16 03:11:00,
2013-02-15 22:12:00,38.4,34.9,29.94,SSW,197,0.0,0.0,87,0.00,,---,0.00,VWS V14.01,2013-02-16 03:12:00,
2013-02-15 22:13:00,38.4,34.9,29.94,SSW,198,0.0,0.0,87,0.00,,---,0.00,VWS V14.01,2013-02-16 03:13:00,
2013-02-15 22:14:00,38.4,34.9,29.94,SSW,197,0.0,0.0,87,0.00,,---,0.00,VWS V14.01,2013-02-16 03:14:00,
2013-02-15 22:15:00,38.4,34.9,29.94,SSW,197,0.0,0.0,87,0.00,,---,0.00,VWS V14.01,2013-02-16 03:15:00,
2013-02-15 22:16:00,38.4,34.9,29.94,SSW,197,0.0,0.0,87,0.00,,---,0.00,VWS V14.01,2013-02-16 03:16:00,
2013-02-15 22:17:00,38.4,34.9,29.94,SSW,197,0.0,0.0,87,0.00,,---,0.00,VWS V14.01,2013-02-16 03:17:00,
2013-02-15 22:18:00,38.3,34.8,29.94,SSW,197,0.0,0.0,87,0.00,,---,0.00,VWS V14.01,2013-02-16 03:18:00,
2013-02-15 22:19:00,38.3,34.8,29.94,SSW,197,0.0,0.0,87,0.00,,---,0.00,VWS V14.01,2013-02-16 03:19:00,
2013-02-15 22:20:00,38.3,34.8,29.93,SSW,197,0.0,0.0,87,0.00,,---,0.00,VWS V14.01,2013-02-16 03:20:00,
2013-02-15 22:21:00,38.3,34.8,29.94,SSW,197,0.0,0.0,87,0.00,,---,0.00,VWS V14.01,2013-02-16 03:21:00,
2013-02-15 22:22:00,38.3,34.8,29.94,SSW,197,0.0,0.0,87,0.00,,---,0.00,VWS V14.01,2013-02-16 03:22:00,
2013-02-15 22:23:00,38.3,34.8,29.94,SSW,197,0.0,0.0,87,0.00,,---,0.00,VWS V14.01,2013-02-16 03:23:00,
2013-02-15 22:24:00,38.3,34.8,29.94,SSW,197,0.0,0.0,87,0.00,,---,0.00,VWS V14.01,2013-02-16 03:24:00,
2013-02-15 22:25:00,38.3,34.8,29.94,SSW,197,0.0,0.0,87,0.00,,---,0.00,VWS V14.01,2013-02-16 03:25:00,
2013-02-15 22:26:00,38.3,34.8,29.94,SSW,197,0.0,0.0,87,0.00,,---,0.00,VWS V14.01,2013-02-16 03:26:00,
2013-02-15 22:27:00,38.3,34.8,29.94,SSW,197,0.0,0.0,87,0.00,,---,0.00,VWS V14.01,2013-02-16 03:27:00,
2013-02-15 22:28:00,38.3,34.8,29.94,SSW,197,0.0,0.0,87,0.00,,---,0.00,VWS V14.01,2013-02-16 03:28:00,
2013-02-15 22:29:00,38.3,34.8,29.94,SSW,197,0.0,0.0,87,0.00,,---,0.00,VWS V14.01,2013-02-16 03:29:00,
2013-02-15 22:30:00,38.3,34.8,29.94,SSW,197,0.0,0.0,87,0.00,,---,0.00,VWS V14.01,2013-02-16 03:30:00,
2013-02-15 22:31:00,38.3,34.8,29.94,SSW,197,0.0,0.0,87,0.00,,---,0.00,VWS V14.01,2013-02-16 03:31:00,
2013-02-15 22:32:00,38.3,34.8,29.94,SSW,197,0.0,0.0,87,0.00,,---,0.00,VWS V14.01,2013-02-16 03:32:00,
2013-02-15 22:33:00,38.3,34.8,29.94,SSW,197,0.0,0.0,87,0.00,,---,0.00,VWS V14.01,2013-02-16 03:33:00,
2013-02-15 22:34:00,38.2,34.7,29.94,SSW,197,0.0,0.0,87,0.00,,---,0.00,VWS V14.01,2013-02-16 03:34:00,
2013-02-15 22:35:00,38.2,34.7,29.94,SSW,197,0.0,0.0,87,0.00,,---,0.00,VWS V14.01,2013-02-16 03:35:00,
2013-02-15 22:36:00,38.2,34.7,29.94,SSW,197,0.0,0.0,87,0.00,,---,0.00,VWS V14.01,2013-02-16 03:36:00,
2013-02-15 22:37:00,38.2,34.7,29.94,SSW,197,0.0,0.0,87,0.00,,---,0.00,VWS V14.01,2013-02-16 03:37:00,
2013-02-15 22:38:00,38.2,34.7,29.94,SSW,197,0.0,0.0,87,0.00,,---,0.00,VWS V14.01,2013-02-16 03:38:00,
2013-02-15 22:39:00,38.2,34.7,29.94,SSW,197,0.0,0.0,87,0.00,,---,0.00,VWS V14.01,2013-02-16 03:39:00,
2013-02-15 22:40:00,38.2,34.7,29.94,SSW,197,0.0,0.0,87,0.00,,---,0.00,VWS V14.01,2013-02-16 03:40:00,
2013-02-15 22:41:00,38.2,34.7,29.94,SSW,197,0.0,0.0,87,0.00,,---,0.00,VWS V14.01,2013-02-16 03:41:00,
2013-02-15 22:42:00,38.2,34.7,29.94,SSW,197,0.0,0.0,87,0.00,,---,0.00,VWS V14.01,2013-02-16 03:42:00,
2013-02-15 22:43:00,38.2,34.7,29.94,SSW,197,0.0,0.0,87,0.00,,---,0.00,VWS V14.01,2013-02-16 03:43:00,
2013-02-15 22:44:00,38.1,34.6,29.94,SSW,197,0.0,0.0,87,0.00,,---,0.00,VWS V14.01,2013-02-16 03:44:00,
2013-02-15 22:45:00,38.1,34.6,29.94,SSW,197,0.0,0.0,87,0.00,,---,0.00,VWS V14.01,2013-02-16 03:45:00,
2013-02-15 22:46:00,38.2,34.7,29.94,SSW,197,0.0,0.0,87,0.00,,---,0.00,VWS V14.01,2013-02-16 03:46:00,
2013-02-15 22:47:00,38.1,34.6,29.94,SSW,197,0.0,0.0,87,0.00,,---,0.00,VWS V14.01,2013-02-16 03:47:00,
2013-02-15 22:48:00,38.1,34.6,29.94,SSW,197,0.0,0.0,87,0.00,,---,0.00,VWS V14.01,2013-02-16 03:48:00,
2013-02-15 22:49:00,38.1,34.6,29.94,SSW,197,0.0,0.0,87,0.00,,---,0.00,VWS V14.01,2013-02-16 03:49:00,
2013-02-15 22:50:00,38.1,34.6,29.94,SSW,197,0.0,0.0,87,0.00,,---,0.00,VWS V14.01,2013-02-16 03:50:00,
2013-02-15 22:51:00,38.0,34.5,29.94,SSW,197,0.0,0.0,87,0.00,,---,0.00,VWS V14.01,2013-02-16 03:51:00,
2013-02-15 22:52:00,38.0,34.5,29.94,SSW,197,0.0,0.0,87,0.00,,---,0.00,VWS V14.01,2013-02-16 03:52:00,
2013-02-15 22:53:00,38.0,34.5,29.94,SSW,197,0.0,0.0,87,0.00,,---,0.00,VWS V14.01,2013-02-16 03:53:00,
2013-02-15 22:54:00,38.0,34.5,29.94,SSW,197,0.0,0.0,87,0.00,,---,0.00,VWS V14.01,2013-02-16 03:54:00,
2013-02-15 22:55:00,38.0,34.5,29.94,SSW,197,0.0,0.0,87,0.00,,---,0.00,VWS V14.01,2013-02-16 03:55:00,
2013-02-15 22:56:00,38.0,34.5,29.94,SSW,197,0.0,0.0,87,0.00,,---,0.00,VWS V14.01,2013-02-16 03:56:00,
2013-02-15 22:57:00,38.0,34.5,29.94,SSW,197,0.0,0.0,87,0.00,,---,0.00,VWS V14.01,2013-02-16 03:57:00,
2013-02-15 22:58:00,38.0,34.5,29.94,SSW,198,0.0,0.0,87,0.00,,---,0.00,VWS V14.01,2013-02-16 03:58:00,
2013-02-15 22:59:00,38.0,34.5,29.94,SSW,197,0.0,0.0,87,0.00,,---,0.00,VWS V14.01,2013-02-16 03:59:00,
2013-02-15 23:00:00,38.0,34.5,29.94,SSW,197,0.0,0.0,87,0.00,,---,0.00,VWS V14.01,2013-02-16 04:00:00,
2013-02-15 23:01:00,38.0,34.8,29.94,SSW,197,0.0,0.0,88,0.00,,---,0.00,VWS V14.01,2013-02-16 04:01:00,
2013-02-15 23:02:00,38.0,34.5,29.94,SSW,197,0.0,0.0,87,0.00,,---,0.00,VWS V14.01,2013-02-16 04:02:00,
2013-02-15 23:03:00,38.0,34.8,29.94,SSW,197,0.0,0.0,88,0.00,,---,0.00,VWS V14.01,2013-02-16 04:03:00,
2013-02-15 23:04:00,37.9,34.7,29.94,SSW,197,0.0,0.0,88,0.00,,---,0.00,VWS V14.01,2013-02-16 04:04:00,
2013-02-15 23:05:00,37.9,34.7,29.94,SSW,197,0.0,0.0,88,0.00,,---,0.00,VWS V14.01,2013-02-16 04:05:00,
2013-02-15 23:06:00,37.9,34.7,29.94,SSW,197,0.0,0.0,88,0.00,,---,0.00,VWS V14.01,2013-02-16 04:06:00,
2013-02-15 23:07:00,37.9,34.7,29.94,SSW,197,0.0,0.0,88,0.00,,---,0.00,VWS V14.01,2013-02-16 04:07:00,
2013-02-15 23:08:00,37.9,34.7,29.94,SSW,197,0.0,0.0,88,0.00,,---,0.00,VWS V14.01,2013-02-16 04:08:00,
2013-02-15 23:09:00,37.9,34.7,29.94,SSW,197,0.0,0.0,88,0.00,,---,0.00,VWS V14.01,2013-02-16 04:09:00,
2013-02-15 23:10:00,37.9,34.7,29.94,SSW,197,0.0,0.0,88,0.00,,---,0.00,VWS V14.01,2013-02-16 04:10:00,
2013-02-15 23:11:00,37.9,34.7,29.94,SSW,197,0.0,0.0,88,0.00,,---,0.00,VWS V14.01,2013-02-16 04:11:00,
2013-02-15 23:12:00,37.9,34.7,29.94,SSW,197,0.0,0.0,88,0.00,,---,0.00,VWS V14.01,2013-02-16 04:12:00,
2013-02-15 23:13:00,37.9,34.7,29.94,SSW,197,0.0,0.0,88,0.00,,---,0.00,VWS V14.01,2013-02-16 04:13:00,
2013-02-15 23:14:00,37.8,34.6,29.94,SSW,197,0.0,0.0,88,0.00,,---,0.00,VWS V14.01,2013-02-16 04:14:00,
2013-02-15 23:15:00,37.8,34.6,29.94,SSW,197,0.0,0.0,88,0.00,,---,0.00,VWS V14.01,2013-02-16 04:15:00,
2013-02-15 23:16:00,37.8,34.6,29.94,SSW,197,0.0,0.0,88,0.00,,---,0.00,VWS V14.01,2013-02-16 04:16:00,
2013-02-15 23:17:00,37.8,34.3,29.94,SSW,197,0.0,0.0,87,0.00,,---,0.00,VWS V14.01,2013-02-16 04:17:00,
2013-02-15 23:18:00,37.8,34.3,29.94,SSW,197,0.0,0.0,87,0.00,,---,0.00,VWS V14.01,2013-02-16 04:18:00,
2013-02-15 23:19:00,37.8,34.3,29.94,SSW,197,0.0,0.0,87,0.00,,---,0.00,VWS V14.01,2013-02-16 04:19:00,
2013-02-15 23:20:00,37.7,34.2,29.94,SSW,197,0.0,0.0,87,0.00,,---,0.00,VWS V14.01,2013-02-16 04:20:00,
2013-02-15 23:21:00,37.7,34.2,29.94,SSW,197,0.0,0.0,87,0.00,,---,0.00,VWS V14.01,2013-02-16 04:21:00,
2013-02-15 23:22:00,37.7,34.2,29.94,SSW,197,0.0,0.0,87,0.00,,---,0.00,VWS V14.01,2013-02-16 04:22:00,
2013-02-15 23:23:00,37.7,34.2,29.94,SSW,197,0.0,0.0,87,0.00,,---,0.00,VWS V14.01,2013-02-16 04:23:00,
2013-02-15 23:24:00,37.7,34.2,29.94,SSW,197,0.0,0.0,87,0.00,,---,0.00,VWS V14.01,2013-02-16 04:24:00,
2013-02-15 23:25:00,37.7,34.2,29.94,SSW,197,0.0,0.0,87,0.00,,---,0.00,VWS V14.01,2013-02-16 04:25:00,
2013-02-15 23:26:00,37.7,34.2,29.94,SSW,197,0.0,0.0,87,0.00,,---,0.00,VWS V14.01,2013-02-16 04:26:00,
2013-02-15 23:27:00,37.7,34.2,29.94,SSW,197,0.0,0.0,87,0.00,,---,0.00,VWS V14.01,2013-02-16 04:27:00,
2013-02-15 23:28:00,37.7,34.2,29.94,SSW,197,0.0,0.0,87,0.00,,---,0.00,VWS V14.01,2013-02-16 04:28:00,
2013-02-15 23:29:00,37.6,34.1,29.94,SSW,197,0.0,0.0,87,0.00,,---,0.00,VWS V14.01,2013-02-16 04:29:00,
2013-02-15 23:30:00,37.6,34.1,29.94,SSW,197,0.0,0.0,87,0.00,,---,0.00,VWS V14.01,2013-02-16 04:30:00,
2013-02-15 23:31:00,37.6,34.1,29.94,SSW,197,0.0,0.0,87,0.00,,---,0.00,VWS V14.01,2013-02-16 04:31:00,
2013-02-15 23:32:00,37.6,34.1,29.94,SSW,197,0.0,0.0,87,0.00,,---,0.00,VWS V14.01,2013-02-16 04:32:00,
2013-02-15 23:33:00,37.5,34.0,29.94,SSW,197,0.0,0.0,87,0.00,,---,0.00,VWS V14.01,2013-02-16 04:33:00,
2013-02-15 23:34:00,37.5,34.0,29.93,SSW,197,0.0,0.0,87,0.00,,---,0.00,VWS V14.01,2013-02-16 04:34:00,
2013-02-15 23:35:00,37.5,34.0,29.94,SSW,197,0.0,0.0,87,0.00,,---,0.00,VWS V14.01,2013-02-16 04:35:00,
2013-02-15 23:36:00,37.5,34.0,29.93,SSW,197,0.0,0.0,87,0.00,,---,0.00,VWS V14.01,2013-02-16 04:36:00,
2013-02-15 23:37:00,37.5,34.0,29.93,SSW,197,0.0,0.0,87,0.00,,---,0.00,VWS V14.01,2013-02-16 04:37:00,
2013-02-15 23:38:00,37.5,34.0,29.93,SSW,197,0.0,0.0,87,0.00,,---,0.00,VWS V14.01,2013-02-16 04:38:00,
2013-02-15 23:39:00,37.5,34.0,29.93,SSW,197,0.0,0.0,87,0.00,,---,0.00,VWS V14.01,2013-02-16 04:39:00,
2013-02-15 23:40:00,37.4,33.9,29.94,SSW,197,0.0,0.0,87,0.00,,---,0.00,VWS V14.01,2013-02-16 04:40:00,
2013-02-15 23:41:00,37.4,33.9,29.94,SSW,197,0.0,0.0,87,0.00,,---,0.00,VWS V14.01,2013-02-16 04:41:00,
2013-02-15 23:42:00,37.4,34.2,29.94,SSW,197,0.0,0.0,88,0.00,,---,0.00,VWS V14.01,2013-02-16 04:42:00,
2013-02-15 23:43:00,37.4,34.2,29.93,SSW,197,0.0,0.0,88,0.00,,---,0.00,VWS V14.01,2013-02-16 04:43:00,
2013-02-15 23:44:00,37.4,34.2,29.94,SSW,197,0.0,0.0,88,0.00,,---,0.00,VWS V14.01,2013-02-16 04:44:00,
2013-02-15 23:45:00,37.4,34.2,29.94,SSW,197,0.0,0.0,88,0.00,,---,0.00,VWS V14.01,2013-02-16 04:45:00,
2013-02-15 23:46:00,37.4,34.2,29.94,SSW,197,0.0,0.0,88,0.00,,---,0.00,VWS V14.01,2013-02-16 04:46:00,
2013-02-15 23:47:00,37.3,34.1,29.94,SSW,197,0.0,0.0,88,0.00,,---,0.00,VWS V14.01,2013-02-16 04:47:00,
2013-02-15 23:48:00,37.3,34.1,29.94,SSW,197,0.0,0.0,88,0.00,,---,0.00,VWS V14.01,2013-02-16 04:48:00,
2013-02-15 23:49:00,37.3,34.1,29.94,SSW,197,0.0,0.0,88,0.00,,---,0.00,VWS V14.01,2013-02-16 04:49:00,
2013-02-15 23:50:00,37.3,34.1,29.94,SSW,197,0.0,0.0,88,0.00,,---,0.00,VWS V14.01,2013-02-16 04:50:00,
2013-02-15 23:51:00,37.3,34.1,29.94,SSW,197,0.0,0.0,88,0.00,,---,0.00,VWS V14.01,2013-02-16 04:51:00,
2013-02-15 23:52:00,37.4,34.2,29.94,SSW,197,0.0,0.0,88,0.00,,---,0.00,VWS V14.01,2013-02-16 04:52:00,
2013-02-15 23:53:00,37.4,34.2,29.94,SSW,197,0.0,0.0,88,0.00,,---,0.00,VWS V14.01,2013-02-16 04:53:00,
2013-02-15 23:54:00,37.4,34.2,29.94,SSW,197,0.0,0.0,88,0.00,,---,0.00,VWS V14.01,2013-02-16 04:54:00,
2013-02-15 23:55:00,37.4,34.2,29.94,SSW,197,0.0,0.0,88,0.00,,---,0.00,VWS V14.01,2013-02-16 04:55:00,
2013-02-15 23:56:00,37.4,34.2,29.94,SSW,197,0.0,0.0,88,0.00,,---,0.00,VWS V14.01,2013-02-16 04:56:00,
2013-02-15 23:57:00,37.4,34.2,29.94,SSW,197,0.0,0.0,88,0.00,,---,0.00,VWS V14.01,2013-02-16 04:57:00,
2013-02-15 23:58:00,37.4,34.2,29.94,SSW,197,0.0,0.0,88,0.00,,---,0.00,VWS V14.01,2013-02-16 04:58:00,
2013-02-15 23:59:00,37.4,34.2,29.94,SSW,197,0.0,0.0,88,0.00,,---,0.00,VWS V14.01,2013-02-16 04:59:00,